<?xml version='1.0' encoding='UTF-8'?><gpx version="1.1" creator="JPX - https://github.com/jenetics/jpx" xmlns="http://www.topografix.com/GPX/1/1"><trk><trkseg><trkpt lat="45.52640261850741" lon="10.841866388735651"><ele>176.42857142857144</ele><time>2026-03-29T06:23:46.008Z</time></trkpt><trkpt lat="45.526445532402064" lon="10.841794001368397"><ele>175.85714285714283</ele><time>2026-03-29T06:25:28.009Z</time></trkpt><trkpt lat="45.526485580817415" lon="10.841716031154476"><ele>175.28571428571428</ele><time>2026-03-29T06:25:35.009Z</time></trkpt><trkpt lat="45.526520758464216" lon="10.84161729625202"><ele>174.71428571428572</ele><time>2026-03-29T06:25:45.009Z</time></trkpt><trkpt lat="45.52655542077316" lon="10.841537581818004"><ele>174.14285714285717</ele><time>2026-03-29T06:25:52.008Z</time></trkpt><trkpt lat="45.52660507048993" lon="10.841461394472022"><ele>173.57142857142856</ele><time>2026-03-29T06:25:58.008Z</time></trkpt><trkpt lat="45.52664046652497" lon="10.841384341216804"><ele>173.0</ele><time>2026-03-29T06:26:04.008Z</time></trkpt><trkpt lat="45.52668190516863" lon="10.841301160959672"><ele>173.0</ele><time>2026-03-29T06:26:09.008Z</time></trkpt><trkpt lat="45.526705045663164" lon="10.841217533418229"><ele>173.0</ele><time>2026-03-29T06:26:17.008Z</time></trkpt><trkpt lat="45.526685266882936" lon="10.841120798549028"><ele>173.0</ele><time>2026-03-29T06:26:22.008Z</time></trkpt><trkpt lat="45.52666505440369" lon="10.841015966306447"><ele>173.0</ele><time>2026-03-29T06:26:33.011Z</time></trkpt><trkpt lat="45.52660045548067" lon="10.840975175362253"><ele>173.0</ele><time>2026-03-29T06:26:48.011Z</time></trkpt><trkpt lat="45.526556089572374" lon="10.840899326937967"><ele>173.0</ele><time>2026-03-29T06:27:03.011Z</time></trkpt><trkpt lat="45.52651311823821" lon="10.840833250449823"><ele>173.0</ele><time>2026-03-29T06:27:09.011Z</time></trkpt><trkpt lat="45.52645787266825" lon="10.840783953817665"><ele>172.85714285714286</ele><time>2026-03-29T06:27:15.01Z</time></trkpt><trkpt lat="45.52641328177372" lon="10.840707564099164"><ele>172.71428571428572</ele><time>2026-03-29T06:27:27.01Z</time></trkpt><trkpt lat="45.526341378747716" lon="10.840671064940816"><ele>172.57142857142858</ele><time>2026-03-29T06:27:32.01Z</time></trkpt><trkpt lat="45.52628049414295" lon="10.84061484204099"><ele>172.42857142857144</ele><time>2026-03-29T06:27:36.01Z</time></trkpt><trkpt lat="45.52621655947666" lon="10.840601322772757"><ele>172.28571428571428</ele><time>2026-03-29T06:27:40.01Z</time></trkpt><trkpt lat="45.526154045685594" lon="10.840588698329805"><ele>172.14285714285717</ele><time>2026-03-29T06:27:44.01Z</time></trkpt><trkpt lat="45.52608291635975" lon="10.84058180511416"><ele>172.0</ele><time>2026-03-29T06:27:50.01Z</time></trkpt><trkpt lat="45.526015644300465" lon="10.840540973642677"><ele>171.42857142857144</ele><time>2026-03-29T06:27:56.01Z</time></trkpt><trkpt lat="45.52595950046988" lon="10.84047972335734"><ele>170.85714285714286</ele><time>2026-03-29T06:28:03.01Z</time></trkpt><trkpt lat="45.52589618346751" lon="10.840451830280704"><ele>170.28571428571428</ele><time>2026-03-29T06:28:07.009Z</time></trkpt><trkpt lat="45.525831750673134" lon="10.840417323687417"><ele>169.71428571428572</ele><time>2026-03-29T06:28:13.009Z</time></trkpt><trkpt lat="45.52577235985308" lon="10.840382035193297"><ele>169.14285714285714</ele><time>2026-03-29T06:28:19.009Z</time></trkpt><trkpt lat="45.525703478118515" lon="10.84037279241294"><ele>168.57142857142858</ele><time>2026-03-29T06:28:26.009Z</time></trkpt><trkpt lat="45.525615015924956" lon="10.840392170558168"><ele>168.0</ele><time>2026-03-29T06:29:15.01Z</time></trkpt><trkpt lat="45.52554527030901" lon="10.840372590945792"><ele>168.0</ele><time>2026-03-29T06:29:23.01Z</time></trkpt><trkpt lat="45.525474516533784" lon="10.840393597793062"><ele>168.0</ele><time>2026-03-29T06:29:29.01Z</time></trkpt><trkpt lat="45.52541189209136" lon="10.840403040543661"><ele>168.0</ele><time>2026-03-29T06:29:34.01Z</time></trkpt><trkpt lat="45.525335402100694" lon="10.84043177208271"><ele>168.0</ele><time>2026-03-29T06:30:05.009Z</time></trkpt><trkpt lat="45.5252695055607" lon="10.84046659535883"><ele>168.0</ele><time>2026-03-29T06:30:13.009Z</time></trkpt><trkpt lat="45.52520523389069" lon="10.840499576263872"><ele>168.0</ele><time>2026-03-29T06:30:18.009Z</time></trkpt><trkpt lat="45.52513965128281" lon="10.840530176273564"><ele>168.0</ele><time>2026-03-29T06:30:23.009Z</time></trkpt><trkpt lat="45.52506375571762" lon="10.840533544825451"><ele>168.28571428571428</ele><time>2026-03-29T06:30:28.009Z</time></trkpt><trkpt lat="45.52499104824034" lon="10.84052075955391"><ele>168.57142857142856</ele><time>2026-03-29T06:30:33.009Z</time></trkpt><trkpt lat="45.524942953007184" lon="10.840454285389736"><ele>168.85714285714286</ele><time>2026-03-29T06:30:38.01Z</time></trkpt><trkpt lat="45.52488062964995" lon="10.8404082010381"><ele>169.14285714285714</ele><time>2026-03-29T06:30:43.01Z</time></trkpt><trkpt lat="45.52486018253444" lon="10.840315192448314"><ele>169.42857142857142</ele><time>2026-03-29T06:30:48.009Z</time></trkpt><trkpt lat="45.52483533419022" lon="10.84022526472654"><ele>169.71428571428572</ele><time>2026-03-29T06:30:53.009Z</time></trkpt><trkpt lat="45.52479258354414" lon="10.840151287750933"><ele>170.0</ele><time>2026-03-29T06:31:02.008Z</time></trkpt><trkpt lat="45.52477395440924" lon="10.840058036743292"><ele>169.42857142857144</ele><time>2026-03-29T06:31:09.008Z</time></trkpt><trkpt lat="45.524756297508716" lon="10.8399713699282"><ele>168.85714285714283</ele><time>2026-03-29T06:31:18.007Z</time></trkpt><trkpt lat="45.524746033498076" lon="10.839874742353153"><ele>168.28571428571428</ele><time>2026-03-29T06:31:24.007Z</time></trkpt><trkpt lat="45.52474433412154" lon="10.839782473689443"><ele>167.71428571428572</ele><time>2026-03-29T06:31:28.007Z</time></trkpt><trkpt lat="45.52475042515641" lon="10.839679762149473"><ele>167.14285714285717</ele><time>2026-03-29T06:31:33.007Z</time></trkpt><trkpt lat="45.52473883351148" lon="10.839588425364779"><ele>166.57142857142856</ele><time>2026-03-29T06:31:38.007Z</time></trkpt><trkpt lat="45.524729331895784" lon="10.839494638143645"><ele>166.0</ele><time>2026-03-29T06:31:43.006Z</time></trkpt><trkpt lat="45.52472637931512" lon="10.839391733227714"><ele>165.85714285714286</ele><time>2026-03-29T06:31:48.006Z</time></trkpt><trkpt lat="45.52470379190145" lon="10.839288939598323"><ele>165.71428571428572</ele><time>2026-03-29T06:31:54.006Z</time></trkpt><trkpt lat="45.52468943648327" lon="10.839193215183288"><ele>165.57142857142858</ele><time>2026-03-29T06:31:58.006Z</time></trkpt><trkpt lat="45.52465815918495" lon="10.839108230333272"><ele>165.42857142857144</ele><time>2026-03-29T06:32:02.006Z</time></trkpt><trkpt lat="45.52461400764206" lon="10.839019927495215"><ele>165.28571428571428</ele><time>2026-03-29T06:32:08.006Z</time></trkpt><trkpt lat="45.52458907320161" lon="10.838923855890412"><ele>165.14285714285717</ele><time>2026-03-29T06:32:13.006Z</time></trkpt><trkpt lat="45.524566039057994" lon="10.838833605933576"><ele>165.0</ele><time>2026-03-29T06:32:19.006Z</time></trkpt><trkpt lat="45.52454327234434" lon="10.838737663625016"><ele>164.57142857142858</ele><time>2026-03-29T06:32:24.006Z</time></trkpt><trkpt lat="45.52448774851274" lon="10.838667340667177"><ele>164.14285714285714</ele><time>2026-03-29T06:32:29.006Z</time></trkpt><trkpt lat="45.52441412766381" lon="10.838630506664234"><ele>163.71428571428572</ele><time>2026-03-29T06:32:36.005Z</time></trkpt><trkpt lat="45.52435160101719" lon="10.838602129101325"><ele>163.28571428571428</ele><time>2026-03-29T06:32:41.005Z</time></trkpt><trkpt lat="45.524287633193524" lon="10.838590776866793"><ele>162.85714285714286</ele><time>2026-03-29T06:32:47.007Z</time></trkpt><trkpt lat="45.52422292930545" lon="10.838573538933495"><ele>162.42857142857144</ele><time>2026-03-29T06:32:52.008Z</time></trkpt><trkpt lat="45.524168882035276" lon="10.838504140549372"><ele>162.0</ele><time>2026-03-29T06:32:58.007Z</time></trkpt><trkpt lat="45.52413314230602" lon="10.838428560484724"><ele>162.0</ele><time>2026-03-29T06:33:03.007Z</time></trkpt><trkpt lat="45.52410052938129" lon="10.838336789128364"><ele>162.0</ele><time>2026-03-29T06:33:09.007Z</time></trkpt><trkpt lat="45.524068531558086" lon="10.838241848104047"><ele>162.0</ele><time>2026-03-29T06:33:15.007Z</time></trkpt><trkpt lat="45.52400968876889" lon="10.838189645391463"><ele>162.0</ele><time>2026-03-29T06:33:22.007Z</time></trkpt><trkpt lat="45.523959915170046" lon="10.838110629672808"><ele>162.0</ele><time>2026-03-29T06:33:30.007Z</time></trkpt><trkpt lat="45.523918252547006" lon="10.83800261574681"><ele>162.0</ele><time>2026-03-29T06:33:35.007Z</time></trkpt><trkpt lat="45.523897768780536" lon="10.837874163839167"><ele>162.0</ele><time>2026-03-29T06:33:39.006Z</time></trkpt><trkpt lat="45.523879033808484" lon="10.837787528230754"><ele>162.0</ele><time>2026-03-29T06:33:41.006Z</time></trkpt><trkpt lat="45.52387205955078" lon="10.837675865324782"><ele>162.0</ele><time>2026-03-29T06:33:44.006Z</time></trkpt><trkpt lat="45.523869021664154" lon="10.837575060889886"><ele>162.0</ele><time>2026-03-29T06:33:47.006Z</time></trkpt><trkpt lat="45.52385222681664" lon="10.837460833379534"><ele>162.0</ele><time>2026-03-29T06:33:50.006Z</time></trkpt><trkpt lat="45.52381957974314" lon="10.837342306536577"><ele>162.0</ele><time>2026-03-29T06:33:53.006Z</time></trkpt><trkpt lat="45.523791610646505" lon="10.837224521351702"><ele>162.0</ele><time>2026-03-29T06:33:56.006Z</time></trkpt><trkpt lat="45.52376404233952" lon="10.837125685746923"><ele>162.0</ele><time>2026-03-29T06:33:59.006Z</time></trkpt><trkpt lat="45.523740063558186" lon="10.837013302733883"><ele>162.0</ele><time>2026-03-29T06:34:02.006Z</time></trkpt><trkpt lat="45.523713305284" lon="10.83691521613295"><ele>162.0</ele><time>2026-03-29T06:34:05.006Z</time></trkpt><trkpt lat="45.52369530734288" lon="10.836784667788576"><ele>162.0</ele><time>2026-03-29T06:34:08.006Z</time></trkpt><trkpt lat="45.523670362647984" lon="10.836670282121213"><ele>162.0</ele><time>2026-03-29T06:34:11.006Z</time></trkpt><trkpt lat="45.52365585520204" lon="10.836562685060095"><ele>162.0</ele><time>2026-03-29T06:34:14.006Z</time></trkpt><trkpt lat="45.52362003003305" lon="10.836461269664932"><ele>162.0</ele><time>2026-03-29T06:34:17.006Z</time></trkpt><trkpt lat="45.52361998633686" lon="10.836368612118873"><ele>162.0</ele><time>2026-03-29T06:34:19.006Z</time></trkpt><trkpt lat="45.52359946762231" lon="10.836270232620572"><ele>162.0</ele><time>2026-03-29T06:34:21.006Z</time></trkpt><trkpt lat="45.52360690092964" lon="10.83614315407457"><ele>162.0</ele><time>2026-03-29T06:34:24.006Z</time></trkpt><trkpt lat="45.52360737809603" lon="10.83603565136758"><ele>162.0</ele><time>2026-03-29T06:34:27.005Z</time></trkpt><trkpt lat="45.52358639213315" lon="10.835915186818658"><ele>162.0</ele><time>2026-03-29T06:34:30.005Z</time></trkpt><trkpt lat="45.52355905343285" lon="10.835817944717668"><ele>162.0</ele><time>2026-03-29T06:34:32.005Z</time></trkpt><trkpt lat="45.52355714745388" lon="10.835714132318115"><ele>162.0</ele><time>2026-03-29T06:34:35.005Z</time></trkpt><trkpt lat="45.523542297692565" lon="10.835605566210594"><ele>162.0</ele><time>2026-03-29T06:34:38.005Z</time></trkpt><trkpt lat="45.5235408004433" lon="10.835478799377498"><ele>162.0</ele><time>2026-03-29T06:34:41.005Z</time></trkpt><trkpt lat="45.52354530304422" lon="10.835363428402527"><ele>162.0</ele><time>2026-03-29T06:34:44.005Z</time></trkpt><trkpt lat="45.52356753184089" lon="10.835266271939682"><ele>162.0</ele><time>2026-03-29T06:34:47.005Z</time></trkpt><trkpt lat="45.52359223899139" lon="10.835150804658163"><ele>162.0</ele><time>2026-03-29T06:34:50.009Z</time></trkpt><trkpt lat="45.523632542403874" lon="10.835056742698688"><ele>162.0</ele><time>2026-03-29T06:34:53.008Z</time></trkpt><trkpt lat="45.52364577919616" lon="10.834929307275685"><ele>162.0</ele><time>2026-03-29T06:34:56.008Z</time></trkpt><trkpt lat="45.52364904469265" lon="10.834804018392571"><ele>162.0</ele><time>2026-03-29T06:34:59.009Z</time></trkpt><trkpt lat="45.523639895989184" lon="10.834699143644576"><ele>162.0</ele><time>2026-03-29T06:35:02.008Z</time></trkpt><trkpt lat="45.52363697440964" lon="10.834596359017306"><ele>162.33333333333334</ele><time>2026-03-29T06:35:05.008Z</time></trkpt><trkpt lat="45.523597252571406" lon="10.83448784247268"><ele>162.66666666666666</ele><time>2026-03-29T06:35:09.008Z</time></trkpt><trkpt lat="45.523563647877076" lon="10.834359792849822"><ele>163.0</ele><time>2026-03-29T06:35:12.008Z</time></trkpt><trkpt lat="45.52353837308118" lon="10.83427134754285"><ele>163.33333333333331</ele><time>2026-03-29T06:35:14.008Z</time></trkpt><trkpt lat="45.52352187257281" lon="10.834167698490086"><ele>163.66666666666666</ele><time>2026-03-29T06:35:17.008Z</time></trkpt><trkpt lat="45.523467375030826" lon="10.834073304682944"><ele>164.0</ele><time>2026-03-29T06:35:20.008Z</time></trkpt><trkpt lat="45.523396954707266" lon="10.834004259139395"><ele>164.83333333333331</ele><time>2026-03-29T06:35:23.008Z</time></trkpt><trkpt lat="45.52332316078445" lon="10.833945656645822"><ele>165.66666666666666</ele><time>2026-03-29T06:35:26.008Z</time></trkpt><trkpt lat="45.5232629788378" lon="10.833908300432855"><ele>166.5</ele><time>2026-03-29T06:35:28.008Z</time></trkpt><trkpt lat="45.523213637645" lon="10.833812827522733"><ele>167.33333333333334</ele><time>2026-03-29T06:35:32.007Z</time></trkpt><trkpt lat="45.523156265691924" lon="10.833743545772283"><ele>168.16666666666669</ele><time>2026-03-29T06:35:36.007Z</time></trkpt><trkpt lat="45.523165317247944" lon="10.833640910421124"><ele>169.0</ele><time>2026-03-29T06:35:38.007Z</time></trkpt><trkpt lat="45.52316901268505" lon="10.833531801354336"><ele>169.42857142857144</ele><time>2026-03-29T06:35:40.007Z</time></trkpt><trkpt lat="45.52312439975412" lon="10.833413642550383"><ele>169.85714285714286</ele><time>2026-03-29T06:35:43.007Z</time></trkpt><trkpt lat="45.5230902862986" lon="10.833332543879663"><ele>170.28571428571428</ele><time>2026-03-29T06:35:45.007Z</time></trkpt><trkpt lat="45.52305526698879" lon="10.83325449079929"><ele>170.71428571428572</ele><time>2026-03-29T06:35:47.007Z</time></trkpt><trkpt lat="45.52304293111517" lon="10.833139771394926"><ele>171.14285714285714</ele><time>2026-03-29T06:35:49.007Z</time></trkpt><trkpt lat="45.52301792966473" lon="10.833053158686726"><ele>171.57142857142858</ele><time>2026-03-29T06:35:51.007Z</time></trkpt><trkpt lat="45.52297951357761" lon="10.832963373820677"><ele>172.0</ele><time>2026-03-29T06:35:53.007Z</time></trkpt><trkpt lat="45.522937201539214" lon="10.832838565569054"><ele>172.0</ele><time>2026-03-29T06:35:56.007Z</time></trkpt><trkpt lat="45.5229321989425" lon="10.832731904880974"><ele>172.0</ele><time>2026-03-29T06:35:58.007Z</time></trkpt><trkpt lat="45.52284658009007" lon="10.832658846636795"><ele>172.0</ele><time>2026-03-29T06:36:00.007Z</time></trkpt><trkpt lat="45.522798474668264" lon="10.832589981007535"><ele>172.0</ele><time>2026-03-29T06:36:02.007Z</time></trkpt><trkpt lat="45.52275741062205" lon="10.832498856033533"><ele>172.0</ele><time>2026-03-29T06:36:05.007Z</time></trkpt><trkpt lat="45.52269404284893" lon="10.832414210069507"><ele>172.0</ele><time>2026-03-29T06:36:08.007Z</time></trkpt><trkpt lat="45.522655708384846" lon="10.832340625691687"><ele>171.0</ele><time>2026-03-29T06:36:10.007Z</time></trkpt><trkpt lat="45.52261595385991" lon="10.832243564379425"><ele>170.0</ele><time>2026-03-29T06:36:13.007Z</time></trkpt><trkpt lat="45.52253505955331" lon="10.832184653428373"><ele>169.0</ele><time>2026-03-29T06:36:16.007Z</time></trkpt><trkpt lat="45.52245633071285" lon="10.832112096342966"><ele>168.0</ele><time>2026-03-29T06:36:19.007Z</time></trkpt><trkpt lat="45.522389230396016" lon="10.832097971175047"><ele>167.0</ele><time>2026-03-29T06:36:21.006Z</time></trkpt><trkpt lat="45.522331273336924" lon="10.832015567525238"><ele>166.0</ele><time>2026-03-29T06:36:23.006Z</time></trkpt><trkpt lat="45.52229472883285" lon="10.831925507359795"><ele>166.0</ele><time>2026-03-29T06:36:26.006Z</time></trkpt><trkpt lat="45.522268906357866" lon="10.83183131586427"><ele>166.0</ele><time>2026-03-29T06:36:28.006Z</time></trkpt><trkpt lat="45.522225528052836" lon="10.8317414542868"><ele>166.0</ele><time>2026-03-29T06:36:30.006Z</time></trkpt><trkpt lat="45.52216217776418" lon="10.831688636320619"><ele>166.0</ele><time>2026-03-29T06:36:32.006Z</time></trkpt><trkpt lat="45.5221158926976" lon="10.831615045033386"><ele>166.0</ele><time>2026-03-29T06:36:34.006Z</time></trkpt><trkpt lat="45.522090480074574" lon="10.83152487758077"><ele>166.0</ele><time>2026-03-29T06:36:36.006Z</time></trkpt><trkpt lat="45.522065049502565" lon="10.831421509688852"><ele>166.0</ele><time>2026-03-29T06:36:39.006Z</time></trkpt><trkpt lat="45.52201392404578" lon="10.83135189253976"><ele>166.16666666666669</ele><time>2026-03-29T06:36:41.006Z</time></trkpt><trkpt lat="45.52192587160482" lon="10.831303265331131"><ele>166.33333333333334</ele><time>2026-03-29T06:36:44.006Z</time></trkpt><trkpt lat="45.52190959249942" lon="10.831213283968548"><ele>166.5</ele><time>2026-03-29T06:36:46.006Z</time></trkpt><trkpt lat="45.521901851203296" lon="10.831122941702548"><ele>166.66666666666666</ele><time>2026-03-29T06:36:49.006Z</time></trkpt><trkpt lat="45.52192577128267" lon="10.831035858383965"><ele>166.83333333333331</ele><time>2026-03-29T06:36:52.006Z</time></trkpt><trkpt lat="45.52193247802725" lon="10.830924513193484"><ele>167.0</ele><time>2026-03-29T06:36:55.009Z</time></trkpt><trkpt lat="45.52190385626283" lon="10.830791640958443"><ele>167.0</ele><time>2026-03-29T06:36:58.009Z</time></trkpt><trkpt lat="45.52186685311542" lon="10.830713093546176"><ele>167.0</ele><time>2026-03-29T06:37:00.009Z</time></trkpt><trkpt lat="45.52182806554078" lon="10.83058940948847"><ele>167.0</ele><time>2026-03-29T06:37:03.009Z</time></trkpt><trkpt lat="45.52180003288342" lon="10.830505350016555"><ele>167.0</ele><time>2026-03-29T06:37:05.009Z</time></trkpt><trkpt lat="45.521760453632595" lon="10.830408968529198"><ele>167.0</ele><time>2026-03-29T06:37:08.009Z</time></trkpt><trkpt lat="45.52173711525127" lon="10.83030377683318"><ele>167.0</ele><time>2026-03-29T06:37:10.009Z</time></trkpt><trkpt lat="45.52168750911957" lon="10.830237228151468"><ele>167.33333333333331</ele><time>2026-03-29T06:37:13.009Z</time></trkpt><trkpt lat="45.52166262507758" lon="10.830135261126115"><ele>167.66666666666666</ele><time>2026-03-29T06:37:15.009Z</time></trkpt><trkpt lat="45.521624853979084" lon="10.830049295324333"><ele>168.0</ele><time>2026-03-29T06:37:17.009Z</time></trkpt><trkpt lat="45.52155848953609" lon="10.829977414409916"><ele>168.33333333333334</ele><time>2026-03-29T06:37:19.009Z</time></trkpt><trkpt lat="45.52151129901042" lon="10.829909217870833"><ele>168.66666666666669</ele><time>2026-03-29T06:37:22.009Z</time></trkpt><trkpt lat="45.52147772408968" lon="10.829812294958787"><ele>169.0</ele><time>2026-03-29T06:37:26.008Z</time></trkpt><trkpt lat="45.52142019085328" lon="10.829710960862426"><ele>169.0</ele><time>2026-03-29T06:37:29.008Z</time></trkpt><trkpt lat="45.521385672956406" lon="10.829625285756746"><ele>169.0</ele><time>2026-03-29T06:37:31.008Z</time></trkpt><trkpt lat="45.5213543733172" lon="10.829525274026471"><ele>169.0</ele><time>2026-03-29T06:37:34.008Z</time></trkpt><trkpt lat="45.52131609412284" lon="10.829414682779408"><ele>169.0</ele><time>2026-03-29T06:37:37.008Z</time></trkpt><trkpt lat="45.52126705925576" lon="10.829323436207698"><ele>169.0</ele><time>2026-03-29T06:37:40.008Z</time></trkpt><trkpt lat="45.52122449486045" lon="10.829234862499753"><ele>169.0</ele><time>2026-03-29T06:37:42.008Z</time></trkpt><trkpt lat="45.52118041879897" lon="10.829152983477718"><ele>168.33333333333334</ele><time>2026-03-29T06:37:44.008Z</time></trkpt><trkpt lat="45.521131774725916" lon="10.829087475117413"><ele>167.66666666666669</ele><time>2026-03-29T06:37:46.008Z</time></trkpt><trkpt lat="45.52104889410034" lon="10.82900413307608"><ele>167.0</ele><time>2026-03-29T06:37:49.008Z</time></trkpt><trkpt lat="45.52097691647473" lon="10.828922001582958"><ele>166.33333333333334</ele><time>2026-03-29T06:37:52.008Z</time></trkpt><trkpt lat="45.52092537743314" lon="10.82886389776978"><ele>165.66666666666666</ele><time>2026-03-29T06:37:54.008Z</time></trkpt><trkpt lat="45.52087040282053" lon="10.828804468503645"><ele>165.0</ele><time>2026-03-29T06:37:56.008Z</time></trkpt><trkpt lat="45.52079849120692" lon="10.828712476940199"><ele>165.0</ele><time>2026-03-29T06:37:59.008Z</time></trkpt><trkpt lat="45.520746855488504" lon="10.828648688494283"><ele>165.0</ele><time>2026-03-29T06:38:01.008Z</time></trkpt><trkpt lat="45.52067427607966" lon="10.82855884116602"><ele>165.0</ele><time>2026-03-29T06:38:04.008Z</time></trkpt><trkpt lat="45.52060949767589" lon="10.828464053567304"><ele>165.0</ele><time>2026-03-29T06:38:07.008Z</time></trkpt><trkpt lat="45.52052977615692" lon="10.828403637226083"><ele>165.0</ele><time>2026-03-29T06:38:10.008Z</time></trkpt><trkpt lat="45.52047685634144" lon="10.828347136662382"><ele>165.0</ele><time>2026-03-29T06:38:12.008Z</time></trkpt><trkpt lat="45.52040166855738" lon="10.828297948716251"><ele>164.66666666666666</ele><time>2026-03-29T06:38:15.007Z</time></trkpt><trkpt lat="45.52033752428605" lon="10.828226548248518"><ele>164.33333333333334</ele><time>2026-03-29T06:38:18.007Z</time></trkpt><trkpt lat="45.520278726459054" lon="10.828135320931523"><ele>164.0</ele><time>2026-03-29T06:38:21.007Z</time></trkpt><trkpt lat="45.52024724657974" lon="10.828022716582574"><ele>163.66666666666669</ele><time>2026-03-29T06:38:24.007Z</time></trkpt><trkpt lat="45.5202392259445" lon="10.82792132250074"><ele>163.33333333333334</ele><time>2026-03-29T06:38:26.007Z</time></trkpt><trkpt lat="45.52024345416568" lon="10.827817472711718"><ele>163.0</ele><time>2026-03-29T06:38:29.007Z</time></trkpt><trkpt lat="45.520245355033644" lon="10.827723828556588"><ele>163.16666666666669</ele><time>2026-03-29T06:38:32.007Z</time></trkpt><trkpt lat="45.52024891633481" lon="10.827611935474543"><ele>163.33333333333334</ele><time>2026-03-29T06:38:36.007Z</time></trkpt><trkpt lat="45.52024727480293" lon="10.827520635841285"><ele>163.5</ele><time>2026-03-29T06:38:39.007Z</time></trkpt><trkpt lat="45.52025601515176" lon="10.827407098940883"><ele>163.66666666666666</ele><time>2026-03-29T06:38:44.007Z</time></trkpt><trkpt lat="45.52026909557373" lon="10.82729352445577"><ele>163.83333333333331</ele><time>2026-03-29T06:38:47.007Z</time></trkpt><trkpt lat="45.5202771805102" lon="10.827190569981216"><ele>164.0</ele><time>2026-03-29T06:38:50.007Z</time></trkpt><trkpt lat="45.520279544323685" lon="10.827080834784482"><ele>163.99999999999997</ele><time>2026-03-29T06:38:53.007Z</time></trkpt><trkpt lat="45.52028034558886" lon="10.82695496311228"><ele>164.0</ele><time>2026-03-29T06:38:57.007Z</time></trkpt><trkpt lat="45.52030196710744" lon="10.826855890513695"><ele>164.0</ele><time>2026-03-29T06:39:00.007Z</time></trkpt><trkpt lat="45.52031491466105" lon="10.826760979650263"><ele>164.0</ele><time>2026-03-29T06:39:03.009Z</time></trkpt><trkpt lat="45.52033336205132" lon="10.826668182539777"><ele>164.0</ele><time>2026-03-29T06:39:07.009Z</time></trkpt><trkpt lat="45.52035451152538" lon="10.8265484604752"><ele>163.99999999999997</ele><time>2026-03-29T06:39:13.009Z</time></trkpt><trkpt lat="45.52036780587744" lon="10.826455419488727"><ele>164.0</ele><time>2026-03-29T06:39:16.009Z</time></trkpt><trkpt lat="45.520382827932615" lon="10.82632770963896"><ele>164.57142857142856</ele><time>2026-03-29T06:39:19.009Z</time></trkpt><trkpt lat="45.52039045586109" lon="10.826200767355711"><ele>165.14285714285714</ele><time>2026-03-29T06:39:22.009Z</time></trkpt><trkpt lat="45.52041474594202" lon="10.82611170191718"><ele>165.71428571428572</ele><time>2026-03-29T06:39:24.009Z</time></trkpt><trkpt lat="45.5204265206721" lon="10.826022870582776"><ele>166.28571428571428</ele><time>2026-03-29T06:39:27.009Z</time></trkpt><trkpt lat="45.520456697837645" lon="10.825928690363023"><ele>166.85714285714286</ele><time>2026-03-29T06:39:30.009Z</time></trkpt><trkpt lat="45.520484535141044" lon="10.825824147130614"><ele>167.42857142857142</ele><time>2026-03-29T06:39:33.009Z</time></trkpt><trkpt lat="45.52051837236095" lon="10.825730976048474"><ele>168.0</ele><time>2026-03-29T06:39:36.009Z</time></trkpt><trkpt lat="45.52057244375" lon="10.825632470210161"><ele>170.16666666666666</ele><time>2026-03-29T06:39:39.009Z</time></trkpt><trkpt lat="45.52061978593827" lon="10.825562258504524"><ele>172.33333333333334</ele><time>2026-03-29T06:39:42.009Z</time></trkpt><trkpt lat="45.520671379912045" lon="10.825471491382196"><ele>174.5</ele><time>2026-03-29T06:39:45.009Z</time></trkpt><trkpt lat="45.52075007900542" lon="10.825412562238338"><ele>176.66666666666669</ele><time>2026-03-29T06:39:49.009Z</time></trkpt><trkpt lat="45.52081342795207" lon="10.825338696743144"><ele>178.83333333333334</ele><time>2026-03-29T06:39:52.009Z</time></trkpt><trkpt lat="45.520876732333726" lon="10.825281038884421"><ele>181.0</ele><time>2026-03-29T06:39:54.009Z</time></trkpt><trkpt lat="45.520961668678844" lon="10.825213833765952"><ele>181.0</ele><time>2026-03-29T06:39:57.009Z</time></trkpt><trkpt lat="45.52105051837779" lon="10.825179844420378"><ele>181.0</ele><time>2026-03-29T06:40:00.009Z</time></trkpt><trkpt lat="45.521127557650765" lon="10.825161168933805"><ele>181.0</ele><time>2026-03-29T06:40:03.008Z</time></trkpt><trkpt lat="45.52121293846436" lon="10.825155476652432"><ele>181.0</ele><time>2026-03-29T06:40:06.008Z</time></trkpt><trkpt lat="45.52129392925039" lon="10.825143044968705"><ele>181.0</ele><time>2026-03-29T06:40:09.008Z</time></trkpt><trkpt lat="45.521374351607236" lon="10.825138055786995"><ele>181.0</ele><time>2026-03-29T06:40:12.008Z</time></trkpt><trkpt lat="45.5214505382076" lon="10.825157777640293"><ele>182.5</ele><time>2026-03-29T06:40:15.008Z</time></trkpt><trkpt lat="45.5215188646992" lon="10.82517763929751"><ele>184.0</ele><time>2026-03-29T06:40:18.008Z</time></trkpt><trkpt lat="45.52159125924531" lon="10.825225665700746"><ele>185.5</ele><time>2026-03-29T06:40:21.008Z</time></trkpt><trkpt lat="45.52166366518461" lon="10.825278984557002"><ele>187.0</ele><time>2026-03-29T06:40:24.008Z</time></trkpt><trkpt lat="45.52173959626296" lon="10.825302403322386"><ele>188.5</ele><time>2026-03-29T06:40:27.008Z</time></trkpt><trkpt lat="45.52179848908001" lon="10.825379319866501"><ele>190.0</ele><time>2026-03-29T06:40:30.008Z</time></trkpt><trkpt lat="45.5218554545814" lon="10.825442137665032"><ele>190.0</ele><time>2026-03-29T06:40:33.008Z</time></trkpt><trkpt lat="45.521900392724945" lon="10.825505239656907"><ele>190.0</ele><time>2026-03-29T06:40:36.008Z</time></trkpt><trkpt lat="45.52195023734903" lon="10.825572256872515"><ele>190.0</ele><time>2026-03-29T06:40:39.008Z</time></trkpt><trkpt lat="45.522003080419594" lon="10.825629135266643"><ele>190.0</ele><time>2026-03-29T06:40:42.008Z</time></trkpt><trkpt lat="45.52206418487687" lon="10.825678854851349"><ele>190.0</ele><time>2026-03-29T06:40:45.008Z</time></trkpt><trkpt lat="45.522137292276355" lon="10.825734851826383"><ele>190.0</ele><time>2026-03-29T06:40:49.008Z</time></trkpt><trkpt lat="45.52218811780405" lon="10.825811135547225"><ele>190.0</ele><time>2026-03-29T06:40:56.007Z</time></trkpt><trkpt lat="45.5222417737856" lon="10.825872817038208"><ele>188.83333333333334</ele><time>2026-03-29T06:40:59.007Z</time></trkpt><trkpt lat="45.52230767807645" lon="10.825942763104281"><ele>187.66666666666669</ele><time>2026-03-29T06:41:03.007Z</time></trkpt><trkpt lat="45.52237638593871" lon="10.826011385272173"><ele>186.5</ele><time>2026-03-29T06:41:07.01Z</time></trkpt><trkpt lat="45.5224331003176" lon="10.826090673492601"><ele>185.33333333333334</ele><time>2026-03-29T06:41:10.01Z</time></trkpt><trkpt lat="45.52249929700674" lon="10.826168768880656"><ele>184.16666666666666</ele><time>2026-03-29T06:41:14.009Z</time></trkpt><trkpt lat="45.522559366951256" lon="10.826246323390674"><ele>183.0</ele><time>2026-03-29T06:41:17.01Z</time></trkpt><trkpt lat="45.522617358620664" lon="10.826304385802391"><ele>185.28571428571428</ele><time>2026-03-29T06:41:20.009Z</time></trkpt><trkpt lat="45.52266227986607" lon="10.826369711555545"><ele>187.57142857142858</ele><time>2026-03-29T06:41:23.009Z</time></trkpt><trkpt lat="45.522718118133135" lon="10.826426435871644"><ele>189.85714285714283</ele><time>2026-03-29T06:41:26.009Z</time></trkpt><trkpt lat="45.52276896882265" lon="10.826480955169284"><ele>192.14285714285714</ele><time>2026-03-29T06:41:29.009Z</time></trkpt><trkpt lat="45.52284426880648" lon="10.826538945190194"><ele>194.42857142857142</ele><time>2026-03-29T06:41:32.009Z</time></trkpt><trkpt lat="45.5229006831719" lon="10.826597541219298"><ele>196.7142857142857</ele><time>2026-03-29T06:41:35.009Z</time></trkpt><trkpt lat="45.5229688076587" lon="10.826657429371059"><ele>199.0</ele><time>2026-03-29T06:41:38.009Z</time></trkpt><trkpt lat="45.52303295339513" lon="10.82671649995561"><ele>199.66666666666666</ele><time>2026-03-29T06:41:41.009Z</time></trkpt><trkpt lat="45.52308762225401" lon="10.82677361095253"><ele>200.33333333333331</ele><time>2026-03-29T06:41:43.009Z</time></trkpt><trkpt lat="45.5231522093641" lon="10.826837121694567"><ele>201.0</ele><time>2026-03-29T06:41:46.008Z</time></trkpt><trkpt lat="45.523227503844694" lon="10.826891144340374"><ele>201.66666666666669</ele><time>2026-03-29T06:41:49.008Z</time></trkpt><trkpt lat="45.52330366011603" lon="10.826920036105548"><ele>202.33333333333334</ele><time>2026-03-29T06:41:52.008Z</time></trkpt><trkpt lat="45.5233751666248" lon="10.826894251843507"><ele>203.0</ele><time>2026-03-29T06:41:55.008Z</time></trkpt><trkpt lat="45.523441935585254" lon="10.826857554182244"><ele>203.00000000000003</ele><time>2026-03-29T06:41:58.008Z</time></trkpt><trkpt lat="45.52350923174892" lon="10.826838396897893"><ele>203.0</ele><time>2026-03-29T06:42:01.008Z</time></trkpt><trkpt lat="45.5235729250569" lon="10.82680793416851"><ele>203.0</ele><time>2026-03-29T06:42:04.008Z</time></trkpt><trkpt lat="45.52367121145136" lon="10.826758763368218"><ele>203.0</ele><time>2026-03-29T06:42:08.008Z</time></trkpt><trkpt lat="45.523740346114934" lon="10.826717062304617"><ele>203.00000000000003</ele><time>2026-03-29T06:42:11.008Z</time></trkpt><trkpt lat="45.52380776396494" lon="10.82666393573132"><ele>203.0</ele><time>2026-03-29T06:42:14.008Z</time></trkpt><trkpt lat="45.52387111387325" lon="10.826587143821769"><ele>204.50000000000003</ele><time>2026-03-29T06:42:17.008Z</time></trkpt><trkpt lat="45.523932468310676" lon="10.826531194586973"><ele>206.0</ele><time>2026-03-29T06:42:20.008Z</time></trkpt><trkpt lat="45.52401955462493" lon="10.82647974771789"><ele>207.5</ele><time>2026-03-29T06:42:23.008Z</time></trkpt><trkpt lat="45.52409299254736" lon="10.826422442951486"><ele>209.0</ele><time>2026-03-29T06:42:26.008Z</time></trkpt><trkpt lat="45.52417678830084" lon="10.82636291102867"><ele>210.50000000000003</ele><time>2026-03-29T06:42:29.008Z</time></trkpt><trkpt lat="45.524256035458436" lon="10.826299698356834"><ele>212.0</ele><time>2026-03-29T06:42:32.008Z</time></trkpt><trkpt lat="45.52433911771801" lon="10.826246962222344"><ele>212.00000000000003</ele><time>2026-03-29T06:42:35.007Z</time></trkpt><trkpt lat="45.524421765349345" lon="10.826203078964953"><ele>212.0</ele><time>2026-03-29T06:42:38.007Z</time></trkpt><trkpt lat="45.52449635264682" lon="10.826167395246422"><ele>212.0</ele><time>2026-03-29T06:42:41.007Z</time></trkpt><trkpt lat="45.524587844562156" lon="10.826148408183586"><ele>212.0</ele><time>2026-03-29T06:42:44.007Z</time></trkpt><trkpt lat="45.52467531977105" lon="10.826086450993659"><ele>212.00000000000003</ele><time>2026-03-29T06:42:47.007Z</time></trkpt><trkpt lat="45.52475517236786" lon="10.826079669316035"><ele>212.0</ele><time>2026-03-29T06:42:50.007Z</time></trkpt><trkpt lat="45.524842508219315" lon="10.826092615389625"><ele>213.66666666666669</ele><time>2026-03-29T06:42:53.007Z</time></trkpt><trkpt lat="45.52493171298412" lon="10.826097950754242"><ele>215.33333333333334</ele><time>2026-03-29T06:42:56.007Z</time></trkpt><trkpt lat="45.52502240789857" lon="10.826105263028696"><ele>217.0</ele><time>2026-03-29T06:42:59.007Z</time></trkpt><trkpt lat="45.525094328200026" lon="10.826091892776295"><ele>218.66666666666669</ele><time>2026-03-29T06:43:02.007Z</time></trkpt><trkpt lat="45.525176798715584" lon="10.826102633670903"><ele>220.33333333333334</ele><time>2026-03-29T06:43:05.007Z</time></trkpt><trkpt lat="45.52525245919066" lon="10.826089783417975"><ele>222.0</ele><time>2026-03-29T06:43:08.007Z</time></trkpt><trkpt lat="45.52532019418808" lon="10.826091371776469"><ele>222.16666666666666</ele><time>2026-03-29T06:43:11.007Z</time></trkpt><trkpt lat="45.525402264486324" lon="10.82610579550332"><ele>222.33333333333331</ele><time>2026-03-29T06:43:14.01Z</time></trkpt><trkpt lat="45.52548414072745" lon="10.82611156636299"><ele>222.5</ele><time>2026-03-29T06:43:17.01Z</time></trkpt><trkpt lat="45.52556987390023" lon="10.82611866446416"><ele>222.66666666666666</ele><time>2026-03-29T06:43:20.01Z</time></trkpt><trkpt lat="45.52564838157837" lon="10.826133739493885"><ele>222.83333333333331</ele><time>2026-03-29T06:43:23.01Z</time></trkpt><trkpt lat="45.5257173538905" lon="10.826134728522272"><ele>223.0</ele><time>2026-03-29T06:43:26.01Z</time></trkpt><trkpt lat="45.525797080132776" lon="10.826127469806234"><ele>223.0</ele><time>2026-03-29T06:43:29.01Z</time></trkpt><trkpt lat="45.525861290833284" lon="10.826137962924067"><ele>223.0</ele><time>2026-03-29T06:43:31.01Z</time></trkpt><trkpt lat="45.525935174005845" lon="10.826145780135878"><ele>223.0</ele><time>2026-03-29T06:43:34.01Z</time></trkpt><trkpt lat="45.52600043216092" lon="10.826137048853086"><ele>223.0</ele><time>2026-03-29T06:43:37.01Z</time></trkpt><trkpt lat="45.52607657710754" lon="10.826156597016988"><ele>223.0</ele><time>2026-03-29T06:43:40.01Z</time></trkpt><trkpt lat="45.52615335796854" lon="10.826167549657796"><ele>223.0</ele><time>2026-03-29T06:43:43.009Z</time></trkpt><trkpt lat="45.52622284130648" lon="10.826182575972569"><ele>223.0</ele><time>2026-03-29T06:43:46.009Z</time></trkpt><trkpt lat="45.52629433016672" lon="10.826187179860948"><ele>224.16666666666666</ele><time>2026-03-29T06:43:49.009Z</time></trkpt><trkpt lat="45.52638151108184" lon="10.82619603105698"><ele>225.33333333333331</ele><time>2026-03-29T06:43:52.009Z</time></trkpt><trkpt lat="45.526465228950315" lon="10.826192309218122"><ele>226.5</ele><time>2026-03-29T06:43:56.009Z</time></trkpt><trkpt lat="45.52653122466777" lon="10.826199442055001"><ele>227.66666666666669</ele><time>2026-03-29T06:43:59.009Z</time></trkpt><trkpt lat="45.52661813102609" lon="10.826202475031327"><ele>228.83333333333334</ele><time>2026-03-29T06:44:02.009Z</time></trkpt><trkpt lat="45.52668932747714" lon="10.826219073071725"><ele>230.0</ele><time>2026-03-29T06:44:05.009Z</time></trkpt><trkpt lat="45.52676341638309" lon="10.826219270725417"><ele>229.99999999999997</ele><time>2026-03-29T06:44:08.009Z</time></trkpt><trkpt lat="45.52683777191744" lon="10.826218411464021"><ele>230.0</ele><time>2026-03-29T06:44:11.009Z</time></trkpt><trkpt lat="45.526914193095315" lon="10.826214239253497"><ele>229.99999999999997</ele><time>2026-03-29T06:44:14.009Z</time></trkpt><trkpt lat="45.526984274321755" lon="10.826220228884331"><ele>229.99999999999997</ele><time>2026-03-29T06:44:17.009Z</time></trkpt><trkpt lat="45.5270518428594" lon="10.826216848377314"><ele>230.0</ele><time>2026-03-29T06:44:20.009Z</time></trkpt><trkpt lat="45.52711338750732" lon="10.826193839536533"><ele>229.99999999999997</ele><time>2026-03-29T06:44:23.009Z</time></trkpt><trkpt lat="45.527176223398165" lon="10.826181460826422"><ele>229.99999999999997</ele><time>2026-03-29T06:44:26.009Z</time></trkpt><trkpt lat="45.527256064439584" lon="10.82614214905483"><ele>230.71428571428567</ele><time>2026-03-29T06:44:29.009Z</time></trkpt><trkpt lat="45.52732503495038" lon="10.82612756853382"><ele>231.42857142857142</ele><time>2026-03-29T06:44:32.008Z</time></trkpt><trkpt lat="45.5274069326155" lon="10.826088427060036"><ele>232.1428571428571</ele><time>2026-03-29T06:44:35.008Z</time></trkpt><trkpt lat="45.527465648738946" lon="10.82604319208601"><ele>232.85714285714283</ele><time>2026-03-29T06:44:38.008Z</time></trkpt><trkpt lat="45.52753500388557" lon="10.826007521310077"><ele>233.57142857142856</ele><time>2026-03-29T06:44:43.008Z</time></trkpt><trkpt lat="45.52760697120226" lon="10.82594765446276"><ele>234.28571428571428</ele><time>2026-03-29T06:44:46.008Z</time></trkpt><trkpt lat="45.527657485953476" lon="10.825891270895237"><ele>235.0</ele><time>2026-03-29T06:44:48.008Z</time></trkpt><trkpt lat="45.52772829722823" lon="10.825824854302676"><ele>234.66666666666666</ele><time>2026-03-29T06:44:51.008Z</time></trkpt><trkpt lat="45.5278012735387" lon="10.825758869501696"><ele>234.33333333333331</ele><time>2026-03-29T06:44:54.008Z</time></trkpt><trkpt lat="45.52785247514119" lon="10.825704353432895"><ele>234.0</ele><time>2026-03-29T06:44:56.008Z</time></trkpt><trkpt lat="45.527909091376664" lon="10.825640508395256"><ele>233.66666666666669</ele><time>2026-03-29T06:44:58.008Z</time></trkpt><trkpt lat="45.52799032352865" lon="10.825582711176857"><ele>233.33333333333334</ele><time>2026-03-29T06:45:01.008Z</time></trkpt><trkpt lat="45.528067427369386" lon="10.825535225172013"><ele>233.0</ele><time>2026-03-29T06:45:04.008Z</time></trkpt><trkpt lat="45.52814406359544" lon="10.825482830772307"><ele>233.00000000000003</ele><time>2026-03-29T06:45:07.008Z</time></trkpt><trkpt lat="45.52821731644112" lon="10.82545140280227"><ele>233.0</ele><time>2026-03-29T06:45:10.008Z</time></trkpt><trkpt lat="45.52829853541576" lon="10.82541496504048"><ele>233.0</ele><time>2026-03-29T06:45:13.008Z</time></trkpt><trkpt lat="45.52838003205765" lon="10.825386655621408"><ele>233.0</ele><time>2026-03-29T06:45:16.008Z</time></trkpt><trkpt lat="45.52845080617206" lon="10.825358235797598"><ele>233.00000000000003</ele><time>2026-03-29T06:45:19.011Z</time></trkpt><trkpt lat="45.52851388622785" lon="10.825343786543309"><ele>233.0</ele><time>2026-03-29T06:45:22.011Z</time></trkpt><trkpt lat="45.52858966449821" lon="10.825325412749388"><ele>233.00000000000003</ele><time>2026-03-29T06:45:25.011Z</time></trkpt><trkpt lat="45.52866813155851" lon="10.82530503392494"><ele>233.0</ele><time>2026-03-29T06:45:28.01Z</time></trkpt><trkpt lat="45.52875114605866" lon="10.825277360347368"><ele>233.0</ele><time>2026-03-29T06:45:31.011Z</time></trkpt><trkpt lat="45.528838939200114" lon="10.825229789252376"><ele>233.0</ele><time>2026-03-29T06:45:34.011Z</time></trkpt><trkpt lat="45.528904989011544" lon="10.825207359594689"><ele>233.00000000000003</ele><time>2026-03-29T06:45:37.011Z</time></trkpt><trkpt lat="45.52896733800809" lon="10.825185888782569"><ele>233.0</ele><time>2026-03-29T06:45:40.01Z</time></trkpt><trkpt lat="45.52903759950208" lon="10.825161925221545"><ele>232.50000000000003</ele><time>2026-03-29T06:45:43.01Z</time></trkpt><trkpt lat="45.529111922740725" lon="10.825147354322652"><ele>232.0</ele><time>2026-03-29T06:45:46.01Z</time></trkpt><trkpt lat="45.52918707249072" lon="10.825137025481471"><ele>231.5</ele><time>2026-03-29T06:45:49.01Z</time></trkpt><trkpt lat="45.529273990421366" lon="10.825129217551428"><ele>231.0</ele><time>2026-03-29T06:45:52.01Z</time></trkpt><trkpt lat="45.52934814158408" lon="10.825125824477349"><ele>230.50000000000003</ele><time>2026-03-29T06:45:55.01Z</time></trkpt><trkpt lat="45.52943056060576" lon="10.825148506346736"><ele>230.0</ele><time>2026-03-29T06:45:58.01Z</time></trkpt><trkpt lat="45.52951558539578" lon="10.825165984856"><ele>232.50000000000003</ele><time>2026-03-29T06:46:01.01Z</time></trkpt><trkpt lat="45.529600154229094" lon="10.8251840686797"><ele>235.0</ele><time>2026-03-29T06:46:04.01Z</time></trkpt><trkpt lat="45.52968582749016" lon="10.825213823040537"><ele>237.5</ele><time>2026-03-29T06:46:07.01Z</time></trkpt><trkpt lat="45.52974908121908" lon="10.82525182401829"><ele>240.0</ele><time>2026-03-29T06:46:10.01Z</time></trkpt><trkpt lat="45.529818563645236" lon="10.825304429168666"><ele>242.50000000000003</ele><time>2026-03-29T06:46:13.01Z</time></trkpt><trkpt lat="45.529896724601045" lon="10.825359733290094"><ele>245.0</ele><time>2026-03-29T06:46:16.01Z</time></trkpt><trkpt lat="45.52995807846284" lon="10.825395777895537"><ele>245.00000000000003</ele><time>2026-03-29T06:46:18.01Z</time></trkpt><trkpt lat="45.53002133746207" lon="10.825437024682314"><ele>245.0</ele><time>2026-03-29T06:46:20.01Z</time></trkpt><trkpt lat="45.53010114176197" lon="10.825483249208757"><ele>245.0</ele><time>2026-03-29T06:46:23.01Z</time></trkpt><trkpt lat="45.530174045582484" lon="10.825527396373914"><ele>245.0</ele><time>2026-03-29T06:46:26.009Z</time></trkpt><trkpt lat="45.53025031667292" lon="10.825585143965327"><ele>245.00000000000003</ele><time>2026-03-29T06:46:29.009Z</time></trkpt><trkpt lat="45.53032927288313" lon="10.825614096972851"><ele>245.0</ele><time>2026-03-29T06:46:32.009Z</time></trkpt><trkpt lat="45.53040320161828" lon="10.825630981533656"><ele>244.85714285714286</ele><time>2026-03-29T06:46:35.009Z</time></trkpt><trkpt lat="45.5304691122827" lon="10.825647066969573"><ele>244.71428571428572</ele><time>2026-03-29T06:46:38.009Z</time></trkpt><trkpt lat="45.53054045503281" lon="10.825677664507891"><ele>244.57142857142856</ele><time>2026-03-29T06:46:41.009Z</time></trkpt><trkpt lat="45.53062083163202" lon="10.825706846365142"><ele>244.42857142857142</ele><time>2026-03-29T06:46:44.009Z</time></trkpt><trkpt lat="45.530692761271446" lon="10.825695706280873"><ele>244.28571428571428</ele><time>2026-03-29T06:46:47.009Z</time></trkpt><trkpt lat="45.53076030659449" lon="10.825707421177082"><ele>244.1428571428571</ele><time>2026-03-29T06:46:50.009Z</time></trkpt><trkpt lat="45.53082682022373" lon="10.825733710788498"><ele>243.99999999999997</ele><time>2026-03-29T06:46:53.009Z</time></trkpt><trkpt lat="45.53090240385738" lon="10.825764741556048"><ele>243.99999999999997</ele><time>2026-03-29T06:46:56.009Z</time></trkpt><trkpt lat="45.53096974378405" lon="10.825784901500969"><ele>244.0</ele><time>2026-03-29T06:46:59.009Z</time></trkpt><trkpt lat="45.53103793526084" lon="10.825795553491696"><ele>243.99999999999997</ele><time>2026-03-29T06:47:02.009Z</time></trkpt><trkpt lat="45.53110413149846" lon="10.825816309909563"><ele>243.99999999999997</ele><time>2026-03-29T06:47:05.009Z</time></trkpt><trkpt lat="45.53117428399279" lon="10.825833352611403"><ele>244.0</ele><time>2026-03-29T06:47:08.009Z</time></trkpt><trkpt lat="45.53124493343383" lon="10.82584753964357"><ele>243.99999999999997</ele><time>2026-03-29T06:47:11.009Z</time></trkpt><trkpt lat="45.531307547757926" lon="10.82586724044411"><ele>243.99999999999997</ele><time>2026-03-29T06:47:14.009Z</time></trkpt><trkpt lat="45.53137175400239" lon="10.825876755815077"><ele>244.1428571428571</ele><time>2026-03-29T06:47:17.008Z</time></trkpt><trkpt lat="45.53143744081747" lon="10.825895063126389"><ele>244.28571428571428</ele><time>2026-03-29T06:47:20.008Z</time></trkpt><trkpt lat="45.5315000274284" lon="10.82595547317265"><ele>244.42857142857142</ele><time>2026-03-29T06:47:22.008Z</time></trkpt><trkpt lat="45.53157024486194" lon="10.825994065374676"><ele>244.57142857142856</ele><time>2026-03-29T06:47:25.011Z</time></trkpt><trkpt lat="45.53163864057985" lon="10.826037046415006"><ele>244.71428571428572</ele><time>2026-03-29T06:47:28.011Z</time></trkpt><trkpt lat="45.53170953213014" lon="10.82604640583284"><ele>244.85714285714286</ele><time>2026-03-29T06:47:32.011Z</time></trkpt><trkpt lat="45.531777145082806" lon="10.826085737391843"><ele>245.0</ele><time>2026-03-29T06:47:35.01Z</time></trkpt><trkpt lat="45.5318424939978" lon="10.826102542696676"><ele>246.0</ele><time>2026-03-29T06:47:38.011Z</time></trkpt><trkpt lat="45.53190911979848" lon="10.82612780070375"><ele>247.0</ele><time>2026-03-29T06:47:41.011Z</time></trkpt><trkpt lat="45.53197272743178" lon="10.8261615947289"><ele>248.0</ele><time>2026-03-29T06:47:44.011Z</time></trkpt><trkpt lat="45.53204011866565" lon="10.826227880770446"><ele>249.0</ele><time>2026-03-29T06:47:48.011Z</time></trkpt><trkpt lat="45.5320978022421" lon="10.826288333581836"><ele>250.0</ele><time>2026-03-29T06:47:51.011Z</time></trkpt><trkpt lat="45.53213203098319" lon="10.826367323647917"><ele>251.0</ele><time>2026-03-29T06:47:54.01Z</time></trkpt><trkpt lat="45.53218095906238" lon="10.82643112318008"><ele>252.0</ele><time>2026-03-29T06:47:58.01Z</time></trkpt><trkpt lat="45.53223097840263" lon="10.82649719983569"><ele>252.0</ele><time>2026-03-29T06:48:02.01Z</time></trkpt><trkpt lat="45.53228779460427" lon="10.82657447297621"><ele>252.0</ele><time>2026-03-29T06:48:09.01Z</time></trkpt><trkpt lat="45.53234563251261" lon="10.82664852194259"><ele>252.0</ele><time>2026-03-29T06:48:13.01Z</time></trkpt><trkpt lat="45.53237636802749" lon="10.826726992454732"><ele>252.0</ele><time>2026-03-29T06:48:17.01Z</time></trkpt><trkpt lat="45.53240216934466" lon="10.826818568919498"><ele>252.0</ele><time>2026-03-29T06:48:21.01Z</time></trkpt><trkpt lat="45.53244804489556" lon="10.826918046006806"><ele>252.0</ele><time>2026-03-29T06:48:27.01Z</time></trkpt><trkpt lat="45.532492031536144" lon="10.827027492572963"><ele>253.83333333333334</ele><time>2026-03-29T06:48:31.01Z</time></trkpt><trkpt lat="45.53252251101738" lon="10.827118833728044"><ele>255.66666666666669</ele><time>2026-03-29T06:48:34.01Z</time></trkpt><trkpt lat="45.532539080071196" lon="10.827218332057662"><ele>257.5</ele><time>2026-03-29T06:48:37.01Z</time></trkpt><trkpt lat="45.53256580494795" lon="10.827321570064028"><ele>259.33333333333337</ele><time>2026-03-29T06:48:40.01Z</time></trkpt><trkpt lat="45.53261994889976" lon="10.82741531802563"><ele>261.1666666666667</ele><time>2026-03-29T06:48:43.009Z</time></trkpt><trkpt lat="45.53267990552482" lon="10.827471896927925"><ele>263.0</ele><time>2026-03-29T06:48:46.009Z</time></trkpt><trkpt lat="45.532755248942046" lon="10.827532655259715"><ele>263.0</ele><time>2026-03-29T06:48:49.009Z</time></trkpt><trkpt lat="45.53283416712284" lon="10.827578806425315"><ele>263.0</ele><time>2026-03-29T06:48:52.009Z</time></trkpt><trkpt lat="45.53291601092415" lon="10.827606226454119"><ele>263.0</ele><time>2026-03-29T06:48:55.009Z</time></trkpt><trkpt lat="45.533003860421566" lon="10.827616377908122"><ele>263.0</ele><time>2026-03-29T06:48:58.009Z</time></trkpt><trkpt lat="45.53306742805009" lon="10.82761607982606"><ele>263.0</ele><time>2026-03-29T06:49:00.009Z</time></trkpt><trkpt lat="45.53315410825364" lon="10.827641631880681"><ele>263.0</ele><time>2026-03-29T06:49:03.009Z</time></trkpt><trkpt lat="45.533242710502016" lon="10.82765124493354"><ele>263.0</ele><time>2026-03-29T06:49:06.009Z</time></trkpt><trkpt lat="45.53333451866737" lon="10.827666082533328"><ele>263.0</ele><time>2026-03-29T06:49:09.009Z</time></trkpt><trkpt lat="45.533416402422155" lon="10.827687451065618"><ele>263.0</ele><time>2026-03-29T06:49:12.009Z</time></trkpt><trkpt lat="45.533509982566095" lon="10.827713475224428"><ele>263.0</ele><time>2026-03-29T06:49:15.009Z</time></trkpt><trkpt lat="45.53358464786648" lon="10.827739751265023"><ele>263.0</ele><time>2026-03-29T06:49:18.009Z</time></trkpt><trkpt lat="45.53364635081498" lon="10.827766417154908"><ele>263.0</ele><time>2026-03-29T06:49:20.009Z</time></trkpt><trkpt lat="45.53371071986362" lon="10.827837238565577"><ele>262.1666666666667</ele><time>2026-03-29T06:49:23.009Z</time></trkpt><trkpt lat="45.53378719880015" lon="10.827904159501452"><ele>261.33333333333337</ele><time>2026-03-29T06:49:26.009Z</time></trkpt><trkpt lat="45.533857422975466" lon="10.827976945341872"><ele>260.5</ele><time>2026-03-29T06:49:29.009Z</time></trkpt><trkpt lat="45.53392759251481" lon="10.828042569846193"><ele>259.6666666666667</ele><time>2026-03-29T06:49:32.012Z</time></trkpt><trkpt lat="45.53397396299653" lon="10.828114476599326"><ele>258.8333333333333</ele><time>2026-03-29T06:49:34.012Z</time></trkpt><trkpt lat="45.53401633463115" lon="10.828223713200329"><ele>258.0</ele><time>2026-03-29T06:49:37.011Z</time></trkpt><trkpt lat="45.53404827815136" lon="10.828343006049243"><ele>258.0</ele><time>2026-03-29T06:49:40.011Z</time></trkpt><trkpt lat="45.534076123219805" lon="10.828434607449193"><ele>258.0</ele><time>2026-03-29T06:49:43.011Z</time></trkpt><trkpt lat="45.53414979465449" lon="10.828451585543535"><ele>258.0</ele><time>2026-03-29T06:49:46.011Z</time></trkpt><trkpt lat="45.534208816069814" lon="10.828402253350378"><ele>258.0</ele><time>2026-03-29T06:49:49.011Z</time></trkpt><trkpt lat="45.5342772632347" lon="10.828366811141963"><ele>258.0</ele><time>2026-03-29T06:49:52.011Z</time></trkpt><trkpt lat="45.53435881486977" lon="10.828365750621249"><ele>258.0</ele><time>2026-03-29T06:49:55.011Z</time></trkpt><trkpt lat="45.53444223359902" lon="10.828383757621694"><ele>257.99999999999994</ele><time>2026-03-29T06:49:58.011Z</time></trkpt><trkpt lat="45.53450564864398" lon="10.828393546338159"><ele>258.0</ele><time>2026-03-29T06:50:00.011Z</time></trkpt><trkpt lat="45.53457696355641" lon="10.828429042219048"><ele>258.0</ele><time>2026-03-29T06:50:03.011Z</time></trkpt><trkpt lat="45.53465530314578" lon="10.828467156209019"><ele>258.0</ele><time>2026-03-29T06:50:07.011Z</time></trkpt><trkpt lat="45.53473079819214" lon="10.82849884316972"><ele>258.0</ele><time>2026-03-29T06:50:10.011Z</time></trkpt><trkpt lat="45.534796838519014" lon="10.828537700994545"><ele>257.99999999999994</ele><time>2026-03-29T06:50:13.011Z</time></trkpt><trkpt lat="45.534864548916886" lon="10.82858476667687"><ele>258.0</ele><time>2026-03-29T06:50:16.011Z</time></trkpt><trkpt lat="45.534926598018394" lon="10.82862254679281"><ele>254.66666666666666</ele><time>2026-03-29T06:50:19.011Z</time></trkpt><trkpt lat="45.53499507480546" lon="10.828685437140022"><ele>251.33333333333331</ele><time>2026-03-29T06:50:22.011Z</time></trkpt><trkpt lat="45.53505111209714" lon="10.828745081288034"><ele>248.0</ele><time>2026-03-29T06:50:24.01Z</time></trkpt><trkpt lat="45.53512634375205" lon="10.828806792209747"><ele>244.66666666666666</ele><time>2026-03-29T06:50:27.01Z</time></trkpt><trkpt lat="45.53518140562325" lon="10.828853618553039"><ele>241.33333333333331</ele><time>2026-03-29T06:50:29.01Z</time></trkpt><trkpt lat="45.53525953679893" lon="10.828897471960707"><ele>238.0</ele><time>2026-03-29T06:50:32.01Z</time></trkpt><trkpt lat="45.535314826615476" lon="10.82895414986251"><ele>237.4</ele><time>2026-03-29T06:50:34.01Z</time></trkpt><trkpt lat="45.53540157336948" lon="10.829016951831926"><ele>236.8</ele><time>2026-03-29T06:50:37.01Z</time></trkpt><trkpt lat="45.535464430830125" lon="10.829091602992968"><ele>236.2</ele><time>2026-03-29T06:50:39.01Z</time></trkpt><trkpt lat="45.535526652533356" lon="10.829144325912088"><ele>235.6</ele><time>2026-03-29T06:50:41.01Z</time></trkpt><trkpt lat="45.53559526741279" lon="10.829147247794644"><ele>235.0</ele><time>2026-03-29T06:50:43.01Z</time></trkpt><trkpt lat="45.535807017492736" lon="10.829169858649951"><ele>235.0</ele><time>2026-03-29T06:50:51.01Z</time></trkpt><trkpt lat="45.535985075097194" lon="10.829179272518456"><ele>235.0</ele><time>2026-03-29T06:50:58.01Z</time></trkpt><trkpt lat="45.536061009953144" lon="10.82922643911089"><ele>235.0</ele><time>2026-03-29T06:51:02.01Z</time></trkpt><trkpt lat="45.53612535322109" lon="10.829267098131561"><ele>235.0</ele><time>2026-03-29T06:51:05.01Z</time></trkpt><trkpt lat="45.53616799355623" lon="10.829339421737522"><ele>235.0</ele><time>2026-03-29T06:51:08.01Z</time></trkpt><trkpt lat="45.5362041990934" lon="10.829419500756089"><ele>236.8</ele><time>2026-03-29T06:51:11.009Z</time></trkpt><trkpt lat="45.53625365496843" lon="10.829494648210288"><ele>238.6</ele><time>2026-03-29T06:51:14.009Z</time></trkpt><trkpt lat="45.53630460234659" lon="10.82956222674885"><ele>240.39999999999998</ele><time>2026-03-29T06:51:17.009Z</time></trkpt><trkpt lat="45.53637905828749" lon="10.829584522090936"><ele>242.2</ele><time>2026-03-29T06:51:20.009Z</time></trkpt><trkpt lat="45.5364381825777" lon="10.829644335313821"><ele>244.0</ele><time>2026-03-29T06:51:24.009Z</time></trkpt><trkpt lat="45.536622066218186" lon="10.829647237852402"><ele>243.99999999999997</ele><time>2026-03-29T06:51:34.009Z</time></trkpt><trkpt lat="45.53668716751039" lon="10.82961618928287"><ele>244.0</ele><time>2026-03-29T06:51:37.012Z</time></trkpt><trkpt lat="45.53676271555328" lon="10.829590749889476"><ele>244.0</ele><time>2026-03-29T06:51:41.012Z</time></trkpt><trkpt lat="45.536823115973725" lon="10.8295471947768"><ele>244.0</ele><time>2026-03-29T06:51:44.012Z</time></trkpt><trkpt lat="45.5368833430008" lon="10.829493619632224"><ele>243.99999999999997</ele><time>2026-03-29T06:51:47.011Z</time></trkpt><trkpt lat="45.53695095286331" lon="10.829424811690863"><ele>244.0</ele><time>2026-03-29T06:51:50.011Z</time></trkpt><trkpt lat="45.53702682677852" lon="10.829375233000441"><ele>244.39999999999998</ele><time>2026-03-29T06:51:53.011Z</time></trkpt><trkpt lat="45.53709126558027" lon="10.829324022155614"><ele>244.79999999999998</ele><time>2026-03-29T06:51:56.011Z</time></trkpt><trkpt lat="45.537160714905255" lon="10.8292724541304"><ele>245.20000000000002</ele><time>2026-03-29T06:51:59.011Z</time></trkpt><trkpt lat="45.537236682844856" lon="10.829239818829926"><ele>245.60000000000002</ele><time>2026-03-29T06:52:02.011Z</time></trkpt><trkpt lat="45.537305015602726" lon="10.829205721454887"><ele>246.0</ele><time>2026-03-29T06:52:05.011Z</time></trkpt><trkpt lat="45.53747181594428" lon="10.829199118822968"><ele>246.00000000000003</ele><time>2026-03-29T06:52:12.011Z</time></trkpt><trkpt lat="45.537529693916476" lon="10.82916148767949"><ele>246.0</ele><time>2026-03-29T06:52:15.011Z</time></trkpt><trkpt lat="45.53756487023736" lon="10.829081915618042"><ele>246.00000000000003</ele><time>2026-03-29T06:52:18.011Z</time></trkpt><trkpt lat="45.537576468881426" lon="10.828983927243886"><ele>246.00000000000003</ele><time>2026-03-29T06:52:21.011Z</time></trkpt><trkpt lat="45.537591148409724" lon="10.828869063869806"><ele>246.0</ele><time>2026-03-29T06:52:24.011Z</time></trkpt><trkpt lat="45.53761636624572" lon="10.828742803652522"><ele>246.00000000000003</ele><time>2026-03-29T06:52:27.011Z</time></trkpt><trkpt lat="45.53765786983991" lon="10.8286569268106"><ele>246.00000000000003</ele><time>2026-03-29T06:52:29.01Z</time></trkpt><trkpt lat="45.537726118820075" lon="10.828571567093466"><ele>246.0</ele><time>2026-03-29T06:52:32.01Z</time></trkpt><trkpt lat="45.537781196694624" lon="10.8285233587408"><ele>246.00000000000003</ele><time>2026-03-29T06:52:34.01Z</time></trkpt><trkpt lat="45.53786967403048" lon="10.828469965850916"><ele>246.00000000000003</ele><time>2026-03-29T06:52:37.01Z</time></trkpt><trkpt lat="45.53793795408175" lon="10.828422013085959"><ele>246.0</ele><time>2026-03-29T06:52:40.01Z</time></trkpt><trkpt lat="45.5380104212025" lon="10.828397067718926"><ele>246.0</ele><time>2026-03-29T06:52:44.01Z</time></trkpt><trkpt lat="45.538205863543034" lon="10.828400526068377"><ele>246.8</ele><time>2026-03-29T06:52:54.01Z</time></trkpt><trkpt lat="45.53837235254245" lon="10.828400489850443"><ele>247.60000000000002</ele><time>2026-03-29T06:53:01.01Z</time></trkpt><trkpt lat="45.53845611999232" lon="10.82838843547563"><ele>248.4</ele><time>2026-03-29T06:53:04.01Z</time></trkpt><trkpt lat="45.53855612347789" lon="10.828385679347036"><ele>249.2</ele><time>2026-03-29T06:53:08.01Z</time></trkpt><trkpt lat="45.53863194190682" lon="10.828403673562613"><ele>250.0</ele><time>2026-03-29T06:53:11.01Z</time></trkpt><trkpt lat="45.53870617879528" lon="10.828422236024332"><ele>250.42857142857142</ele><time>2026-03-29T06:53:14.01Z</time></trkpt><trkpt lat="45.53877875893072" lon="10.828460864963926"><ele>250.8571428571429</ele><time>2026-03-29T06:53:17.01Z</time></trkpt><trkpt lat="45.53885632766374" lon="10.828479327851218"><ele>251.2857142857143</ele><time>2026-03-29T06:53:20.009Z</time></trkpt><trkpt lat="45.538927589161275" lon="10.828497094778099"><ele>251.71428571428572</ele><time>2026-03-29T06:53:23.009Z</time></trkpt><trkpt lat="45.539005974672236" lon="10.828503175419312"><ele>252.14285714285717</ele><time>2026-03-29T06:53:26.009Z</time></trkpt><trkpt lat="45.53907212910451" lon="10.828492152896441"><ele>252.5714285714286</ele><time>2026-03-29T06:53:29.009Z</time></trkpt><trkpt lat="45.539141684112124" lon="10.828490427681503"><ele>253.00000000000003</ele><time>2026-03-29T06:53:32.009Z</time></trkpt><trkpt lat="45.539215962683734" lon="10.828495399147394"><ele>254.66666666666666</ele><time>2026-03-29T06:53:35.009Z</time></trkpt><trkpt lat="45.53929545384654" lon="10.828507690678057"><ele>256.3333333333333</ele><time>2026-03-29T06:53:38.009Z</time></trkpt><trkpt lat="45.53936981925331" lon="10.828536415848417"><ele>258.0</ele><time>2026-03-29T06:53:41.009Z</time></trkpt><trkpt lat="45.53945560807111" lon="10.82855333162384"><ele>259.6666666666667</ele><time>2026-03-29T06:53:44.012Z</time></trkpt><trkpt lat="45.539535507900695" lon="10.82859818949626"><ele>261.33333333333337</ele><time>2026-03-29T06:53:47.013Z</time></trkpt><trkpt lat="45.53959756999285" lon="10.828658852328418"><ele>263.0</ele><time>2026-03-29T06:53:50.012Z</time></trkpt><trkpt lat="45.53965771503313" lon="10.82870785056032"><ele>263.0</ele><time>2026-03-29T06:53:52.013Z</time></trkpt><trkpt lat="45.53973880058554" lon="10.828791547038731"><ele>263.0</ele><time>2026-03-29T06:53:55.013Z</time></trkpt><trkpt lat="45.539790417437985" lon="10.828901647525472"><ele>263.0</ele><time>2026-03-29T06:53:58.013Z</time></trkpt><trkpt lat="45.53982127894328" lon="10.829000859006156"><ele>263.0</ele><time>2026-03-29T06:54:01.013Z</time></trkpt><trkpt lat="45.53984024032291" lon="10.8290877723405"><ele>263.0</ele><time>2026-03-29T06:54:04.013Z</time></trkpt><trkpt lat="45.53986546646711" lon="10.829176733425408"><ele>263.0</ele><time>2026-03-29T06:54:07.013Z</time></trkpt><trkpt lat="45.53991356625527" lon="10.829270628932797"><ele>262.83333333333337</ele><time>2026-03-29T06:54:10.012Z</time></trkpt><trkpt lat="45.53995871274004" lon="10.829349757929835"><ele>262.6666666666667</ele><time>2026-03-29T06:54:13.012Z</time></trkpt><trkpt lat="45.53999532801403" lon="10.82944388467371"><ele>262.5</ele><time>2026-03-29T06:54:16.012Z</time></trkpt><trkpt lat="45.54002142881758" lon="10.829557503077266"><ele>262.3333333333333</ele><time>2026-03-29T06:54:19.012Z</time></trkpt><trkpt lat="45.5400455434281" lon="10.829665386961198"><ele>262.16666666666663</ele><time>2026-03-29T06:54:22.012Z</time></trkpt><trkpt lat="45.54007750034221" lon="10.829765419465232"><ele>262.0</ele><time>2026-03-29T06:54:25.012Z</time></trkpt><trkpt lat="45.540099864717575" lon="10.829880542435289"><ele>262.0</ele><time>2026-03-29T06:54:28.012Z</time></trkpt><trkpt lat="45.54011821542444" lon="10.829977891356096"><ele>262.0</ele><time>2026-03-29T06:54:31.012Z</time></trkpt><trkpt lat="45.54017179462709" lon="10.830043813864895"><ele>262.0</ele><time>2026-03-29T06:54:35.012Z</time></trkpt><trkpt lat="45.540239375921836" lon="10.830118743308567"><ele>262.0</ele><time>2026-03-29T06:54:39.012Z</time></trkpt><trkpt lat="45.54030121555308" lon="10.830160437024407"><ele>262.0</ele><time>2026-03-29T06:54:42.012Z</time></trkpt><trkpt lat="45.54037213052386" lon="10.83019877162931"><ele>262.0</ele><time>2026-03-29T06:54:45.012Z</time></trkpt><trkpt lat="45.54044317370766" lon="10.830207522701047"><ele>262.0</ele><time>2026-03-29T06:54:48.012Z</time></trkpt><trkpt lat="45.54051544954217" lon="10.830226173131123"><ele>261.16666666666663</ele><time>2026-03-29T06:54:51.012Z</time></trkpt><trkpt lat="45.54057030607945" lon="10.830278867022889"><ele>260.3333333333333</ele><time>2026-03-29T06:54:53.012Z</time></trkpt><trkpt lat="45.54069433219277" lon="10.830300576803209"><ele>259.5</ele><time>2026-03-29T06:54:57.011Z</time></trkpt><trkpt lat="45.54077337208692" lon="10.830346924154973"><ele>258.6666666666667</ele><time>2026-03-29T06:55:00.011Z</time></trkpt><trkpt lat="45.5408371174088" lon="10.830406030799999"><ele>257.83333333333337</ele><time>2026-03-29T06:55:03.011Z</time></trkpt><trkpt lat="45.54088196863022" lon="10.830488400665296"><ele>257.0</ele><time>2026-03-29T06:55:07.011Z</time></trkpt><trkpt lat="45.54090948812108" lon="10.830602481627093"><ele>257.0</ele><time>2026-03-29T06:55:10.011Z</time></trkpt><trkpt lat="45.54091910652168" lon="10.83069487819977"><ele>257.0</ele><time>2026-03-29T06:55:13.011Z</time></trkpt><trkpt lat="45.540943336008695" lon="10.830802539737405"><ele>257.0</ele><time>2026-03-29T06:55:16.011Z</time></trkpt><trkpt lat="45.54097201036246" lon="10.830885398886142"><ele>257.0</ele><time>2026-03-29T06:55:20.011Z</time></trkpt><trkpt lat="45.54103087310041" lon="10.830923332153544"><ele>257.0</ele><time>2026-03-29T06:55:24.011Z</time></trkpt><trkpt lat="45.54109272734798" lon="10.83096109616165"><ele>257.0</ele><time>2026-03-29T06:55:27.011Z</time></trkpt><trkpt lat="45.541149211605095" lon="10.831006376321962"><ele>257.0</ele><time>2026-03-29T06:55:30.011Z</time></trkpt><trkpt lat="45.54121364278304" lon="10.831064907081949"><ele>259.2857142857143</ele><time>2026-03-29T06:55:33.011Z</time></trkpt><trkpt lat="45.54126997608207" lon="10.831121411430473"><ele>261.57142857142856</ele><time>2026-03-29T06:55:36.011Z</time></trkpt><trkpt lat="45.541325835922216" lon="10.83116753673177"><ele>263.8571428571429</ele><time>2026-03-29T06:55:39.011Z</time></trkpt><trkpt lat="45.541397359761405" lon="10.831216060125492"><ele>266.1428571428571</ele><time>2026-03-29T06:55:43.011Z</time></trkpt><trkpt lat="45.541463078470265" lon="10.83126199418441"><ele>268.42857142857144</ele><time>2026-03-29T06:55:47.01Z</time></trkpt><trkpt lat="45.541521358273" lon="10.831310540112801"><ele>270.7142857142857</ele><time>2026-03-29T06:55:51.012Z</time></trkpt><trkpt lat="45.54158882768824" lon="10.83133098931507"><ele>273.0</ele><time>2026-03-29T06:55:54.012Z</time></trkpt><trkpt lat="45.54166555580031" lon="10.831370433171006"><ele>273.0</ele><time>2026-03-29T06:55:58.012Z</time></trkpt><trkpt lat="45.541738255509976" lon="10.83139073963319"><ele>273.0</ele><time>2026-03-29T06:56:02.013Z</time></trkpt><trkpt lat="45.54180495273435" lon="10.831408043427553"><ele>273.0</ele><time>2026-03-29T06:56:05.013Z</time></trkpt><trkpt lat="45.54187876553426" lon="10.831436965426862"><ele>273.0</ele><time>2026-03-29T06:56:09.013Z</time></trkpt><trkpt lat="45.54194328352853" lon="10.8314992330663"><ele>273.0</ele><time>2026-03-29T06:56:13.012Z</time></trkpt><trkpt lat="45.542000036615065" lon="10.831553495061707"><ele>273.0</ele><time>2026-03-29T06:56:18.012Z</time></trkpt><trkpt lat="45.54204668434365" lon="10.831629042742874"><ele>273.0</ele><time>2026-03-29T06:56:24.012Z</time></trkpt><trkpt lat="45.5420420563656" lon="10.831728170680092"><ele>273.0</ele><time>2026-03-29T06:56:30.012Z</time></trkpt><trkpt lat="45.541987131655404" lon="10.83178501879835"><ele>273.0</ele><time>2026-03-29T06:56:35.012Z</time></trkpt><trkpt lat="45.541922777984475" lon="10.831836147516837"><ele>273.0</ele><time>2026-03-29T06:56:39.012Z</time></trkpt><trkpt lat="45.5418453762938" lon="10.8318698331848"><ele>273.0</ele><time>2026-03-29T06:56:43.012Z</time></trkpt><trkpt lat="45.541777292845374" lon="10.831911132393397"><ele>273.0</ele><time>2026-03-29T06:56:47.012Z</time></trkpt><trkpt lat="45.54170219996056" lon="10.83196734165805"><ele>273.0</ele><time>2026-03-29T06:56:51.012Z</time></trkpt><trkpt lat="45.54162534091177" lon="10.832014383883347"><ele>275.57142857142856</ele><time>2026-03-29T06:56:55.012Z</time></trkpt><trkpt lat="45.541563678804735" lon="10.832044536167762"><ele>278.1428571428571</ele><time>2026-03-29T06:56:59.011Z</time></trkpt><trkpt lat="45.541496116939285" lon="10.832082514387618"><ele>280.7142857142857</ele><time>2026-03-29T06:57:04.011Z</time></trkpt><trkpt lat="45.54143021712957" lon="10.832136561627115"><ele>283.2857142857143</ele><time>2026-03-29T06:57:10.011Z</time></trkpt><trkpt lat="45.54137287571538" lon="10.832183043408305"><ele>285.85714285714283</ele><time>2026-03-29T06:57:15.011Z</time></trkpt><trkpt lat="45.541316708054076" lon="10.832235914335408"><ele>288.42857142857144</ele><time>2026-03-29T06:57:21.011Z</time></trkpt><trkpt lat="45.54125382841008" lon="10.832271390559574"><ele>291.0</ele><time>2026-03-29T06:57:26.011Z</time></trkpt><trkpt lat="45.54119016202089" lon="10.83231214594529"><ele>291.0</ele><time>2026-03-29T06:57:30.011Z</time></trkpt><trkpt lat="45.541123848015985" lon="10.832349972391702"><ele>291.0</ele><time>2026-03-29T06:57:35.011Z</time></trkpt><trkpt lat="45.541092999066315" lon="10.83243497629745"><ele>291.0</ele><time>2026-03-29T06:57:43.011Z</time></trkpt><trkpt lat="45.541102784679545" lon="10.83253357033623"><ele>291.0</ele><time>2026-03-29T06:57:51.01Z</time></trkpt><trkpt lat="45.54117086886868" lon="10.832572158056388"><ele>291.0</ele><time>2026-03-29T06:57:57.014Z</time></trkpt><trkpt lat="45.541233099882874" lon="10.832625788690255"><ele>291.0</ele><time>2026-03-29T06:58:02.013Z</time></trkpt><trkpt lat="45.54130085322811" lon="10.832624114750406"><ele>291.0</ele><time>2026-03-29T06:58:06.013Z</time></trkpt><trkpt lat="45.54136662611739" lon="10.832600735774532"><ele>291.3333333333333</ele><time>2026-03-29T06:58:09.013Z</time></trkpt><trkpt lat="45.541447071703445" lon="10.832600854253757"><ele>291.6666666666667</ele><time>2026-03-29T06:58:12.013Z</time></trkpt><trkpt lat="45.54153411921933" lon="10.832637908804825"><ele>292.0</ele><time>2026-03-29T06:58:15.013Z</time></trkpt><trkpt lat="45.54161089329728" lon="10.832662670136722"><ele>292.33333333333337</ele><time>2026-03-29T06:58:18.013Z</time></trkpt><trkpt lat="45.54168922562218" lon="10.832693345467321"><ele>292.6666666666667</ele><time>2026-03-29T06:58:22.012Z</time></trkpt><trkpt lat="45.54174820057798" lon="10.832727214059023"><ele>293.0</ele><time>2026-03-29T06:58:25.012Z</time></trkpt><trkpt lat="45.54182411434227" lon="10.832785592588966"><ele>294.1428571428571</ele><time>2026-03-29T06:58:29.012Z</time></trkpt><trkpt lat="45.54187468962521" lon="10.832844674386628"><ele>295.2857142857143</ele><time>2026-03-29T06:58:32.012Z</time></trkpt><trkpt lat="45.5419288155904" lon="10.832930703485095"><ele>296.42857142857144</ele><time>2026-03-29T06:58:36.012Z</time></trkpt><trkpt lat="45.541987625077276" lon="10.833013265729754"><ele>297.57142857142856</ele><time>2026-03-29T06:58:40.012Z</time></trkpt><trkpt lat="45.542023276942686" lon="10.833094048692237"><ele>298.7142857142857</ele><time>2026-03-29T06:58:43.012Z</time></trkpt><trkpt lat="45.54205110050124" lon="10.833178985066034"><ele>299.85714285714283</ele><time>2026-03-29T06:58:46.012Z</time></trkpt><trkpt lat="45.54208106222576" lon="10.83326282151327"><ele>301.0</ele><time>2026-03-29T06:58:51.012Z</time></trkpt><trkpt lat="45.54209768448571" lon="10.833362553526205"><ele>301.0</ele><time>2026-03-29T06:58:56.012Z</time></trkpt><trkpt lat="45.542118078857605" lon="10.833454619791539"><ele>301.0</ele><time>2026-03-29T06:59:01.012Z</time></trkpt><trkpt lat="45.542139606592016" lon="10.833547173356722"><ele>301.0</ele><time>2026-03-29T06:59:06.012Z</time></trkpt><trkpt lat="45.54216646197941" lon="10.833635960382525"><ele>301.0</ele><time>2026-03-29T06:59:23.011Z</time></trkpt><trkpt lat="45.54220288916033" lon="10.833721896781274"><ele>301.0</ele><time>2026-03-29T06:59:29.011Z</time></trkpt><trkpt lat="45.542258679358824" lon="10.83378754629134"><ele>301.0</ele><time>2026-03-29T06:59:35.011Z</time></trkpt><trkpt lat="45.54231822933326" lon="10.833843539682846"><ele>301.0</ele><time>2026-03-29T06:59:39.011Z</time></trkpt><trkpt lat="45.542375711577044" lon="10.833890070152615"><ele>303.2857142857143</ele><time>2026-03-29T06:59:43.011Z</time></trkpt><trkpt lat="45.542437952965805" lon="10.833906593948495"><ele>305.57142857142856</ele><time>2026-03-29T06:59:47.011Z</time></trkpt><trkpt lat="45.54251371328509" lon="10.833942717021845"><ele>307.8571428571429</ele><time>2026-03-29T06:59:51.011Z</time></trkpt><trkpt lat="45.54258132007259" lon="10.833971467141195"><ele>310.1428571428571</ele><time>2026-03-29T06:59:54.011Z</time></trkpt><trkpt lat="45.54264811065129" lon="10.833975489112104"><ele>312.42857142857144</ele><time>2026-03-29T06:59:57.011Z</time></trkpt><trkpt lat="45.5427154874178" lon="10.83399547412243"><ele>314.7142857142857</ele><time>2026-03-29T07:00:00.013Z</time></trkpt><trkpt lat="45.54279327974182" lon="10.834023031973004"><ele>317.0</ele><time>2026-03-29T07:00:03.014Z</time></trkpt><trkpt lat="45.54285356688987" lon="10.834049810479634"><ele>316.8571428571429</ele><time>2026-03-29T07:00:06.014Z</time></trkpt><trkpt lat="45.54291574466581" lon="10.83407944182897"><ele>316.7142857142857</ele><time>2026-03-29T07:00:09.013Z</time></trkpt><trkpt lat="45.54297777892657" lon="10.834122458422874"><ele>316.57142857142856</ele><time>2026-03-29T07:00:12.013Z</time></trkpt><trkpt lat="45.54304600879855" lon="10.83416437303389"><ele>316.42857142857144</ele><time>2026-03-29T07:00:15.013Z</time></trkpt><trkpt lat="45.54311803691577" lon="10.83420372266893"><ele>316.2857142857143</ele><time>2026-03-29T07:00:18.013Z</time></trkpt><trkpt lat="45.543180184251206" lon="10.834240785408033"><ele>316.14285714285717</ele><time>2026-03-29T07:00:21.013Z</time></trkpt><trkpt lat="45.54325478443312" lon="10.834262538365042"><ele>316.0</ele><time>2026-03-29T07:00:24.013Z</time></trkpt><trkpt lat="45.54332121187336" lon="10.83427024010925"><ele>316.00000000000006</ele><time>2026-03-29T07:00:27.013Z</time></trkpt><trkpt lat="45.54338446574414" lon="10.834279894250004"><ele>316.0</ele><time>2026-03-29T07:00:29.013Z</time></trkpt><trkpt lat="45.54345275830039" lon="10.834277124433575"><ele>316.0</ele><time>2026-03-29T07:00:32.013Z</time></trkpt><trkpt lat="45.54351793158113" lon="10.834281367338106"><ele>316.0</ele><time>2026-03-29T07:00:35.013Z</time></trkpt><trkpt lat="45.543583208434676" lon="10.834291886852428"><ele>316.0</ele><time>2026-03-29T07:00:38.013Z</time></trkpt><trkpt lat="45.54364473995353" lon="10.834311406252025"><ele>316.00000000000006</ele><time>2026-03-29T07:00:41.013Z</time></trkpt><trkpt lat="45.54371109559429" lon="10.834312033848885"><ele>316.0</ele><time>2026-03-29T07:00:44.013Z</time></trkpt><trkpt lat="45.5437793817354" lon="10.834337319714319"><ele>319.3333333333333</ele><time>2026-03-29T07:00:47.012Z</time></trkpt><trkpt lat="45.54385387530089" lon="10.834347392613207"><ele>322.66666666666663</ele><time>2026-03-29T07:00:50.012Z</time></trkpt><trkpt lat="45.54393258065668" lon="10.83437004938189"><ele>326.0</ele><time>2026-03-29T07:00:53.012Z</time></trkpt><trkpt lat="45.544002042719285" lon="10.834386301136792"><ele>329.3333333333333</ele><time>2026-03-29T07:00:56.012Z</time></trkpt><trkpt lat="45.54408790902393" lon="10.83441182234612"><ele>332.6666666666667</ele><time>2026-03-29T07:01:00.012Z</time></trkpt><trkpt lat="45.54416225181332" lon="10.834417949621857"><ele>336.0</ele><time>2026-03-29T07:01:03.012Z</time></trkpt><trkpt lat="45.54423344818697" lon="10.834425351265793"><ele>336.0</ele><time>2026-03-29T07:01:06.012Z</time></trkpt><trkpt lat="45.544314067193405" lon="10.834438289182104"><ele>336.0</ele><time>2026-03-29T07:01:09.012Z</time></trkpt><trkpt lat="45.54442099179967" lon="10.834442299039702"><ele>336.0</ele><time>2026-03-29T07:01:13.012Z</time></trkpt><trkpt lat="45.54450370001287" lon="10.834462677272302"><ele>336.0</ele><time>2026-03-29T07:01:16.012Z</time></trkpt><trkpt lat="45.54457849925941" lon="10.834482264623059"><ele>336.0</ele><time>2026-03-29T07:01:19.012Z</time></trkpt><trkpt lat="45.54463131594098" lon="10.834536398675908"><ele>336.0</ele><time>2026-03-29T07:01:22.012Z</time></trkpt><trkpt lat="45.544690959521965" lon="10.834606429145365"><ele>336.0</ele><time>2026-03-29T07:01:26.012Z</time></trkpt><trkpt lat="45.544628956873915" lon="10.834651607028537"><ele>336.0</ele><time>2026-03-29T07:01:35.011Z</time></trkpt><trkpt lat="45.54456368800253" lon="10.834654239081187"><ele>336.0</ele><time>2026-03-29T07:01:38.011Z</time></trkpt><trkpt lat="45.54449709967562" lon="10.834659139580326"><ele>336.0</ele><time>2026-03-29T07:01:42.011Z</time></trkpt><trkpt lat="45.54443963577616" lon="10.83470841002176"><ele>336.0</ele><time>2026-03-29T07:01:46.011Z</time></trkpt><trkpt lat="45.54444686937418" lon="10.834802342500852"><ele>336.0</ele><time>2026-03-29T07:01:51.011Z</time></trkpt><trkpt lat="45.5444407010995" lon="10.834895798875314"><ele>336.0</ele><time>2026-03-29T07:02:04.011Z</time></trkpt><trkpt lat="45.544493911461295" lon="10.83494733229978"><ele>335.85714285714283</ele><time>2026-03-29T07:02:12.014Z</time></trkpt><trkpt lat="45.54456409316232" lon="10.834968081904055"><ele>335.7142857142857</ele><time>2026-03-29T07:02:17.014Z</time></trkpt><trkpt lat="45.54462980746326" lon="10.835050403234407"><ele>335.57142857142856</ele><time>2026-03-29T07:02:26.014Z</time></trkpt><trkpt lat="45.544690331872246" lon="10.835114519854088"><ele>335.42857142857144</ele><time>2026-03-29T07:02:31.014Z</time></trkpt><trkpt lat="45.54475673418961" lon="10.835154149453116"><ele>335.2857142857143</ele><time>2026-03-29T07:02:35.014Z</time></trkpt><trkpt lat="45.544831529732896" lon="10.835126180115434"><ele>335.1428571428571</ele><time>2026-03-29T07:02:42.014Z</time></trkpt><trkpt lat="45.54488323363467" lon="10.83518115652278"><ele>335.0</ele><time>2026-03-29T07:02:48.014Z</time></trkpt><trkpt lat="45.5449440583633" lon="10.835211398201192"><ele>336.57142857142856</ele><time>2026-03-29T07:02:53.014Z</time></trkpt><trkpt lat="45.5450119264304" lon="10.83524527940574"><ele>338.1428571428571</ele><time>2026-03-29T07:03:00.014Z</time></trkpt><trkpt lat="45.5450821388303" lon="10.83527075041211"><ele>339.71428571428567</ele><time>2026-03-29T07:03:07.013Z</time></trkpt><trkpt lat="45.545156031421925" lon="10.835323253932437"><ele>341.2857142857143</ele><time>2026-03-29T07:03:15.013Z</time></trkpt><trkpt lat="45.54519931051858" lon="10.835398647467102"><ele>342.8571428571429</ele><time>2026-03-29T07:03:24.013Z</time></trkpt><trkpt lat="45.54522437894507" lon="10.835483804362143"><ele>344.4285714285714</ele><time>2026-03-29T07:03:31.013Z</time></trkpt><trkpt lat="45.54526541439227" lon="10.835558580722516"><ele>346.0</ele><time>2026-03-29T07:03:36.013Z</time></trkpt><trkpt lat="45.54530878862538" lon="10.835625254721224"><ele>346.0</ele><time>2026-03-29T07:03:42.013Z</time></trkpt><trkpt lat="45.54534581750379" lon="10.835719879925788"><ele>346.0</ele><time>2026-03-29T07:03:50.013Z</time></trkpt><trkpt lat="45.54536771286695" lon="10.835817293416124"><ele>346.0</ele><time>2026-03-29T07:03:57.012Z</time></trkpt><trkpt lat="45.54538235316787" lon="10.835936043321054"><ele>346.0</ele><time>2026-03-29T07:04:01.012Z</time></trkpt><trkpt lat="45.54537523386856" lon="10.836028386693265"><ele>346.0</ele><time>2026-03-29T07:04:05.012Z</time></trkpt><trkpt lat="45.54534043998194" lon="10.836129841402752"><ele>346.0</ele><time>2026-03-29T07:04:10.012Z</time></trkpt><trkpt lat="45.545284159696294" lon="10.836211035068644"><ele>347.0</ele><time>2026-03-29T07:04:14.014Z</time></trkpt><trkpt lat="45.545204308042905" lon="10.83625468726872"><ele>348.0</ele><time>2026-03-29T07:04:18.014Z</time></trkpt><trkpt lat="45.545121085462874" lon="10.836253969291691"><ele>349.0</ele><time>2026-03-29T07:04:21.014Z</time></trkpt><trkpt lat="45.545043956190234" lon="10.836269889030735"><ele>350.0</ele><time>2026-03-29T07:04:24.014Z</time></trkpt><trkpt lat="45.544958321550006" lon="10.836274370441766"><ele>351.0</ele><time>2026-03-29T07:04:27.014Z</time></trkpt><trkpt lat="45.54487592554624" lon="10.836282495854633"><ele>352.0</ele><time>2026-03-29T07:04:30.014Z</time></trkpt><trkpt lat="45.5448040268587" lon="10.836325321102866"><ele>352.0</ele><time>2026-03-29T07:04:33.014Z</time></trkpt><trkpt lat="45.544751705172075" lon="10.836375349356357"><ele>352.0</ele><time>2026-03-29T07:04:36.014Z</time></trkpt><trkpt lat="45.54466514803373" lon="10.83638917687983"><ele>352.0</ele><time>2026-03-29T07:04:39.014Z</time></trkpt><trkpt lat="45.54459350079376" lon="10.836416813014065"><ele>352.0</ele><time>2026-03-29T07:04:42.014Z</time></trkpt><trkpt lat="45.544509195952564" lon="10.836402467081545"><ele>352.0</ele><time>2026-03-29T07:04:45.014Z</time></trkpt><trkpt lat="45.544442901565894" lon="10.836435055642326"><ele>352.0</ele><time>2026-03-29T07:04:48.013Z</time></trkpt><trkpt lat="45.54436754828096" lon="10.836408333906947"><ele>352.8571428571429</ele><time>2026-03-29T07:04:51.013Z</time></trkpt><trkpt lat="45.544319687145894" lon="10.836348455074344"><ele>353.7142857142857</ele><time>2026-03-29T07:04:54.013Z</time></trkpt><trkpt lat="45.544264481171275" lon="10.836304389183287"><ele>354.57142857142856</ele><time>2026-03-29T07:04:57.013Z</time></trkpt><trkpt lat="45.54420401615197" lon="10.836236093304084"><ele>355.42857142857144</ele><time>2026-03-29T07:05:01.013Z</time></trkpt><trkpt lat="45.54414339344391" lon="10.836272592502958"><ele>356.2857142857143</ele><time>2026-03-29T07:05:04.013Z</time></trkpt><trkpt lat="45.544082815408004" lon="10.83629879397324"><ele>357.14285714285717</ele><time>2026-03-29T07:05:11.013Z</time></trkpt><trkpt lat="45.54403105376298" lon="10.836375274805405"><ele>358.0</ele><time>2026-03-29T07:05:17.013Z</time></trkpt><trkpt lat="45.543985623640964" lon="10.836444091150371"><ele>358.00000000000006</ele><time>2026-03-29T07:05:22.013Z</time></trkpt><trkpt lat="45.54392548666887" lon="10.836486884997107"><ele>358.0</ele><time>2026-03-29T07:05:26.013Z</time></trkpt><trkpt lat="45.543857069104554" lon="10.836530831356498"><ele>358.0</ele><time>2026-03-29T07:05:30.013Z</time></trkpt><trkpt lat="45.54380964723971" lon="10.836618188883904"><ele>358.0</ele><time>2026-03-29T07:05:34.013Z</time></trkpt><trkpt lat="45.543737498895155" lon="10.836627746403257"><ele>358.0</ele><time>2026-03-29T07:05:37.012Z</time></trkpt><trkpt lat="45.54367138495837" lon="10.836664819080632"><ele>358.00000000000006</ele><time>2026-03-29T07:05:40.012Z</time></trkpt><trkpt lat="45.54360149125605" lon="10.83667950057779"><ele>358.0</ele><time>2026-03-29T07:05:43.012Z</time></trkpt><trkpt lat="45.543538166640424" lon="10.83667095384726"><ele>358.5714285714286</ele><time>2026-03-29T07:05:46.012Z</time></trkpt><trkpt lat="45.54346351546554" lon="10.836659364095327"><ele>359.14285714285717</ele><time>2026-03-29T07:05:49.012Z</time></trkpt><trkpt lat="45.543392263107954" lon="10.836676703042572"><ele>359.7142857142857</ele><time>2026-03-29T07:05:52.012Z</time></trkpt><trkpt lat="45.543322537302956" lon="10.836731053969727"><ele>360.28571428571433</ele><time>2026-03-29T07:05:56.012Z</time></trkpt><trkpt lat="45.54324830007327" lon="10.836778314377813"><ele>360.85714285714283</ele><time>2026-03-29T07:06:00.012Z</time></trkpt><trkpt lat="45.54318697038525" lon="10.836825439007407"><ele>361.42857142857144</ele><time>2026-03-29T07:06:04.012Z</time></trkpt><trkpt lat="45.5431297749818" lon="10.836876805105026"><ele>362.0</ele><time>2026-03-29T07:06:08.012Z</time></trkpt><trkpt lat="45.543080559477374" lon="10.836933482730142"><ele>362.57142857142856</ele><time>2026-03-29T07:06:14.012Z</time></trkpt><trkpt lat="45.54300736725262" lon="10.836982254658304"><ele>363.1428571428571</ele><time>2026-03-29T07:06:21.015Z</time></trkpt><trkpt lat="45.542957765782184" lon="10.837045654854933"><ele>363.7142857142857</ele><time>2026-03-29T07:06:25.015Z</time></trkpt><trkpt lat="45.54289633960066" lon="10.83707035208484"><ele>364.2857142857143</ele><time>2026-03-29T07:06:29.015Z</time></trkpt><trkpt lat="45.54284179669976" lon="10.83712365935912"><ele>364.8571428571429</ele><time>2026-03-29T07:06:33.015Z</time></trkpt><trkpt lat="45.542790197581006" lon="10.837176723612558"><ele>365.42857142857144</ele><time>2026-03-29T07:06:37.015Z</time></trkpt><trkpt lat="45.542745892326" lon="10.837241059566466"><ele>366.0</ele><time>2026-03-29T07:06:41.014Z</time></trkpt><trkpt lat="45.54269195105888" lon="10.837299840044956"><ele>367.2857142857143</ele><time>2026-03-29T07:06:45.014Z</time></trkpt><trkpt lat="45.54264186445059" lon="10.837376117113308"><ele>368.57142857142856</ele><time>2026-03-29T07:06:49.014Z</time></trkpt><trkpt lat="45.54258903581483" lon="10.837460166439211"><ele>369.8571428571429</ele><time>2026-03-29T07:06:53.014Z</time></trkpt><trkpt lat="45.54253016933884" lon="10.837517903758307"><ele>371.1428571428571</ele><time>2026-03-29T07:06:57.014Z</time></trkpt><trkpt lat="45.54247067290318" lon="10.837553450274255"><ele>372.4285714285714</ele><time>2026-03-29T07:07:00.014Z</time></trkpt><trkpt lat="45.542418394758066" lon="10.83764065715574"><ele>373.7142857142857</ele><time>2026-03-29T07:07:05.014Z</time></trkpt><trkpt lat="45.5424421541218" lon="10.83773839701551"><ele>375.0</ele><time>2026-03-29T07:07:08.014Z</time></trkpt><trkpt lat="45.54247611504643" lon="10.837840727890143"><ele>375.6666666666667</ele><time>2026-03-29T07:07:12.014Z</time></trkpt><trkpt lat="45.54244671991302" lon="10.837934006700097"><ele>376.3333333333333</ele><time>2026-03-29T07:07:16.014Z</time></trkpt><trkpt lat="45.54237184157682" lon="10.837960463764844"><ele>377.0</ele><time>2026-03-29T07:07:20.014Z</time></trkpt><trkpt lat="45.54230111152907" lon="10.837959331029488"><ele>377.66666666666663</ele><time>2026-03-29T07:07:24.014Z</time></trkpt><trkpt lat="45.54222402808389" lon="10.837951647548326"><ele>378.3333333333333</ele><time>2026-03-29T07:07:29.013Z</time></trkpt><trkpt lat="45.5421493933038" lon="10.837913610876212"><ele>379.0</ele><time>2026-03-29T07:07:33.013Z</time></trkpt><trkpt lat="45.54208563265271" lon="10.837851108369838"><ele>378.7142857142857</ele><time>2026-03-29T07:07:37.013Z</time></trkpt><trkpt lat="45.5420132359228" lon="10.83781396787848"><ele>378.42857142857144</ele><time>2026-03-29T07:07:41.013Z</time></trkpt><trkpt lat="45.54193912050345" lon="10.837814391321135"><ele>378.1428571428571</ele><time>2026-03-29T07:07:45.013Z</time></trkpt><trkpt lat="45.541878464117524" lon="10.837762037989515"><ele>377.8571428571429</ele><time>2026-03-29T07:07:50.013Z</time></trkpt><trkpt lat="45.541822119964046" lon="10.837705051997553"><ele>377.57142857142856</ele><time>2026-03-29T07:07:57.013Z</time></trkpt><trkpt lat="45.541764360735975" lon="10.837664433460054"><ele>377.2857142857143</ele><time>2026-03-29T07:08:02.013Z</time></trkpt><trkpt lat="45.541703982555696" lon="10.837618001597818"><ele>377.0</ele><time>2026-03-29T07:08:07.013Z</time></trkpt><trkpt lat="45.54162484703298" lon="10.837578420765942"><ele>377.0</ele><time>2026-03-29T07:08:12.013Z</time></trkpt><trkpt lat="45.54154473796192" lon="10.837560073282908"><ele>377.0</ele><time>2026-03-29T07:08:16.012Z</time></trkpt><trkpt lat="45.54147692342482" lon="10.837621233678975"><ele>377.0</ele><time>2026-03-29T07:08:20.012Z</time></trkpt><trkpt lat="45.54141415364792" lon="10.837658056177588"><ele>377.0</ele><time>2026-03-29T07:08:23.012Z</time></trkpt><trkpt lat="45.54135828997258" lon="10.837724166637345"><ele>377.0</ele><time>2026-03-29T07:08:27.015Z</time></trkpt><trkpt lat="45.54133431831445" lon="10.837833249754354"><ele>377.0</ele><time>2026-03-29T07:08:31.015Z</time></trkpt><trkpt lat="45.54132174556822" lon="10.837937819576952"><ele>378.1428571428571</ele><time>2026-03-29T07:08:35.016Z</time></trkpt><trkpt lat="45.541301475507765" lon="10.838034157085868"><ele>379.2857142857143</ele><time>2026-03-29T07:08:40.015Z</time></trkpt><trkpt lat="45.54126287842743" lon="10.838131596797215"><ele>380.42857142857144</ele><time>2026-03-29T07:08:46.015Z</time></trkpt><trkpt lat="45.541226949579624" lon="10.838210812354667"><ele>381.57142857142856</ele><time>2026-03-29T07:08:51.015Z</time></trkpt><trkpt lat="45.5411635182239" lon="10.8382686857212"><ele>382.7142857142857</ele><time>2026-03-29T07:08:56.015Z</time></trkpt><trkpt lat="45.5410970675699" lon="10.838305278454643"><ele>383.85714285714283</ele><time>2026-03-29T07:09:02.015Z</time></trkpt><trkpt lat="45.541030922116455" lon="10.838322816461167"><ele>385.0</ele><time>2026-03-29T07:09:11.015Z</time></trkpt><trkpt lat="45.54096417782774" lon="10.838341371481333"><ele>385.42857142857144</ele><time>2026-03-29T07:09:16.015Z</time></trkpt><trkpt lat="45.54090159703" lon="10.838323251867095"><ele>385.8571428571429</ele><time>2026-03-29T07:09:25.014Z</time></trkpt><trkpt lat="45.54083971812309" lon="10.838294399525331"><ele>386.2857142857143</ele><time>2026-03-29T07:09:32.014Z</time></trkpt><trkpt lat="45.540769913900256" lon="10.838279056255825"><ele>386.7142857142857</ele><time>2026-03-29T07:09:37.014Z</time></trkpt><trkpt lat="45.54069166960592" lon="10.838237165359784"><ele>387.14285714285717</ele><time>2026-03-29T07:09:46.014Z</time></trkpt><trkpt lat="45.540630845281704" lon="10.838265741617514"><ele>387.57142857142856</ele><time>2026-03-29T07:09:53.014Z</time></trkpt><trkpt lat="45.54058402958125" lon="10.838329424766139"><ele>388.0</ele><time>2026-03-29T07:10:06.014Z</time></trkpt><trkpt lat="45.54059228327096" lon="10.838424816161218"><ele>389.85714285714283</ele><time>2026-03-29T07:10:16.013Z</time></trkpt><trkpt lat="45.54057232915921" lon="10.838515275256315"><ele>391.7142857142857</ele><time>2026-03-29T07:10:23.013Z</time></trkpt><trkpt lat="45.540564095964925" lon="10.838609504732112"><ele>393.57142857142856</ele><time>2026-03-29T07:10:30.015Z</time></trkpt><trkpt lat="45.540573040449594" lon="10.8387033959702"><ele>395.42857142857144</ele><time>2026-03-29T07:10:39.016Z</time></trkpt><trkpt lat="45.54059590352746" lon="10.838813375450059"><ele>397.28571428571433</ele><time>2026-03-29T07:10:45.016Z</time></trkpt><trkpt lat="45.540647281088724" lon="10.838886869487933"><ele>399.14285714285717</ele><time>2026-03-29T07:10:49.016Z</time></trkpt><trkpt lat="45.54071090487706" lon="10.838945706280859"><ele>401.0</ele><time>2026-03-29T07:10:52.016Z</time></trkpt><trkpt lat="45.540767798385296" lon="10.839039359677809"><ele>401.0</ele><time>2026-03-29T07:10:55.016Z</time></trkpt><trkpt lat="45.540789708696494" lon="10.839149253855936"><ele>401.0</ele><time>2026-03-29T07:10:58.015Z</time></trkpt><trkpt lat="45.540765918165725" lon="10.839248092005484"><ele>401.0</ele><time>2026-03-29T07:11:01.015Z</time></trkpt><trkpt lat="45.54076704282621" lon="10.839346242752478"><ele>401.0</ele><time>2026-03-29T07:11:04.015Z</time></trkpt><trkpt lat="45.540782474375035" lon="10.839438887377222"><ele>401.0</ele><time>2026-03-29T07:11:07.015Z</time></trkpt><trkpt lat="45.540821315464385" lon="10.83952575384458"><ele>401.0</ele><time>2026-03-29T07:11:10.015Z</time></trkpt><trkpt lat="45.5408416948878" lon="10.839614488951362"><ele>401.0</ele><time>2026-03-29T07:11:13.015Z</time></trkpt><trkpt lat="45.54087311053341" lon="10.839724270765995"><ele>402.14285714285717</ele><time>2026-03-29T07:11:17.015Z</time></trkpt><trkpt lat="45.54088464268312" lon="10.839817216183597"><ele>403.28571428571433</ele><time>2026-03-29T07:11:20.015Z</time></trkpt><trkpt lat="45.540918703094235" lon="10.83992138350338"><ele>404.42857142857144</ele><time>2026-03-29T07:11:24.015Z</time></trkpt><trkpt lat="45.540972154983066" lon="10.839980192557737"><ele>405.57142857142856</ele><time>2026-03-29T07:11:27.015Z</time></trkpt><trkpt lat="45.54102977520095" lon="10.840026835002144"><ele>406.7142857142857</ele><time>2026-03-29T07:11:30.015Z</time></trkpt><trkpt lat="45.54109920057033" lon="10.840084318369927"><ele>407.85714285714283</ele><time>2026-03-29T07:11:34.015Z</time></trkpt><trkpt lat="45.5411702638637" lon="10.840130406003103"><ele>409.0</ele><time>2026-03-29T07:11:37.015Z</time></trkpt><trkpt lat="45.54124602941551" lon="10.84019285491733"><ele>410.0</ele><time>2026-03-29T07:11:40.015Z</time></trkpt><trkpt lat="45.54129300363281" lon="10.840258647952385"><ele>411.0</ele><time>2026-03-29T07:11:42.015Z</time></trkpt><trkpt lat="45.54133119437661" lon="10.840360172054167"><ele>412.0</ele><time>2026-03-29T07:11:45.015Z</time></trkpt><trkpt lat="45.54132135707266" lon="10.840454741975336"><ele>413.0</ele><time>2026-03-29T07:11:48.015Z</time></trkpt><trkpt lat="45.54131838305167" lon="10.840558439318938"><ele>414.0</ele><time>2026-03-29T07:11:51.014Z</time></trkpt><trkpt lat="45.54130379154966" lon="10.840659947311869"><ele>415.0</ele><time>2026-03-29T07:11:54.014Z</time></trkpt><trkpt lat="45.541315332265874" lon="10.840763558685682"><ele>416.0</ele><time>2026-03-29T07:11:57.014Z</time></trkpt><trkpt lat="45.54134924585895" lon="10.840845293986604"><ele>416.0</ele><time>2026-03-29T07:12:03.014Z</time></trkpt><trkpt lat="45.5414232359232" lon="10.840874521355744"><ele>416.0</ele><time>2026-03-29T07:12:09.014Z</time></trkpt><trkpt lat="45.54149215779545" lon="10.84085959401422"><ele>416.0</ele><time>2026-03-29T07:12:13.014Z</time></trkpt><trkpt lat="45.5415594042867" lon="10.840844292705015"><ele>416.0</ele><time>2026-03-29T07:12:17.014Z</time></trkpt><trkpt lat="45.541621273359695" lon="10.840872189078471"><ele>416.0</ele><time>2026-03-29T07:12:20.014Z</time></trkpt><trkpt lat="45.54169200339923" lon="10.840907896041514"><ele>416.0</ele><time>2026-03-29T07:12:24.014Z</time></trkpt><trkpt lat="45.54176023437046" lon="10.84091141432534"><ele>416.0</ele><time>2026-03-29T07:12:29.014Z</time></trkpt><trkpt lat="45.541825150214194" lon="10.840898796196196"><ele>416.0</ele><time>2026-03-29T07:12:33.014Z</time></trkpt><trkpt lat="45.54189035744348" lon="10.840965862695418"><ele>416.0</ele><time>2026-03-29T07:12:39.016Z</time></trkpt><trkpt lat="45.54193755290782" lon="10.841048030885476"><ele>416.0</ele><time>2026-03-29T07:12:43.016Z</time></trkpt><trkpt lat="45.54197651806897" lon="10.841135221941025"><ele>416.0</ele><time>2026-03-29T07:12:47.016Z</time></trkpt><trkpt lat="45.54200558613986" lon="10.841227666828607"><ele>416.0</ele><time>2026-03-29T07:12:51.016Z</time></trkpt><trkpt lat="45.54202526239163" lon="10.841321736690018"><ele>416.0</ele><time>2026-03-29T07:12:55.016Z</time></trkpt><trkpt lat="45.542042316651425" lon="10.841421931659424"><ele>416.0</ele><time>2026-03-29T07:13:00.016Z</time></trkpt><trkpt lat="45.54207780803459" lon="10.841525799001003"><ele>416.8333333333333</ele><time>2026-03-29T07:13:05.016Z</time></trkpt><trkpt lat="45.54211438662313" lon="10.841625561072833"><ele>417.66666666666663</ele><time>2026-03-29T07:13:10.015Z</time></trkpt><trkpt lat="45.54216584122772" lon="10.841697015702115"><ele>418.5</ele><time>2026-03-29T07:13:17.015Z</time></trkpt><trkpt lat="45.542226447894706" lon="10.841735364106675"><ele>419.33333333333337</ele><time>2026-03-29T07:13:22.015Z</time></trkpt><trkpt lat="45.54229067325562" lon="10.841763866528954"><ele>420.1666666666667</ele><time>2026-03-29T07:13:27.015Z</time></trkpt><trkpt lat="45.542346941762176" lon="10.841817989035233"><ele>421.0</ele><time>2026-03-29T07:13:31.015Z</time></trkpt><trkpt lat="45.5425450132215" lon="10.841823150517566"><ele>423.00000000000006</ele><time>2026-03-29T07:13:41.015Z</time></trkpt><trkpt lat="45.542614579862885" lon="10.84182447405436"><ele>425.0</ele><time>2026-03-29T07:13:44.015Z</time></trkpt><trkpt lat="45.542684835038905" lon="10.841830462860717"><ele>427.0</ele><time>2026-03-29T07:13:47.015Z</time></trkpt><trkpt lat="45.54275915665909" lon="10.8418380867713"><ele>429.0</ele><time>2026-03-29T07:13:50.015Z</time></trkpt><trkpt lat="45.542837293903986" lon="10.841847038621797"><ele>431.00000000000006</ele><time>2026-03-29T07:13:53.015Z</time></trkpt><trkpt lat="45.54294836772949" lon="10.841859422080462"><ele>433.0</ele><time>2026-03-29T07:13:58.014Z</time></trkpt><trkpt lat="45.54311419442579" lon="10.841832727859975"><ele>433.0</ele><time>2026-03-29T07:14:06.014Z</time></trkpt><trkpt lat="45.543331509860735" lon="10.841831312492566"><ele>433.0</ele><time>2026-03-29T07:14:13.014Z</time></trkpt><trkpt lat="45.54341168473801" lon="10.841836360074485"><ele>433.0</ele><time>2026-03-29T07:14:16.014Z</time></trkpt><trkpt lat="45.543494802580994" lon="10.841853061925724"><ele>433.0</ele><time>2026-03-29T07:14:19.014Z</time></trkpt><trkpt lat="45.54358117520582" lon="10.841868765323538"><ele>433.0</ele><time>2026-03-29T07:14:22.014Z</time></trkpt><trkpt lat="45.543664981987654" lon="10.841860209463368"><ele>432.99999999999994</ele><time>2026-03-29T07:14:25.014Z</time></trkpt><trkpt lat="45.54374482714501" lon="10.84184465492267"><ele>432.99999999999994</ele><time>2026-03-29T07:14:28.014Z</time></trkpt><trkpt lat="45.543825940940884" lon="10.841841008751611"><ele>433.0</ele><time>2026-03-29T07:14:31.014Z</time></trkpt><trkpt lat="45.54395921774725" lon="10.841872582095743"><ele>433.0</ele><time>2026-03-29T07:14:38.014Z</time></trkpt><trkpt lat="45.544037098107545" lon="10.84189123277448"><ele>432.85714285714283</ele><time>2026-03-29T07:14:41.014Z</time></trkpt><trkpt lat="45.5440995492379" lon="10.841907208264132"><ele>432.7142857142857</ele><time>2026-03-29T07:14:44.017Z</time></trkpt><trkpt lat="45.54416669501257" lon="10.841939335752347"><ele>432.57142857142856</ele><time>2026-03-29T07:14:46.017Z</time></trkpt><trkpt lat="45.54423337510581" lon="10.841954813675416"><ele>432.42857142857144</ele><time>2026-03-29T07:14:48.017Z</time></trkpt><trkpt lat="45.54431367161578" lon="10.841988464032799"><ele>432.2857142857143</ele><time>2026-03-29T07:14:51.017Z</time></trkpt><trkpt lat="45.5443928814621" lon="10.842012481776637"><ele>432.1428571428571</ele><time>2026-03-29T07:14:54.017Z</time></trkpt><trkpt lat="45.54446576560552" lon="10.842032281913278"><ele>432.0</ele><time>2026-03-29T07:14:57.017Z</time></trkpt><trkpt lat="45.54454318359219" lon="10.842050802613215"><ele>431.57142857142856</ele><time>2026-03-29T07:15:00.017Z</time></trkpt><trkpt lat="45.54461176616551" lon="10.842094810709202"><ele>431.1428571428571</ele><time>2026-03-29T07:15:03.017Z</time></trkpt><trkpt lat="45.5446913785478" lon="10.842116278608584"><ele>430.7142857142857</ele><time>2026-03-29T07:15:06.017Z</time></trkpt><trkpt lat="45.544755763129274" lon="10.842147625172322"><ele>430.2857142857143</ele><time>2026-03-29T07:15:09.016Z</time></trkpt><trkpt lat="45.54481979413458" lon="10.842195549060165"><ele>429.8571428571429</ele><time>2026-03-29T07:15:12.016Z</time></trkpt><trkpt lat="45.544882578623785" lon="10.842238969778588"><ele>429.42857142857144</ele><time>2026-03-29T07:15:15.016Z</time></trkpt><trkpt lat="45.544950321625656" lon="10.842293236001618"><ele>429.0</ele><time>2026-03-29T07:15:18.016Z</time></trkpt><trkpt lat="45.545019683080916" lon="10.842328829761117"><ele>429.0</ele><time>2026-03-29T07:15:21.016Z</time></trkpt><trkpt lat="45.54508401323732" lon="10.842350742920377"><ele>429.0</ele><time>2026-03-29T07:15:24.016Z</time></trkpt><trkpt lat="45.54516101304316" lon="10.842382073096873"><ele>429.0</ele><time>2026-03-29T07:15:27.016Z</time></trkpt><trkpt lat="45.5452327847458" lon="10.842443613422255"><ele>429.0</ele><time>2026-03-29T07:15:30.016Z</time></trkpt><trkpt lat="45.54530325660478" lon="10.842515873615023"><ele>429.0</ele><time>2026-03-29T07:15:33.016Z</time></trkpt><trkpt lat="45.545375767983735" lon="10.84256508691594"><ele>429.0</ele><time>2026-03-29T07:15:36.016Z</time></trkpt><trkpt lat="45.545447296649954" lon="10.842616378062573"><ele>430.3333333333333</ele><time>2026-03-29T07:15:39.016Z</time></trkpt><trkpt lat="45.54550945796561" lon="10.8426883369897"><ele>431.66666666666663</ele><time>2026-03-29T07:15:42.016Z</time></trkpt><trkpt lat="45.54558603464081" lon="10.842739917655633"><ele>433.0</ele><time>2026-03-29T07:15:45.016Z</time></trkpt><trkpt lat="45.54566265189867" lon="10.8427720115435"><ele>434.3333333333333</ele><time>2026-03-29T07:15:49.016Z</time></trkpt><trkpt lat="45.545737267442206" lon="10.842801707727126"><ele>435.66666666666663</ele><time>2026-03-29T07:15:52.016Z</time></trkpt><trkpt lat="45.545802144416164" lon="10.842837794325265"><ele>437.0</ele><time>2026-03-29T07:15:55.016Z</time></trkpt><trkpt lat="45.545876666580654" lon="10.842858515430498"><ele>437.0</ele><time>2026-03-29T07:15:58.015Z</time></trkpt><trkpt lat="45.54595888933486" lon="10.842880222227471"><ele>437.0</ele><time>2026-03-29T07:16:01.015Z</time></trkpt><trkpt lat="45.5460390365967" lon="10.842875244443894"><ele>437.0</ele><time>2026-03-29T07:16:04.015Z</time></trkpt><trkpt lat="45.5461745390474" lon="10.842886886204765"><ele>437.0</ele><time>2026-03-29T07:16:09.015Z</time></trkpt><trkpt lat="45.54636072211075" lon="10.842877430301515"><ele>436.66666666666663</ele><time>2026-03-29T07:16:16.015Z</time></trkpt><trkpt lat="45.546463349478024" lon="10.842853116193698"><ele>436.3333333333333</ele><time>2026-03-29T07:16:20.015Z</time></trkpt><trkpt lat="45.54653752216065" lon="10.84283285139358"><ele>436.0</ele><time>2026-03-29T07:16:23.015Z</time></trkpt><trkpt lat="45.54660609932112" lon="10.842809728960647"><ele>435.66666666666663</ele><time>2026-03-29T07:16:26.015Z</time></trkpt><trkpt lat="45.54667392849817" lon="10.842775058792652"><ele>435.3333333333333</ele><time>2026-03-29T07:16:29.015Z</time></trkpt><trkpt lat="45.5467547395805" lon="10.842739959620035"><ele>435.0</ele><time>2026-03-29T07:16:32.015Z</time></trkpt><trkpt lat="45.546826126530014" lon="10.842706724042658"><ele>435.0</ele><time>2026-03-29T07:16:35.015Z</time></trkpt><trkpt lat="45.54691249535883" lon="10.842677379328633"><ele>435.0</ele><time>2026-03-29T07:16:38.015Z</time></trkpt><trkpt lat="45.54697861320636" lon="10.84265304679067"><ele>435.0</ele><time>2026-03-29T07:16:40.015Z</time></trkpt><trkpt lat="45.547214108542185" lon="10.84263887501283"><ele>435.0</ele><time>2026-03-29T07:16:48.017Z</time></trkpt><trkpt lat="45.54731595339287" lon="10.842649130497927"><ele>434.3333333333333</ele><time>2026-03-29T07:16:51.017Z</time></trkpt><trkpt lat="45.54739210900965" lon="10.842664108676514"><ele>433.66666666666663</ele><time>2026-03-29T07:16:54.017Z</time></trkpt><trkpt lat="45.54747285456763" lon="10.842683063379308"><ele>433.0</ele><time>2026-03-29T07:16:57.017Z</time></trkpt><trkpt lat="45.54756918603913" lon="10.84269943657357"><ele>432.3333333333333</ele><time>2026-03-29T07:17:00.018Z</time></trkpt><trkpt lat="45.5476339452359" lon="10.84275009923976"><ele>431.66666666666663</ele><time>2026-03-29T07:17:02.018Z</time></trkpt><trkpt lat="45.54766849312737" lon="10.842826904996516"><ele>431.0</ele><time>2026-03-29T07:17:06.017Z</time></trkpt><trkpt lat="45.54764256624484" lon="10.842922534206478"><ele>431.0</ele><time>2026-03-29T07:17:13.017Z</time></trkpt><trkpt lat="45.54759430539354" lon="10.842999152720074"><ele>431.0</ele><time>2026-03-29T07:17:18.017Z</time></trkpt><trkpt lat="45.54752274127764" lon="10.843045595547702"><ele>431.0</ele><time>2026-03-29T07:17:22.017Z</time></trkpt><trkpt lat="45.54745061920931" lon="10.843066669589897"><ele>431.0</ele><time>2026-03-29T07:17:26.017Z</time></trkpt><trkpt lat="45.54737089753232" lon="10.843090049025434"><ele>431.0</ele><time>2026-03-29T07:17:30.017Z</time></trkpt><trkpt lat="45.5473011340854" lon="10.843108132627199"><ele>431.0</ele><time>2026-03-29T07:17:33.017Z</time></trkpt><trkpt lat="45.54722881394221" lon="10.843113323418637"><ele>431.0</ele><time>2026-03-29T07:17:36.017Z</time></trkpt><trkpt lat="45.54716164876106" lon="10.843141425846097"><ele>430.99999999999994</ele><time>2026-03-29T07:17:39.017Z</time></trkpt><trkpt lat="45.54708696842031" lon="10.843148274922507"><ele>431.0</ele><time>2026-03-29T07:17:42.017Z</time></trkpt><trkpt lat="45.54700746100333" lon="10.84315605170686"><ele>431.0</ele><time>2026-03-29T07:17:45.017Z</time></trkpt><trkpt lat="45.54692190315713" lon="10.843162553615404"><ele>431.0</ele><time>2026-03-29T07:17:48.017Z</time></trkpt><trkpt lat="45.54685489771274" lon="10.843192944035538"><ele>430.99999999999994</ele><time>2026-03-29T07:17:51.016Z</time></trkpt><trkpt lat="45.546768372422655" lon="10.843208701521569"><ele>431.0</ele><time>2026-03-29T07:17:54.016Z</time></trkpt><trkpt lat="45.54669381403401" lon="10.843234690050643"><ele>431.66666666666663</ele><time>2026-03-29T07:17:57.016Z</time></trkpt><trkpt lat="45.546612223039475" lon="10.843247594263907"><ele>432.3333333333333</ele><time>2026-03-29T07:18:00.016Z</time></trkpt><trkpt lat="45.54654462958194" lon="10.843268199615784"><ele>433.0</ele><time>2026-03-29T07:18:03.016Z</time></trkpt><trkpt lat="45.546470235264685" lon="10.843296293036383"><ele>433.66666666666663</ele><time>2026-03-29T07:18:06.016Z</time></trkpt><trkpt lat="45.546393452024105" lon="10.843311514317662"><ele>434.3333333333333</ele><time>2026-03-29T07:18:09.016Z</time></trkpt><trkpt lat="45.54630803206499" lon="10.843336067081527"><ele>435.0</ele><time>2026-03-29T07:18:12.016Z</time></trkpt><trkpt lat="45.54622764991495" lon="10.843371708826032"><ele>435.28571428571433</ele><time>2026-03-29T07:18:15.016Z</time></trkpt><trkpt lat="45.5461562244389" lon="10.843385528069156"><ele>435.57142857142856</ele><time>2026-03-29T07:18:18.016Z</time></trkpt><trkpt lat="45.54609125618983" lon="10.843418476268916"><ele>435.8571428571429</ele><time>2026-03-29T07:18:21.016Z</time></trkpt><trkpt lat="45.54602503086444" lon="10.84343956428433"><ele>436.14285714285717</ele><time>2026-03-29T07:18:24.016Z</time></trkpt><trkpt lat="45.54595123973562" lon="10.843446107489685"><ele>436.42857142857144</ele><time>2026-03-29T07:18:27.016Z</time></trkpt><trkpt lat="45.545888299765686" lon="10.843441670749721"><ele>436.7142857142857</ele><time>2026-03-29T07:18:30.016Z</time></trkpt><trkpt lat="45.545820658196476" lon="10.843424383959531"><ele>437.0</ele><time>2026-03-29T07:18:33.016Z</time></trkpt><trkpt lat="45.54573934575035" lon="10.843397028928914"><ele>436.99999999999994</ele><time>2026-03-29T07:18:36.016Z</time></trkpt><trkpt lat="45.54566400710897" lon="10.84336940303868"><ele>437.0</ele><time>2026-03-29T07:18:39.015Z</time></trkpt><trkpt lat="45.54558919067035" lon="10.843345422445903"><ele>437.0</ele><time>2026-03-29T07:18:42.015Z</time></trkpt><trkpt lat="45.54551085905108" lon="10.843299069047815"><ele>437.0</ele><time>2026-03-29T07:18:45.015Z</time></trkpt><trkpt lat="45.54543503417185" lon="10.843255608529251"><ele>436.99999999999994</ele><time>2026-03-29T07:18:48.015Z</time></trkpt><trkpt lat="45.545358773196874" lon="10.843223851807025"><ele>437.0</ele><time>2026-03-29T07:18:51.015Z</time></trkpt><trkpt lat="45.5452771196396" lon="10.84324675502069"><ele>437.0</ele><time>2026-03-29T07:18:54.018Z</time></trkpt><trkpt lat="45.54533445622387" lon="10.843287062266011"><ele>437.0</ele><time>2026-03-29T07:19:08.017Z</time></trkpt><trkpt lat="45.54539724961338" lon="10.843317934814866"><ele>437.0</ele><time>2026-03-29T07:19:12.017Z</time></trkpt><trkpt lat="45.54545899942876" lon="10.843381619549373"><ele>437.0</ele><time>2026-03-29T07:19:16.017Z</time></trkpt><trkpt lat="45.545516670719394" lon="10.843464144816792"><ele>437.0</ele><time>2026-03-29T07:19:20.017Z</time></trkpt><trkpt lat="45.54556869140542" lon="10.843523077699286"><ele>437.0</ele><time>2026-03-29T07:19:23.017Z</time></trkpt><trkpt lat="45.54561547928604" lon="10.843593450174623"><ele>437.0</ele><time>2026-03-29T07:19:27.017Z</time></trkpt><trkpt lat="45.54568047296244" lon="10.843663768605866"><ele>439.0</ele><time>2026-03-29T07:19:31.017Z</time></trkpt><trkpt lat="45.545737027629436" lon="10.843716164055548"><ele>441.0</ele><time>2026-03-29T07:19:34.017Z</time></trkpt><trkpt lat="45.54579894214159" lon="10.843769317440511"><ele>443.0</ele><time>2026-03-29T07:19:37.017Z</time></trkpt><trkpt lat="45.5458548870868" lon="10.843814241588612"><ele>445.0</ele><time>2026-03-29T07:19:40.017Z</time></trkpt><trkpt lat="45.545915646421" lon="10.843885159336509"><ele>447.0</ele><time>2026-03-29T07:19:43.017Z</time></trkpt><trkpt lat="45.545978059293134" lon="10.843945612882992"><ele>449.0</ele><time>2026-03-29T07:19:48.016Z</time></trkpt><trkpt lat="45.54605646715046" lon="10.844002784540393"><ele>451.0</ele><time>2026-03-29T07:19:52.016Z</time></trkpt><trkpt lat="45.5461278143603" lon="10.844057316499052"><ele>450.50000000000006</ele><time>2026-03-29T07:19:55.016Z</time></trkpt><trkpt lat="45.546239697767724" lon="10.844077297644068"><ele>450.0</ele><time>2026-03-29T07:20:01.016Z</time></trkpt><trkpt lat="45.54630842370203" lon="10.844128059044625"><ele>449.5</ele><time>2026-03-29T07:20:06.016Z</time></trkpt><trkpt lat="45.54636584475054" lon="10.844186087839052"><ele>449.0</ele><time>2026-03-29T07:20:09.016Z</time></trkpt><trkpt lat="45.54641023190083" lon="10.844256122709629"><ele>448.50000000000006</ele><time>2026-03-29T07:20:12.016Z</time></trkpt><trkpt lat="45.54647089058652" lon="10.844325734876982"><ele>448.0</ele><time>2026-03-29T07:20:18.016Z</time></trkpt><trkpt lat="45.54654191310927" lon="10.844355107812545"><ele>450.59999999999997</ele><time>2026-03-29T07:20:22.016Z</time></trkpt><trkpt lat="45.54661579688605" lon="10.844396645297053"><ele>453.19999999999993</ele><time>2026-03-29T07:20:26.016Z</time></trkpt><trkpt lat="45.54669278797812" lon="10.844449778365844"><ele>455.8</ele><time>2026-03-29T07:20:30.016Z</time></trkpt><trkpt lat="45.54676319107306" lon="10.84450271088201"><ele>458.4</ele><time>2026-03-29T07:20:33.016Z</time></trkpt><trkpt lat="45.54689768066751" lon="10.844520858594475"><ele>461.0</ele><time>2026-03-29T07:20:40.015Z</time></trkpt><trkpt lat="45.54697016815017" lon="10.844557525153771"><ele>460.99999999999994</ele><time>2026-03-29T07:20:44.015Z</time></trkpt><trkpt lat="45.547040203087896" lon="10.844585142650933"><ele>461.0</ele><time>2026-03-29T07:20:48.015Z</time></trkpt><trkpt lat="45.547108937112945" lon="10.844623877870696"><ele>461.0</ele><time>2026-03-29T07:20:52.015Z</time></trkpt><trkpt lat="45.54716568606956" lon="10.844742175218215"><ele>461.0</ele><time>2026-03-29T07:20:56.015Z</time></trkpt><trkpt lat="45.54722496024128" lon="10.84480442021669"><ele>460.99999999999994</ele><time>2026-03-29T07:20:59.015Z</time></trkpt><trkpt lat="45.54728850192349" lon="10.844864952013676"><ele>461.0</ele><time>2026-03-29T07:21:02.018Z</time></trkpt><trkpt lat="45.547363648512224" lon="10.844892661386384"><ele>460.16666666666663</ele><time>2026-03-29T07:21:05.018Z</time></trkpt><trkpt lat="45.547435601861494" lon="10.844893461354406"><ele>459.3333333333333</ele><time>2026-03-29T07:21:08.018Z</time></trkpt><trkpt lat="45.54755757494383" lon="10.8448840478999"><ele>458.5</ele><time>2026-03-29T07:21:13.018Z</time></trkpt><trkpt lat="45.54763758890986" lon="10.84487741554092"><ele>457.66666666666663</ele><time>2026-03-29T07:21:17.018Z</time></trkpt><trkpt lat="45.54772146982962" lon="10.844884849521284"><ele>456.8333333333333</ele><time>2026-03-29T07:21:20.018Z</time></trkpt><trkpt lat="45.54780390991261" lon="10.844907258355695"><ele>456.0</ele><time>2026-03-29T07:21:23.018Z</time></trkpt><trkpt lat="45.54786662018815" lon="10.844917936046263"><ele>455.2857142857143</ele><time>2026-03-29T07:21:25.018Z</time></trkpt><trkpt lat="45.54794743986277" lon="10.84494741624461"><ele>454.57142857142856</ele><time>2026-03-29T07:21:28.018Z</time></trkpt><trkpt lat="45.54801554796418" lon="10.844965122365945"><ele>453.85714285714283</ele><time>2026-03-29T07:21:31.018Z</time></trkpt><trkpt lat="45.54808060887462" lon="10.844996601882649"><ele>453.1428571428571</ele><time>2026-03-29T07:21:34.018Z</time></trkpt><trkpt lat="45.54816407160816" lon="10.845046079228386"><ele>452.42857142857144</ele><time>2026-03-29T07:21:38.018Z</time></trkpt><trkpt lat="45.54822559606747" lon="10.845080187079901"><ele>451.71428571428567</ele><time>2026-03-29T07:21:41.018Z</time></trkpt><trkpt lat="45.54828740602255" lon="10.845116727978885"><ele>451.0</ele><time>2026-03-29T07:21:44.018Z</time></trkpt><trkpt lat="45.54835881046437" lon="10.845159012534415"><ele>453.0</ele><time>2026-03-29T07:21:48.017Z</time></trkpt><trkpt lat="45.548363159688236" lon="10.845255370636295"><ele>455.0</ele><time>2026-03-29T07:21:57.017Z</time></trkpt><trkpt lat="45.548294726577225" lon="10.845314660706027"><ele>457.0</ele><time>2026-03-29T07:22:02.017Z</time></trkpt><trkpt lat="45.548223761353086" lon="10.845385227368766"><ele>459.0</ele><time>2026-03-29T07:22:06.017Z</time></trkpt><trkpt lat="45.548172414799765" lon="10.845451227068407"><ele>461.0</ele><time>2026-03-29T07:22:09.017Z</time></trkpt><trkpt lat="45.54811123148008" lon="10.845483450021696"><ele>463.0</ele><time>2026-03-29T07:22:12.017Z</time></trkpt><trkpt lat="45.54805268627157" lon="10.845524902035667"><ele>465.0</ele><time>2026-03-29T07:22:15.017Z</time></trkpt><trkpt lat="45.547988940284284" lon="10.845574204861402"><ele>465.0</ele><time>2026-03-29T07:22:19.017Z</time></trkpt><trkpt lat="45.54791240949762" lon="10.845606587437166"><ele>465.0</ele><time>2026-03-29T07:22:22.017Z</time></trkpt><trkpt lat="45.54783218709059" lon="10.845643047218912"><ele>465.0</ele><time>2026-03-29T07:22:25.017Z</time></trkpt><trkpt lat="45.54775865956437" lon="10.845662365845378"><ele>465.0</ele><time>2026-03-29T07:22:28.017Z</time></trkpt><trkpt lat="45.547671071260375" lon="10.845665072585565"><ele>465.0</ele><time>2026-03-29T07:22:31.017Z</time></trkpt><trkpt lat="45.54759893508738" lon="10.845668887540223"><ele>465.0</ele><time>2026-03-29T07:22:34.016Z</time></trkpt><trkpt lat="45.54751715878712" lon="10.845672469847022"><ele>465.71428571428567</ele><time>2026-03-29T07:22:37.016Z</time></trkpt><trkpt lat="45.54742811185182" lon="10.84565508879029"><ele>466.42857142857144</ele><time>2026-03-29T07:22:40.016Z</time></trkpt><trkpt lat="45.547377331064986" lon="10.845589045686067"><ele>467.1428571428571</ele><time>2026-03-29T07:22:43.015Z</time></trkpt><trkpt lat="45.547328802386396" lon="10.845514584411154"><ele>467.85714285714283</ele><time>2026-03-29T07:22:46.014Z</time></trkpt><trkpt lat="45.547268177546485" lon="10.845450666227288"><ele>468.57142857142856</ele><time>2026-03-29T07:22:50.013Z</time></trkpt><trkpt lat="45.54720057147694" lon="10.845448300981205"><ele>469.2857142857143</ele><time>2026-03-29T07:22:53.012Z</time></trkpt><trkpt lat="45.547139574528025" lon="10.84542144053076"><ele>470.0</ele><time>2026-03-29T07:22:56.011Z</time></trkpt><trkpt lat="45.54706700089573" lon="10.845400862657137"><ele>471.0</ele><time>2026-03-29T07:23:00.01Z</time></trkpt><trkpt lat="45.54699374878004" lon="10.845366632368554"><ele>471.99999999999994</ele><time>2026-03-29T07:23:04.01Z</time></trkpt><trkpt lat="45.54693581355159" lon="10.845326474373605"><ele>473.0</ele><time>2026-03-29T07:23:07.012Z</time></trkpt><trkpt lat="45.54687152568148" lon="10.84532269797533"><ele>474.0</ele><time>2026-03-29T07:23:10.012Z</time></trkpt><trkpt lat="45.54680355559853" lon="10.845279024731623"><ele>474.99999999999994</ele><time>2026-03-29T07:23:13.012Z</time></trkpt><trkpt lat="45.546739930282776" lon="10.84523945462059"><ele>476.0</ele><time>2026-03-29T07:23:16.011Z</time></trkpt><trkpt lat="45.54669185758015" lon="10.845155075704042"><ele>477.0</ele><time>2026-03-29T07:23:21.01Z</time></trkpt><trkpt lat="45.5466441390749" lon="10.845063942583586"><ele>475.1428571428571</ele><time>2026-03-29T07:23:24.01Z</time></trkpt><trkpt lat="45.546561960598446" lon="10.845050680842688"><ele>473.2857142857142</ele><time>2026-03-29T07:23:28.01Z</time></trkpt><trkpt lat="45.54648167461413" lon="10.845062914178945"><ele>471.42857142857144</ele><time>2026-03-29T07:23:32.01Z</time></trkpt><trkpt lat="45.54641337370425" lon="10.84506782423855"><ele>469.57142857142856</ele><time>2026-03-29T07:23:35.01Z</time></trkpt><trkpt lat="45.54634261458728" lon="10.84506735908831"><ele>467.7142857142857</ele><time>2026-03-29T07:23:38.01Z</time></trkpt><trkpt lat="45.54627810419819" lon="10.845080635137698"><ele>465.8571428571429</ele><time>2026-03-29T07:23:41.009Z</time></trkpt><trkpt lat="45.54620260021306" lon="10.845078334975149"><ele>464.00000000000006</ele><time>2026-03-29T07:23:44.009Z</time></trkpt><trkpt lat="45.54613133401458" lon="10.845083148197611"><ele>464.00000000000006</ele><time>2026-03-29T07:23:47.009Z</time></trkpt><trkpt lat="45.54606255628969" lon="10.845095030485265"><ele>464.0</ele><time>2026-03-29T07:23:51.009Z</time></trkpt><trkpt lat="45.545997836476715" lon="10.845111076909587"><ele>464.00000000000006</ele><time>2026-03-29T07:23:55.009Z</time></trkpt><trkpt lat="45.545930520228325" lon="10.845141162036"><ele>464.00000000000006</ele><time>2026-03-29T07:23:59.009Z</time></trkpt><trkpt lat="45.54586500319981" lon="10.845198925472124"><ele>464.0</ele><time>2026-03-29T07:24:04.009Z</time></trkpt><trkpt lat="45.54579285723854" lon="10.84521061412429"><ele>464.00000000000006</ele><time>2026-03-29T07:24:12.009Z</time></trkpt><trkpt lat="45.54571487151144" lon="10.845259763489125"><ele>464.00000000000006</ele><time>2026-03-29T07:24:17.008Z</time></trkpt><trkpt lat="45.545641985554745" lon="10.845272272212917"><ele>466.8333333333333</ele><time>2026-03-29T07:24:22.008Z</time></trkpt><trkpt lat="45.545578686940964" lon="10.845286630032314"><ele>469.66666666666663</ele><time>2026-03-29T07:24:25.008Z</time></trkpt><trkpt lat="45.54549609704506" lon="10.845309483455152"><ele>472.5</ele><time>2026-03-29T07:24:29.008Z</time></trkpt><trkpt lat="45.545421233677445" lon="10.845330373267814"><ele>475.33333333333337</ele><time>2026-03-29T07:24:32.008Z</time></trkpt><trkpt lat="45.545341303976066" lon="10.845347815235499"><ele>478.1666666666667</ele><time>2026-03-29T07:24:35.008Z</time></trkpt><trkpt lat="45.54526498037359" lon="10.845370448800765"><ele>481.0</ele><time>2026-03-29T07:24:38.008Z</time></trkpt><trkpt lat="45.545203108840944" lon="10.84541929614111"><ele>481.5714285714285</ele><time>2026-03-29T07:24:41.008Z</time></trkpt><trkpt lat="45.545139480303774" lon="10.845432500650725"><ele>482.1428571428571</ele><time>2026-03-29T07:24:44.008Z</time></trkpt><trkpt lat="45.54507329258307" lon="10.845432275026281"><ele>482.7142857142857</ele><time>2026-03-29T07:24:47.008Z</time></trkpt><trkpt lat="45.54500356427675" lon="10.845436728348549"><ele>483.2857142857143</ele><time>2026-03-29T07:24:50.008Z</time></trkpt><trkpt lat="45.54492317523701" lon="10.845451959507754"><ele>483.8571428571429</ele><time>2026-03-29T07:24:53.008Z</time></trkpt><trkpt lat="45.54485351917173" lon="10.84548215430162"><ele>484.4285714285715</ele><time>2026-03-29T07:24:56.008Z</time></trkpt><trkpt lat="45.54478354957776" lon="10.84549097885487"><ele>485.00000000000006</ele><time>2026-03-29T07:24:59.008Z</time></trkpt><trkpt lat="45.54471064700201" lon="10.84551015574048"><ele>485.00000000000006</ele><time>2026-03-29T07:25:02.007Z</time></trkpt><trkpt lat="45.54464836217317" lon="10.845531309553904"><ele>485.0</ele><time>2026-03-29T07:25:05.007Z</time></trkpt><trkpt lat="45.54458585201977" lon="10.845546975859886"><ele>485.00000000000006</ele><time>2026-03-29T07:25:08.007Z</time></trkpt><trkpt lat="45.54450386788107" lon="10.845554910832684"><ele>485.00000000000006</ele><time>2026-03-29T07:25:12.011Z</time></trkpt><trkpt lat="45.54443888441637" lon="10.845559778274554"><ele>485.0</ele><time>2026-03-29T07:25:16.011Z</time></trkpt><trkpt lat="45.54436568084871" lon="10.845577286609295"><ele>485.00000000000006</ele><time>2026-03-29T07:25:20.011Z</time></trkpt><trkpt lat="45.54430130117582" lon="10.845584961179922"><ele>485.00000000000006</ele><time>2026-03-29T07:25:24.01Z</time></trkpt><trkpt lat="45.544239290513055" lon="10.845602240303073"><ele>485.7142857142858</ele><time>2026-03-29T07:25:28.01Z</time></trkpt><trkpt lat="45.54415640378602" lon="10.84560524351388"><ele>486.42857142857144</ele><time>2026-03-29T07:25:33.01Z</time></trkpt><trkpt lat="45.544078959632465" lon="10.845601671198924"><ele>487.14285714285717</ele><time>2026-03-29T07:25:37.01Z</time></trkpt><trkpt lat="45.544006318443756" lon="10.845601763550535"><ele>487.8571428571429</ele><time>2026-03-29T07:25:40.01Z</time></trkpt><trkpt lat="45.54393340476673" lon="10.845619228813362"><ele>488.57142857142856</ele><time>2026-03-29T07:25:43.009Z</time></trkpt><trkpt lat="45.543864670110494" lon="10.845620513661226"><ele>489.2857142857143</ele><time>2026-03-29T07:25:46.009Z</time></trkpt><trkpt lat="45.54379879932581" lon="10.84562406847906"><ele>490.0</ele><time>2026-03-29T07:25:49.009Z</time></trkpt><trkpt lat="45.54371683753061" lon="10.845648707136165"><ele>490.2857142857143</ele><time>2026-03-29T07:25:53.009Z</time></trkpt><trkpt lat="45.54365818481365" lon="10.845697940006957"><ele>490.57142857142856</ele><time>2026-03-29T07:25:57.009Z</time></trkpt><trkpt lat="45.543601871788006" lon="10.845748180534665"><ele>490.8571428571429</ele><time>2026-03-29T07:26:04.009Z</time></trkpt><trkpt lat="45.54358607401934" lon="10.845849997827731"><ele>491.14285714285717</ele><time>2026-03-29T07:26:11.009Z</time></trkpt><trkpt lat="45.54358528712674" lon="10.84595605679341"><ele>491.42857142857144</ele><time>2026-03-29T07:26:18.009Z</time></trkpt><trkpt lat="45.54357861660395" lon="10.846052576798346"><ele>491.7142857142858</ele><time>2026-03-29T07:26:26.009Z</time></trkpt><trkpt lat="45.54354702956839" lon="10.84614405291265"><ele>492.00000000000006</ele><time>2026-03-29T07:26:33.008Z</time></trkpt><trkpt lat="45.54352333981392" lon="10.846232555161052"><ele>492.7142857142858</ele><time>2026-03-29T07:26:41.008Z</time></trkpt><trkpt lat="45.5435381380826" lon="10.846320539753664"><ele>493.42857142857144</ele><time>2026-03-29T07:26:47.008Z</time></trkpt><trkpt lat="45.543577981117785" lon="10.846399033716638"><ele>494.14285714285717</ele><time>2026-03-29T07:26:52.008Z</time></trkpt><trkpt lat="45.543653013021206" lon="10.846452060403534"><ele>494.8571428571429</ele><time>2026-03-29T07:26:57.008Z</time></trkpt><trkpt lat="45.54372986786751" lon="10.846483938751017"><ele>495.57142857142856</ele><time>2026-03-29T07:27:01.008Z</time></trkpt><trkpt lat="45.543792028588705" lon="10.846508114897771"><ele>496.2857142857143</ele><time>2026-03-29T07:27:04.008Z</time></trkpt><trkpt lat="45.543859023593726" lon="10.846524632326828"><ele>497.0</ele><time>2026-03-29T07:27:07.008Z</time></trkpt><trkpt lat="45.543929324194046" lon="10.846535803281489"><ele>497.42857142857144</ele><time>2026-03-29T07:27:10.008Z</time></trkpt><trkpt lat="45.54400386732777" lon="10.846544273896964"><ele>497.8571428571429</ele><time>2026-03-29T07:27:13.007Z</time></trkpt><trkpt lat="45.54407049021916" lon="10.846554073648127"><ele>498.2857142857143</ele><time>2026-03-29T07:27:16.007Z</time></trkpt><trkpt lat="45.544141688708116" lon="10.846576920068488"><ele>498.7142857142857</ele><time>2026-03-29T07:27:19.01Z</time></trkpt><trkpt lat="45.54421528849087" lon="10.846584880396481"><ele>499.14285714285717</ele><time>2026-03-29T07:27:22.01Z</time></trkpt><trkpt lat="45.54428424015106" lon="10.846616689741055"><ele>499.57142857142856</ele><time>2026-03-29T07:27:25.011Z</time></trkpt><trkpt lat="45.54433829182182" lon="10.846701773852374"><ele>500.0</ele><time>2026-03-29T07:27:28.01Z</time></trkpt><trkpt lat="45.544390909882644" lon="10.846766135565145"><ele>501.16666666666663</ele><time>2026-03-29T07:27:31.01Z</time></trkpt><trkpt lat="45.54447486055436" lon="10.846796265208216"><ele>502.3333333333333</ele><time>2026-03-29T07:27:34.01Z</time></trkpt><trkpt lat="45.5445554303753" lon="10.846825335279476"><ele>503.5</ele><time>2026-03-29T07:27:37.01Z</time></trkpt><trkpt lat="45.54463075168767" lon="10.846840453915803"><ele>504.66666666666663</ele><time>2026-03-29T07:27:40.01Z</time></trkpt><trkpt lat="45.5447390480507" lon="10.84687062368021"><ele>505.8333333333333</ele><time>2026-03-29T07:27:44.01Z</time></trkpt><trkpt lat="45.54482172244504" lon="10.84689972448311"><ele>507.0</ele><time>2026-03-29T07:27:47.01Z</time></trkpt><trkpt lat="45.54489580885967" lon="10.846938376506738"><ele>507.3333333333333</ele><time>2026-03-29T07:27:50.01Z</time></trkpt><trkpt lat="45.544947411136874" lon="10.847004250507368"><ele>507.66666666666663</ele><time>2026-03-29T07:27:53.01Z</time></trkpt><trkpt lat="45.544977301305934" lon="10.847106461406243"><ele>508.0</ele><time>2026-03-29T07:27:57.01Z</time></trkpt><trkpt lat="45.545006643259626" lon="10.847234611404815"><ele>508.3333333333333</ele><time>2026-03-29T07:28:05.01Z</time></trkpt><trkpt lat="45.54504072873135" lon="10.847317169291351"><ele>508.66666666666663</ele><time>2026-03-29T07:28:09.01Z</time></trkpt><trkpt lat="45.54502577993376" lon="10.847422809351732"><ele>509.0</ele><time>2026-03-29T07:28:13.009Z</time></trkpt><trkpt lat="45.545036026894785" lon="10.847527887634433"><ele>510.71428571428567</ele><time>2026-03-29T07:28:17.009Z</time></trkpt><trkpt lat="45.54502888157362" lon="10.847631856684925"><ele>512.4285714285714</ele><time>2026-03-29T07:28:21.009Z</time></trkpt><trkpt lat="45.54502584917701" lon="10.84775608187745"><ele>514.1428571428571</ele><time>2026-03-29T07:28:26.009Z</time></trkpt><trkpt lat="45.54501643203632" lon="10.847854077380081"><ele>515.8571428571429</ele><time>2026-03-29T07:28:30.009Z</time></trkpt><trkpt lat="45.54500355921593" lon="10.847946922054618"><ele>517.5714285714286</ele><time>2026-03-29T07:28:34.009Z</time></trkpt><trkpt lat="45.54499736256807" lon="10.848039436341566"><ele>519.2857142857142</ele><time>2026-03-29T07:28:38.009Z</time></trkpt><trkpt lat="45.54498494543194" lon="10.848143676869185"><ele>521.0</ele><time>2026-03-29T07:28:42.009Z</time></trkpt><trkpt lat="45.544977679082805" lon="10.848248667362462"><ele>521.0</ele><time>2026-03-29T07:28:49.009Z</time></trkpt><trkpt lat="45.545015535075876" lon="10.848325896226955"><ele>521.0</ele><time>2026-03-29T07:28:57.008Z</time></trkpt><trkpt lat="45.54508164426796" lon="10.848364796621865"><ele>521.0</ele><time>2026-03-29T07:29:04.008Z</time></trkpt><trkpt lat="45.5451416317123" lon="10.848401482589242"><ele>521.0</ele><time>2026-03-29T07:29:08.008Z</time></trkpt><trkpt lat="45.54521151211538" lon="10.848439472102726"><ele>521.0</ele><time>2026-03-29T07:29:12.008Z</time></trkpt><trkpt lat="45.54528428511211" lon="10.848474923484961"><ele>521.0</ele><time>2026-03-29T07:29:16.008Z</time></trkpt><trkpt lat="45.54535283931395" lon="10.848500437816446"><ele>521.0</ele><time>2026-03-29T07:29:19.008Z</time></trkpt><trkpt lat="45.545423853713146" lon="10.84852262943965"><ele>523.8333333333333</ele><time>2026-03-29T07:29:23.008Z</time></trkpt><trkpt lat="45.54549134055814" lon="10.848559158966891"><ele>526.6666666666666</ele><time>2026-03-29T07:29:27.011Z</time></trkpt><trkpt lat="45.54557054482034" lon="10.848592726523846"><ele>529.5</ele><time>2026-03-29T07:29:32.01Z</time></trkpt><trkpt lat="45.54564478177753" lon="10.848609189871201"><ele>532.3333333333334</ele><time>2026-03-29T07:29:36.01Z</time></trkpt><trkpt lat="45.54572466392043" lon="10.848610082705198"><ele>535.1666666666667</ele><time>2026-03-29T07:29:40.01Z</time></trkpt><trkpt lat="45.54579709124169" lon="10.848615520407137"><ele>538.0</ele><time>2026-03-29T07:29:44.01Z</time></trkpt><trkpt lat="45.54596892051035" lon="10.848615055744505"><ele>538.0</ele><time>2026-03-29T07:29:54.01Z</time></trkpt><trkpt lat="45.54603751169451" lon="10.848635485711648"><ele>538.0</ele><time>2026-03-29T07:29:58.01Z</time></trkpt><trkpt lat="45.54611042469308" lon="10.848646480088256"><ele>538.0</ele><time>2026-03-29T07:30:02.01Z</time></trkpt><trkpt lat="45.54617544183889" lon="10.848673196371967"><ele>538.0</ele><time>2026-03-29T07:30:05.01Z</time></trkpt><trkpt lat="45.54624796990489" lon="10.84872465635775"><ele>538.0</ele><time>2026-03-29T07:30:09.01Z</time></trkpt><trkpt lat="45.54631812595783" lon="10.848761405986936"><ele>538.0</ele><time>2026-03-29T07:30:13.01Z</time></trkpt><trkpt lat="45.54637665003832" lon="10.848817841494279"><ele>538.0</ele><time>2026-03-29T07:30:17.01Z</time></trkpt><trkpt lat="45.54643438678647" lon="10.848855805087057"><ele>538.8333333333334</ele><time>2026-03-29T07:30:20.009Z</time></trkpt><trkpt lat="45.54650493281728" lon="10.848906104411315"><ele>539.6666666666667</ele><time>2026-03-29T07:30:24.009Z</time></trkpt><trkpt lat="45.546569155800434" lon="10.848967719550801"><ele>540.5</ele><time>2026-03-29T07:30:28.009Z</time></trkpt><trkpt lat="45.54663827175899" lon="10.848991515131246"><ele>541.3333333333334</ele><time>2026-03-29T07:30:32.009Z</time></trkpt><trkpt lat="45.546731897009735" lon="10.84900205622954"><ele>542.1666666666666</ele><time>2026-03-29T07:30:37.009Z</time></trkpt><trkpt lat="45.546794158612094" lon="10.849024700934516"><ele>543.0</ele><time>2026-03-29T07:30:40.009Z</time></trkpt><trkpt lat="45.54685847223437" lon="10.849077474029642"><ele>543.0</ele><time>2026-03-29T07:30:43.009Z</time></trkpt><trkpt lat="45.54689790178557" lon="10.84915538861945"><ele>543.0</ele><time>2026-03-29T07:30:47.009Z</time></trkpt><trkpt lat="45.54695895445126" lon="10.849182623540687"><ele>543.0</ele><time>2026-03-29T07:30:51.009Z</time></trkpt><trkpt lat="45.54700368610846" lon="10.84925871886763"><ele>543.0</ele><time>2026-03-29T07:31:01.009Z</time></trkpt><trkpt lat="45.54705560810769" lon="10.84932023508389"><ele>543.0</ele><time>2026-03-29T07:31:10.008Z</time></trkpt><trkpt lat="45.5471266974532" lon="10.849352118508026"><ele>543.0</ele><time>2026-03-29T07:31:15.008Z</time></trkpt><trkpt lat="45.54720234212556" lon="10.849373711476876"><ele>543.0</ele><time>2026-03-29T07:31:19.008Z</time></trkpt><trkpt lat="45.54726270055447" lon="10.849417387147238"><ele>545.0</ele><time>2026-03-29T07:31:22.008Z</time></trkpt><trkpt lat="45.54732708868523" lon="10.849457059653885"><ele>547.0</ele><time>2026-03-29T07:31:26.008Z</time></trkpt><trkpt lat="45.54738103151255" lon="10.849507318918162"><ele>549.0</ele><time>2026-03-29T07:31:29.008Z</time></trkpt><trkpt lat="45.54744094353512" lon="10.849541824978242"><ele>551.0</ele><time>2026-03-29T07:31:32.011Z</time></trkpt><trkpt lat="45.54750401826159" lon="10.849587913280375"><ele>553.0</ele><time>2026-03-29T07:31:35.011Z</time></trkpt><trkpt lat="45.54755335053653" lon="10.849662101929837"><ele>555.0</ele><time>2026-03-29T07:31:38.011Z</time></trkpt><trkpt lat="45.54759975445431" lon="10.849728360855668"><ele>557.0</ele><time>2026-03-29T07:31:41.011Z</time></trkpt><trkpt lat="45.54766277004753" lon="10.84979067527501"><ele>557.0</ele><time>2026-03-29T07:31:44.011Z</time></trkpt><trkpt lat="45.54772491209968" lon="10.849851476823133"><ele>557.0</ele><time>2026-03-29T07:31:47.011Z</time></trkpt><trkpt lat="45.547795943612606" lon="10.84990542816193"><ele>557.0</ele><time>2026-03-29T07:31:51.011Z</time></trkpt><trkpt lat="45.54784403192999" lon="10.8499733896242"><ele>557.0</ele><time>2026-03-29T07:31:54.011Z</time></trkpt><trkpt lat="45.547916293539956" lon="10.850042529964044"><ele>557.0</ele><time>2026-03-29T07:31:58.011Z</time></trkpt><trkpt lat="45.547979624590575" lon="10.850110605598154"><ele>557.0</ele><time>2026-03-29T07:32:02.011Z</time></trkpt><trkpt lat="45.54803371864707" lon="10.85016088423565"><ele>557.8571428571429</ele><time>2026-03-29T07:32:05.011Z</time></trkpt><trkpt lat="45.5480974129551" lon="10.850224542816335"><ele>558.7142857142857</ele><time>2026-03-29T07:32:09.011Z</time></trkpt><trkpt lat="45.54815374210056" lon="10.85030344880319"><ele>559.5714285714286</ele><time>2026-03-29T07:32:13.011Z</time></trkpt><trkpt lat="45.54821236781908" lon="10.850344642252749"><ele>560.4285714285714</ele><time>2026-03-29T07:32:16.011Z</time></trkpt><trkpt lat="45.548259949700885" lon="10.85041828293043"><ele>561.2857142857143</ele><time>2026-03-29T07:32:19.011Z</time></trkpt><trkpt lat="45.54830363710191" lon="10.850500838545805"><ele>562.1428571428571</ele><time>2026-03-29T07:32:22.01Z</time></trkpt><trkpt lat="45.548341819916125" lon="10.850583117362346"><ele>563.0</ele><time>2026-03-29T07:32:25.01Z</time></trkpt><trkpt lat="45.54837410341737" lon="10.850688115214252"><ele>563.0</ele><time>2026-03-29T07:32:29.01Z</time></trkpt><trkpt lat="45.548408357522426" lon="10.850772357363008"><ele>563.0</ele><time>2026-03-29T07:32:32.01Z</time></trkpt><trkpt lat="45.5484359267194" lon="10.850853227865183"><ele>563.0</ele><time>2026-03-29T07:32:35.01Z</time></trkpt><trkpt lat="45.548458543994506" lon="10.85094277712756"><ele>563.0</ele><time>2026-03-29T07:32:40.01Z</time></trkpt><trkpt lat="45.548494009192844" lon="10.851049058994606"><ele>563.0</ele><time>2026-03-29T07:32:45.01Z</time></trkpt><trkpt lat="45.54852500272108" lon="10.85114199679153"><ele>563.0</ele><time>2026-03-29T07:32:49.01Z</time></trkpt><trkpt lat="45.54853697503585" lon="10.851233621312474"><ele>563.0</ele><time>2026-03-29T07:32:52.01Z</time></trkpt><trkpt lat="45.54858020354293" lon="10.85131986610436"><ele>562.8571428571429</ele><time>2026-03-29T07:32:56.01Z</time></trkpt><trkpt lat="45.54860009671954" lon="10.851408938750403"><ele>562.7142857142858</ele><time>2026-03-29T07:33:00.01Z</time></trkpt><trkpt lat="45.548651348992706" lon="10.8514992838072"><ele>562.5714285714287</ele><time>2026-03-29T07:33:05.009Z</time></trkpt><trkpt lat="45.54869096161873" lon="10.851586173197564"><ele>562.4285714285714</ele><time>2026-03-29T07:33:10.009Z</time></trkpt><trkpt lat="45.54872123520684" lon="10.851669556422477"><ele>562.2857142857143</ele><time>2026-03-29T07:33:14.009Z</time></trkpt><trkpt lat="45.548757778503166" lon="10.8517688107946"><ele>562.1428571428572</ele><time>2026-03-29T07:33:19.009Z</time></trkpt><trkpt lat="45.54879333914342" lon="10.85187083593976"><ele>562.0</ele><time>2026-03-29T07:33:23.009Z</time></trkpt><trkpt lat="45.548823336406805" lon="10.851964944598048"><ele>563.8333333333334</ele><time>2026-03-29T07:33:27.009Z</time></trkpt><trkpt lat="45.54885297658044" lon="10.852046416328776"><ele>565.6666666666667</ele><time>2026-03-29T07:33:30.009Z</time></trkpt><trkpt lat="45.54887796688668" lon="10.852135602993584"><ele>567.5</ele><time>2026-03-29T07:33:32.009Z</time></trkpt><trkpt lat="45.54892623999232" lon="10.852224678373485"><ele>569.3333333333334</ele><time>2026-03-29T07:33:35.009Z</time></trkpt><trkpt lat="45.54897403003707" lon="10.8523252717037"><ele>571.1666666666666</ele><time>2026-03-29T07:33:38.011Z</time></trkpt><trkpt lat="45.54899442128084" lon="10.852427697672924"><ele>573.0</ele><time>2026-03-29T07:33:41.011Z</time></trkpt><trkpt lat="45.54903902400672" lon="10.852526440188681"><ele>574.6666666666666</ele><time>2026-03-29T07:33:44.011Z</time></trkpt><trkpt lat="45.54905954108325" lon="10.85262430595571"><ele>576.3333333333334</ele><time>2026-03-29T07:33:48.011Z</time></trkpt><trkpt lat="45.549051213592044" lon="10.85273216110759"><ele>578.0</ele><time>2026-03-29T07:33:55.011Z</time></trkpt><trkpt lat="45.549003332527406" lon="10.85281347641065"><ele>579.6666666666667</ele><time>2026-03-29T07:33:59.011Z</time></trkpt><trkpt lat="45.54894316412095" lon="10.852895462465863"><ele>581.3333333333334</ele><time>2026-03-29T07:34:03.011Z</time></trkpt><trkpt lat="45.54888054204141" lon="10.852955582554536"><ele>583.0</ele><time>2026-03-29T07:34:07.011Z</time></trkpt><trkpt lat="45.54881199818239" lon="10.85300618987454"><ele>583.0000000000001</ele><time>2026-03-29T07:34:11.011Z</time></trkpt><trkpt lat="45.54874674899986" lon="10.853062794934528"><ele>583.0</ele><time>2026-03-29T07:34:15.011Z</time></trkpt><trkpt lat="45.54868802324878" lon="10.853105833695183"><ele>583.0</ele><time>2026-03-29T07:34:18.01Z</time></trkpt><trkpt lat="45.5486258215927" lon="10.853156481375285"><ele>583.0</ele><time>2026-03-29T07:34:21.01Z</time></trkpt><trkpt lat="45.548562966595384" lon="10.853226765295807"><ele>583.0</ele><time>2026-03-29T07:34:24.01Z</time></trkpt><trkpt lat="45.548503607556185" lon="10.853284957465018"><ele>583.0000000000001</ele><time>2026-03-29T07:34:27.01Z</time></trkpt><trkpt lat="45.548453998665344" lon="10.853343241275175"><ele>583.0</ele><time>2026-03-29T07:34:30.01Z</time></trkpt><trkpt lat="45.54838977182095" lon="10.85338484463257"><ele>583.2857142857143</ele><time>2026-03-29T07:34:33.01Z</time></trkpt><trkpt lat="45.548339022762846" lon="10.853326715212159"><ele>583.5714285714286</ele><time>2026-03-29T07:34:37.01Z</time></trkpt><trkpt lat="45.54831997147008" lon="10.853240140983054"><ele>583.8571428571429</ele><time>2026-03-29T07:34:41.01Z</time></trkpt><trkpt lat="45.548268535865006" lon="10.853158536135028"><ele>584.1428571428571</ele><time>2026-03-29T07:34:45.01Z</time></trkpt><trkpt lat="45.54819621354447" lon="10.853104289038948"><ele>584.4285714285714</ele><time>2026-03-29T07:34:49.01Z</time></trkpt><trkpt lat="45.54814245860658" lon="10.85302495987817"><ele>584.7142857142858</ele><time>2026-03-29T07:34:53.01Z</time></trkpt><trkpt lat="45.548095502347536" lon="10.8529305989409"><ele>585.0</ele><time>2026-03-29T07:34:57.01Z</time></trkpt><trkpt lat="45.54804718462492" lon="10.852865915904506"><ele>585.0</ele><time>2026-03-29T07:35:00.01Z</time></trkpt><trkpt lat="45.548002806111505" lon="10.852798542844853"><ele>585.0</ele><time>2026-03-29T07:35:03.009Z</time></trkpt><trkpt lat="45.54793829626141" lon="10.852723103701504"><ele>585.0</ele><time>2026-03-29T07:35:07.009Z</time></trkpt><trkpt lat="45.54788967964841" lon="10.852642550208417"><ele>585.0</ele><time>2026-03-29T07:35:10.009Z</time></trkpt><trkpt lat="45.54785330414145" lon="10.85254874468695"><ele>585.0</ele><time>2026-03-29T07:35:13.009Z</time></trkpt><trkpt lat="45.54781790962934" lon="10.852439493461421"><ele>585.0</ele><time>2026-03-29T07:35:16.009Z</time></trkpt><trkpt lat="45.54777668283081" lon="10.852328246416594"><ele>584.3333333333334</ele><time>2026-03-29T07:35:19.009Z</time></trkpt><trkpt lat="45.547743377999986" lon="10.852210296210876"><ele>583.6666666666666</ele><time>2026-03-29T07:35:22.009Z</time></trkpt><trkpt lat="45.54773032100311" lon="10.85212140022267"><ele>583.0</ele><time>2026-03-29T07:35:24.009Z</time></trkpt><trkpt lat="45.54773335322207" lon="10.85202611873803"><ele>582.3333333333333</ele><time>2026-03-29T07:35:26.009Z</time></trkpt><trkpt lat="45.54774074344227" lon="10.851923258250782"><ele>581.6666666666666</ele><time>2026-03-29T07:35:29.009Z</time></trkpt><trkpt lat="45.547741029392775" lon="10.851804191099394"><ele>581.0</ele><time>2026-03-29T07:35:33.009Z</time></trkpt><trkpt lat="45.547736717141795" lon="10.85168011074199"><ele>580.6666666666666</ele><time>2026-03-29T07:35:36.009Z</time></trkpt><trkpt lat="45.5476946359267" lon="10.85159255137856"><ele>580.3333333333333</ele><time>2026-03-29T07:35:38.009Z</time></trkpt><trkpt lat="45.54764658831677" lon="10.851521294769594"><ele>580.0</ele><time>2026-03-29T07:35:40.009Z</time></trkpt><trkpt lat="45.54759581378021" lon="10.851426413460539"><ele>579.6666666666666</ele><time>2026-03-29T07:35:43.012Z</time></trkpt><trkpt lat="45.547534772806166" lon="10.851335668715784"><ele>579.3333333333334</ele><time>2026-03-29T07:35:46.011Z</time></trkpt><trkpt lat="45.547467478136745" lon="10.851255021086951"><ele>579.0</ele><time>2026-03-29T07:35:49.011Z</time></trkpt><trkpt lat="45.54738906670952" lon="10.85120162956298"><ele>578.9999999999999</ele><time>2026-03-29T07:35:52.012Z</time></trkpt><trkpt lat="45.54734341318689" lon="10.851138875511822"><ele>579.0</ele><time>2026-03-29T07:35:54.011Z</time></trkpt><trkpt lat="45.54729894070123" lon="10.851073907904576"><ele>579.0</ele><time>2026-03-29T07:35:56.011Z</time></trkpt><trkpt lat="45.54725972501542" lon="10.851001740343232"><ele>579.0</ele><time>2026-03-29T07:35:58.011Z</time></trkpt><trkpt lat="45.54721225884677" lon="10.85091886675405"><ele>579.0</ele><time>2026-03-29T07:36:00.011Z</time></trkpt><trkpt lat="45.54715924836838" lon="10.850816886672868"><ele>578.9999999999999</ele><time>2026-03-29T07:36:02.011Z</time></trkpt><trkpt lat="45.54712944446149" lon="10.850727329272583"><ele>579.0</ele><time>2026-03-29T07:36:04.011Z</time></trkpt><trkpt lat="45.54705930371715" lon="10.850670006454022"><ele>577.1666666666666</ele><time>2026-03-29T07:36:06.011Z</time></trkpt><trkpt lat="45.54697347906005" lon="10.850651001559218"><ele>575.3333333333334</ele><time>2026-03-29T07:36:08.011Z</time></trkpt><trkpt lat="45.54689829792155" lon="10.850652619044086"><ele>573.5</ele><time>2026-03-29T07:36:10.011Z</time></trkpt><trkpt lat="45.546820189434136" lon="10.85063243344403"><ele>571.6666666666667</ele><time>2026-03-29T07:36:12.011Z</time></trkpt><trkpt lat="45.54674449698124" lon="10.850621838373488"><ele>569.8333333333334</ele><time>2026-03-29T07:36:14.011Z</time></trkpt><trkpt lat="45.546668839396176" lon="10.850605007693689"><ele>568.0</ele><time>2026-03-29T07:36:16.011Z</time></trkpt><trkpt lat="45.54659646411539" lon="10.850613731201538"><ele>568.0</ele><time>2026-03-29T07:36:18.011Z</time></trkpt><trkpt lat="45.54652893596218" lon="10.850619266742877"><ele>568.0</ele><time>2026-03-29T07:36:20.011Z</time></trkpt><trkpt lat="45.54645106842629" lon="10.850618644156476"><ele>568.0</ele><time>2026-03-29T07:36:22.01Z</time></trkpt><trkpt lat="45.54637967262872" lon="10.85062876049183"><ele>568.0</ele><time>2026-03-29T07:36:24.01Z</time></trkpt><trkpt lat="45.54628085388863" lon="10.850652610086803"><ele>568.0</ele><time>2026-03-29T07:36:27.01Z</time></trkpt><trkpt lat="45.546214337236435" lon="10.850676017684748"><ele>568.0</ele><time>2026-03-29T07:36:29.01Z</time></trkpt><trkpt lat="45.54615265371224" lon="10.850698822405777"><ele>566.8333333333334</ele><time>2026-03-29T07:36:31.01Z</time></trkpt><trkpt lat="45.54606744103499" lon="10.850708843939945"><ele>565.6666666666667</ele><time>2026-03-29T07:36:34.01Z</time></trkpt><trkpt lat="45.545976223391925" lon="10.850677366557004"><ele>564.5</ele><time>2026-03-29T07:36:37.01Z</time></trkpt><trkpt lat="45.545909682753106" lon="10.850653206034817"><ele>563.3333333333334</ele><time>2026-03-29T07:36:39.01Z</time></trkpt><trkpt lat="45.54584529390605" lon="10.850616119153154"><ele>562.1666666666666</ele><time>2026-03-29T07:36:41.01Z</time></trkpt><trkpt lat="45.54577265074968" lon="10.850584128793994"><ele>561.0</ele><time>2026-03-29T07:36:43.01Z</time></trkpt><trkpt lat="45.545703753310775" lon="10.850536181292327"><ele>561.0</ele><time>2026-03-29T07:36:45.01Z</time></trkpt><trkpt lat="45.54561901543735" lon="10.85046983155908"><ele>561.0</ele><time>2026-03-29T07:36:48.01Z</time></trkpt><trkpt lat="45.545553889354096" lon="10.850428343003621"><ele>561.0</ele><time>2026-03-29T07:36:50.01Z</time></trkpt><trkpt lat="45.54546350781765" lon="10.850383188830682"><ele>561.0</ele><time>2026-03-29T07:36:52.01Z</time></trkpt><trkpt lat="45.54539278268809" lon="10.850313454197606"><ele>561.0</ele><time>2026-03-29T07:36:54.01Z</time></trkpt><trkpt lat="45.54531532478735" lon="10.85026579299587"><ele>561.0</ele><time>2026-03-29T07:36:56.01Z</time></trkpt><trkpt lat="45.54522901486991" lon="10.850191765661094"><ele>559.1666666666666</ele><time>2026-03-29T07:36:58.01Z</time></trkpt><trkpt lat="45.54514342580359" lon="10.850134604800447"><ele>557.3333333333334</ele><time>2026-03-29T07:37:00.01Z</time></trkpt><trkpt lat="45.54505817216192" lon="10.850071514064911"><ele>555.5</ele><time>2026-03-29T07:37:02.01Z</time></trkpt><trkpt lat="45.54498373848633" lon="10.850016793407365"><ele>553.6666666666667</ele><time>2026-03-29T07:37:04.01Z</time></trkpt><trkpt lat="45.544919756618775" lon="10.84994648874102"><ele>551.8333333333334</ele><time>2026-03-29T07:37:06.009Z</time></trkpt><trkpt lat="45.544847783758264" lon="10.849896016334727"><ele>550.0</ele><time>2026-03-29T07:37:08.009Z</time></trkpt><trkpt lat="45.5447884258849" lon="10.849827702232481"><ele>548.3333333333334</ele><time>2026-03-29T07:37:10.009Z</time></trkpt><trkpt lat="45.54473299092147" lon="10.84977440381099"><ele>546.6666666666667</ele><time>2026-03-29T07:37:12.009Z</time></trkpt><trkpt lat="45.54467216571821" lon="10.849726281449136"><ele>545.0</ele><time>2026-03-29T07:37:14.009Z</time></trkpt><trkpt lat="45.544607038779574" lon="10.849672627202889"><ele>543.3333333333334</ele><time>2026-03-29T07:37:16.009Z</time></trkpt><trkpt lat="45.54454483675174" lon="10.849636317566796"><ele>541.6666666666666</ele><time>2026-03-29T07:37:18.009Z</time></trkpt><trkpt lat="45.544465712653306" lon="10.849574935623542"><ele>540.0</ele><time>2026-03-29T07:37:21.009Z</time></trkpt><trkpt lat="45.544387674105174" lon="10.849519942283415"><ele>538.1666666666666</ele><time>2026-03-29T07:37:25.009Z</time></trkpt><trkpt lat="45.54431944906712" lon="10.849435085562476"><ele>536.3333333333334</ele><time>2026-03-29T07:37:28.009Z</time></trkpt><trkpt lat="45.544276494136916" lon="10.849354073374217"><ele>534.5</ele><time>2026-03-29T07:37:30.009Z</time></trkpt><trkpt lat="45.54423285124167" lon="10.849267992749777"><ele>532.6666666666667</ele><time>2026-03-29T07:37:32.009Z</time></trkpt><trkpt lat="45.54418686823959" lon="10.8491757454638"><ele>530.8333333333334</ele><time>2026-03-29T07:37:34.009Z</time></trkpt><trkpt lat="45.54414447314283" lon="10.84909980431512"><ele>529.0</ele><time>2026-03-29T07:37:36.009Z</time></trkpt><trkpt lat="45.54413970911178" lon="10.849003358811279"><ele>527.6666666666667</ele><time>2026-03-29T07:37:39.009Z</time></trkpt><trkpt lat="45.54414995004045" lon="10.848882818404551"><ele>526.3333333333334</ele><time>2026-03-29T07:37:42.009Z</time></trkpt><trkpt lat="45.54417109491701" lon="10.84877357336611"><ele>525.0</ele><time>2026-03-29T07:37:45.009Z</time></trkpt><trkpt lat="45.54419469930053" lon="10.848658908809577"><ele>523.6666666666666</ele><time>2026-03-29T07:37:48.012Z</time></trkpt><trkpt lat="45.54424565203174" lon="10.848561635305213"><ele>522.3333333333333</ele><time>2026-03-29T07:37:51.011Z</time></trkpt><trkpt lat="45.54429135087311" lon="10.84846832128688"><ele>521.0</ele><time>2026-03-29T07:37:55.012Z</time></trkpt><trkpt lat="45.54434502644463" lon="10.848381341292315"><ele>521.0</ele><time>2026-03-29T07:37:58.012Z</time></trkpt><trkpt lat="45.54438080938346" lon="10.848307368151648"><ele>521.0</ele><time>2026-03-29T07:38:03.012Z</time></trkpt><trkpt lat="45.5444320539737" lon="10.848242770426213"><ele>521.0</ele><time>2026-03-29T07:38:13.012Z</time></trkpt><trkpt lat="45.54450181866759" lon="10.848228693283327"><ele>521.0</ele><time>2026-03-29T07:38:18.011Z</time></trkpt><trkpt lat="45.54456649985356" lon="10.84821381056643"><ele>521.0</ele><time>2026-03-29T07:38:21.011Z</time></trkpt><trkpt lat="45.54451966033579" lon="10.848130493259394"><ele>521.0</ele><time>2026-03-29T07:38:29.011Z</time></trkpt><trkpt lat="45.544451377066" lon="10.84810312426688"><ele>521.0</ele><time>2026-03-29T07:38:32.011Z</time></trkpt><trkpt lat="45.54439724938178" lon="10.848041297070036"><ele>519.8333333333333</ele><time>2026-03-29T07:38:35.011Z</time></trkpt><trkpt lat="45.54432606397358" lon="10.847997539422131"><ele>518.6666666666666</ele><time>2026-03-29T07:38:38.011Z</time></trkpt><trkpt lat="45.54425528735496" lon="10.847981921803541"><ele>517.5</ele><time>2026-03-29T07:38:41.011Z</time></trkpt><trkpt lat="45.54417843567102" lon="10.847981032339728"><ele>516.3333333333334</ele><time>2026-03-29T07:38:44.009Z</time></trkpt><trkpt lat="45.544097096843316" lon="10.847977312204952"><ele>515.1666666666667</ele><time>2026-03-29T07:38:47.007Z</time></trkpt><trkpt lat="45.54402296839841" lon="10.847968449035577"><ele>514.0</ele><time>2026-03-29T07:38:50.004Z</time></trkpt><trkpt lat="45.543940831600246" lon="10.847961441139844"><ele>514.0</ele><time>2026-03-29T07:38:53.003Z</time></trkpt><trkpt lat="45.543872978162376" lon="10.847946207464854"><ele>514.0</ele><time>2026-03-29T07:38:56.001Z</time></trkpt><trkpt lat="45.5438064166521" lon="10.84797841885079"><ele>514.0</ele><time>2026-03-29T07:38:59Z</time></trkpt><trkpt lat="45.54374889894766" lon="10.848062335814053"><ele>514.0</ele><time>2026-03-29T07:39:02.998Z</time></trkpt><trkpt lat="45.54369096776097" lon="10.848123614328701"><ele>514.0</ele><time>2026-03-29T07:39:06.997Z</time></trkpt><trkpt lat="45.5436458487436" lon="10.848205800603896"><ele>514.0</ele><time>2026-03-29T07:39:10.997Z</time></trkpt><trkpt lat="45.54363637759836" lon="10.848296312605896"><ele>514.0</ele><time>2026-03-29T07:39:14.996Z</time></trkpt><trkpt lat="45.54361557288227" lon="10.848402779789717"><ele>512.4285714285714</ele><time>2026-03-29T07:39:19.995Z</time></trkpt><trkpt lat="45.543590656606575" lon="10.848502811270993"><ele>510.8571428571429</ele><time>2026-03-29T07:39:23.995Z</time></trkpt><trkpt lat="45.54356983393564" lon="10.848595421192991"><ele>509.28571428571433</ele><time>2026-03-29T07:39:26.995Z</time></trkpt><trkpt lat="45.54354513917224" lon="10.848700783957632"><ele>507.7142857142857</ele><time>2026-03-29T07:39:30.994Z</time></trkpt><trkpt lat="45.54352826535296" lon="10.848791968724848"><ele>506.1428571428572</ele><time>2026-03-29T07:39:33.994Z</time></trkpt><trkpt lat="45.54350040759779" lon="10.84891014912007"><ele>504.5714285714286</ele><time>2026-03-29T07:39:37.994Z</time></trkpt><trkpt lat="45.543485307147584" lon="10.849013313637686"><ele>503.0</ele><time>2026-03-29T07:39:40.994Z</time></trkpt><trkpt lat="45.54345319904009" lon="10.849108799817223"><ele>502.99999999999994</ele><time>2026-03-29T07:39:43.993Z</time></trkpt><trkpt lat="45.54343227946957" lon="10.849223567669712"><ele>503.0</ele><time>2026-03-29T07:39:46.993Z</time></trkpt><trkpt lat="45.543404927150455" lon="10.84932017490864"><ele>503.0</ele><time>2026-03-29T07:39:49.993Z</time></trkpt><trkpt lat="45.54336385110593" lon="10.84939596973228"><ele>503.0</ele><time>2026-03-29T07:39:52.993Z</time></trkpt><trkpt lat="45.543296259282805" lon="10.849419619308454"><ele>502.99999999999994</ele><time>2026-03-29T07:39:56.995Z</time></trkpt><trkpt lat="45.54321680049212" lon="10.849450782461378"><ele>503.0</ele><time>2026-03-29T07:40:01.996Z</time></trkpt><trkpt lat="45.543140781662096" lon="10.849500497422762"><ele>501.66666666666663</ele><time>2026-03-29T07:40:06.995Z</time></trkpt><trkpt lat="45.54307513916802" lon="10.849555551278437"><ele>500.3333333333333</ele><time>2026-03-29T07:40:09.995Z</time></trkpt><trkpt lat="45.54302350790785" lon="10.849625940570885"><ele>499.0</ele><time>2026-03-29T07:40:12.995Z</time></trkpt><trkpt lat="45.54295110923996" lon="10.8496875488059"><ele>497.66666666666663</ele><time>2026-03-29T07:40:16.995Z</time></trkpt><trkpt lat="45.54288611152782" lon="10.849742577757615"><ele>496.3333333333333</ele><time>2026-03-29T07:40:19.995Z</time></trkpt><trkpt lat="45.54281340002646" lon="10.849783166018964"><ele>495.0</ele><time>2026-03-29T07:40:22.995Z</time></trkpt><trkpt lat="45.54274328236964" lon="10.849827076873249"><ele>495.0</ele><time>2026-03-29T07:40:25.995Z</time></trkpt><trkpt lat="45.54266950971971" lon="10.849853657802093"><ele>495.0</ele><time>2026-03-29T07:40:28.995Z</time></trkpt><trkpt lat="45.542604177164804" lon="10.849893033583172"><ele>495.0</ele><time>2026-03-29T07:40:31.994Z</time></trkpt><trkpt lat="45.54253075886512" lon="10.849932055575778"><ele>495.0</ele><time>2026-03-29T07:40:34.994Z</time></trkpt><trkpt lat="45.54245546734309" lon="10.849944776517422"><ele>495.0</ele><time>2026-03-29T07:40:37.994Z</time></trkpt><trkpt lat="45.54237576234329" lon="10.850006041523583"><ele>495.0</ele><time>2026-03-29T07:40:40.994Z</time></trkpt><trkpt lat="45.54228876143694" lon="10.850052330545854"><ele>494.99999999999994</ele><time>2026-03-29T07:40:43.994Z</time></trkpt><trkpt lat="45.54222667055607" lon="10.850105973048848"><ele>495.0</ele><time>2026-03-29T07:40:46.994Z</time></trkpt><trkpt lat="45.54215486062613" lon="10.850148995198802"><ele>494.99999999999994</ele><time>2026-03-29T07:40:49.994Z</time></trkpt><trkpt lat="45.542108039384935" lon="10.850215998749178"><ele>494.99999999999994</ele><time>2026-03-29T07:40:52.994Z</time></trkpt><trkpt lat="45.54205057998349" lon="10.850271001543495"><ele>495.0</ele><time>2026-03-29T07:40:54.994Z</time></trkpt><trkpt lat="45.54199911297264" lon="10.850361495367867"><ele>494.99999999999994</ele><time>2026-03-29T07:40:57.994Z</time></trkpt><trkpt lat="45.54196683940393" lon="10.850446780682782"><ele>494.99999999999994</ele><time>2026-03-29T07:41:00.994Z</time></trkpt><trkpt lat="45.54193021605112" lon="10.850529712012891"><ele>492.1428571428571</ele><time>2026-03-29T07:41:03.994Z</time></trkpt><trkpt lat="45.54191216053851" lon="10.850619702006327"><ele>489.2857142857143</ele><time>2026-03-29T07:41:06.994Z</time></trkpt><trkpt lat="45.541879553423904" lon="10.850708314524303"><ele>486.42857142857144</ele><time>2026-03-29T07:41:09.994Z</time></trkpt><trkpt lat="45.541850959505176" lon="10.850808371017388"><ele>483.57142857142856</ele><time>2026-03-29T07:41:12.993Z</time></trkpt><trkpt lat="45.541823932365354" lon="10.850911613700488"><ele>480.7142857142858</ele><time>2026-03-29T07:41:15.993Z</time></trkpt><trkpt lat="45.541806917335364" lon="10.851012671235527"><ele>477.8571428571429</ele><time>2026-03-29T07:41:19.993Z</time></trkpt><trkpt lat="45.541787704980216" lon="10.851114137759154"><ele>475.0</ele><time>2026-03-29T07:41:23.993Z</time></trkpt><trkpt lat="45.541780304180186" lon="10.851210067286047"><ele>474.14285714285717</ele><time>2026-03-29T07:41:27.993Z</time></trkpt><trkpt lat="45.54179132882136" lon="10.851303593855627"><ele>473.28571428571433</ele><time>2026-03-29T07:41:32.993Z</time></trkpt><trkpt lat="45.54178648993875" lon="10.851405964006199"><ele>472.42857142857144</ele><time>2026-03-29T07:41:42.993Z</time></trkpt><trkpt lat="45.541723172605124" lon="10.851416562235253"><ele>471.57142857142856</ele><time>2026-03-29T07:42:35.995Z</time></trkpt><trkpt lat="45.541663463085364" lon="10.851316277684962"><ele>470.7142857142857</ele><time>2026-03-29T07:42:39.995Z</time></trkpt><trkpt lat="45.54162878465524" lon="10.85121986977396"><ele>469.8571428571429</ele><time>2026-03-29T07:42:44.995Z</time></trkpt><trkpt lat="45.54160368234031" lon="10.851134708860513"><ele>469.0</ele><time>2026-03-29T07:42:47.995Z</time></trkpt><trkpt lat="45.541591012799614" lon="10.85102035105343"><ele>469.8571428571429</ele><time>2026-03-29T07:42:52.994Z</time></trkpt><trkpt lat="45.54157224757541" lon="10.850918726223108"><ele>470.7142857142857</ele><time>2026-03-29T07:42:55.994Z</time></trkpt><trkpt lat="45.54156086025524" lon="10.850812317911963"><ele>471.57142857142856</ele><time>2026-03-29T07:42:58.994Z</time></trkpt><trkpt lat="45.54155395251753" lon="10.850722590764986"><ele>472.42857142857144</ele><time>2026-03-29T07:43:01.994Z</time></trkpt><trkpt lat="45.541576970477195" lon="10.85061396000646"><ele>473.28571428571433</ele><time>2026-03-29T07:43:04.994Z</time></trkpt><trkpt lat="45.541588934818016" lon="10.850519183011397"><ele>474.14285714285717</ele><time>2026-03-29T07:43:07.994Z</time></trkpt><trkpt lat="45.54159684028885" lon="10.85042722447681"><ele>475.0</ele><time>2026-03-29T07:43:10.994Z</time></trkpt><trkpt lat="45.541590906951924" lon="10.850328984900663"><ele>475.00000000000006</ele><time>2026-03-29T07:43:13.994Z</time></trkpt><trkpt lat="45.541594675286255" lon="10.850194352817514"><ele>475.0</ele><time>2026-03-29T07:43:16.994Z</time></trkpt><trkpt lat="45.54160017989778" lon="10.850095329269333"><ele>475.0</ele><time>2026-03-29T07:43:19.994Z</time></trkpt><trkpt lat="45.541631150441994" lon="10.849987289288094"><ele>475.0</ele><time>2026-03-29T07:43:22.994Z</time></trkpt><trkpt lat="45.54167922175488" lon="10.849890678248874"><ele>475.00000000000006</ele><time>2026-03-29T07:43:25.994Z</time></trkpt><trkpt lat="45.54173669524268" lon="10.849782926211045"><ele>475.0</ele><time>2026-03-29T07:43:28.994Z</time></trkpt><trkpt lat="45.541768030063984" lon="10.849690654455612"><ele>475.28571428571433</ele><time>2026-03-29T07:43:31.993Z</time></trkpt><trkpt lat="45.54182549903282" lon="10.84962124801172"><ele>475.5714285714286</ele><time>2026-03-29T07:43:35.993Z</time></trkpt><trkpt lat="45.54188818495687" lon="10.849556354172327"><ele>475.8571428571429</ele><time>2026-03-29T07:43:40.993Z</time></trkpt><trkpt lat="45.54195724742039" lon="10.849493626260795"><ele>476.1428571428571</ele><time>2026-03-29T07:43:44.993Z</time></trkpt><trkpt lat="45.54200802532787" lon="10.849439620563317"><ele>476.4285714285714</ele><time>2026-03-29T07:43:47.993Z</time></trkpt><trkpt lat="45.54206194987863" lon="10.84937704452738"><ele>476.71428571428567</ele><time>2026-03-29T07:43:50.993Z</time></trkpt><trkpt lat="45.54211825364959" lon="10.849336269970705"><ele>477.0</ele><time>2026-03-29T07:43:53.993Z</time></trkpt><trkpt lat="45.54218361304924" lon="10.849282470217638"><ele>477.0</ele><time>2026-03-29T07:43:56.993Z</time></trkpt><trkpt lat="45.54225205260797" lon="10.849237978530248"><ele>476.99999999999994</ele><time>2026-03-29T07:43:59.993Z</time></trkpt><trkpt lat="45.54232370934012" lon="10.849220948208405"><ele>477.0</ele><time>2026-03-29T07:44:02.993Z</time></trkpt><trkpt lat="45.542386961181094" lon="10.849187280958828"><ele>477.0</ele><time>2026-03-29T07:44:05.995Z</time></trkpt><trkpt lat="45.542454697959904" lon="10.849162161066118"><ele>476.99999999999994</ele><time>2026-03-29T07:44:11.995Z</time></trkpt><trkpt lat="45.542544584883494" lon="10.849145432700846"><ele>477.0</ele><time>2026-03-29T07:44:23.995Z</time></trkpt><trkpt lat="45.542582977275735" lon="10.849055883964118"><ele>477.0</ele><time>2026-03-29T07:44:28.995Z</time></trkpt><trkpt lat="45.542615682064046" lon="10.84896667057307"><ele>477.0</ele><time>2026-03-29T07:44:32.995Z</time></trkpt><trkpt lat="45.542625124596334" lon="10.8488752044893"><ele>476.99999999999994</ele><time>2026-03-29T07:44:36.995Z</time></trkpt><trkpt lat="45.542633090356404" lon="10.848781222206606"><ele>477.0</ele><time>2026-03-29T07:44:40.995Z</time></trkpt><trkpt lat="45.54265043464037" lon="10.848664293965708"><ele>477.0</ele><time>2026-03-29T07:44:45.995Z</time></trkpt><trkpt lat="45.54266503402506" lon="10.848561194870369"><ele>476.99999999999994</ele><time>2026-03-29T07:44:49.995Z</time></trkpt><trkpt lat="45.54268166396153" lon="10.848460415830921"><ele>477.0</ele><time>2026-03-29T07:44:53.995Z</time></trkpt><trkpt lat="45.54269056875163" lon="10.848360772960113"><ele>477.0</ele><time>2026-03-29T07:44:57.995Z</time></trkpt><trkpt lat="45.54268627440613" lon="10.848269542725143"><ele>477.0</ele><time>2026-03-29T07:45:00.994Z</time></trkpt><trkpt lat="45.54269810131976" lon="10.848176885254038"><ele>476.99999999999994</ele><time>2026-03-29T07:45:03.994Z</time></trkpt><trkpt lat="45.54271125860494" lon="10.848073937772005"><ele>477.0</ele><time>2026-03-29T07:45:07.994Z</time></trkpt><trkpt lat="45.54271938597775" lon="10.847983323797305"><ele>477.0</ele><time>2026-03-29T07:45:11.994Z</time></trkpt><trkpt lat="45.54273598205638" lon="10.847896502821106"><ele>476.99999999999994</ele><time>2026-03-29T07:45:15.994Z</time></trkpt><trkpt lat="45.54272847697046" lon="10.84779703038432"><ele>477.0</ele><time>2026-03-29T07:45:18.994Z</time></trkpt><trkpt lat="45.54273161336943" lon="10.84770617861359"><ele>477.0</ele><time>2026-03-29T07:45:21.994Z</time></trkpt><trkpt lat="45.54272345036315" lon="10.84760262356713"><ele>477.0</ele><time>2026-03-29T07:45:27.994Z</time></trkpt><trkpt lat="45.542685767132944" lon="10.847521372272217"><ele>477.0</ele><time>2026-03-29T07:45:33.994Z</time></trkpt><trkpt lat="45.5426307545687" lon="10.847435765512866"><ele>477.0</ele><time>2026-03-29T07:45:37.993Z</time></trkpt><trkpt lat="45.54259590881447" lon="10.847348506707736"><ele>477.0</ele><time>2026-03-29T07:45:40.993Z</time></trkpt><trkpt lat="45.54255717447164" lon="10.847255407902821"><ele>477.0</ele><time>2026-03-29T07:45:43.993Z</time></trkpt><trkpt lat="45.5425298402068" lon="10.847154385919929"><ele>477.0</ele><time>2026-03-29T07:45:46.993Z</time></trkpt><trkpt lat="45.54249201411602" lon="10.847052555450741"><ele>477.0</ele><time>2026-03-29T07:45:49.993Z</time></trkpt><trkpt lat="45.5424586263377" lon="10.846937146523558"><ele>477.0</ele><time>2026-03-29T07:45:52.993Z</time></trkpt><trkpt lat="45.542430036812" lon="10.846832302289785"><ele>477.0</ele><time>2026-03-29T07:45:55.993Z</time></trkpt><trkpt lat="45.542396526596946" lon="10.846717333783365"><ele>477.0</ele><time>2026-03-29T07:45:58.993Z</time></trkpt><trkpt lat="45.54237498919513" lon="10.846627162744474"><ele>477.0</ele><time>2026-03-29T07:46:00.993Z</time></trkpt><trkpt lat="45.5423600829677" lon="10.846506980188384"><ele>477.0</ele><time>2026-03-29T07:46:03.993Z</time></trkpt><trkpt lat="45.542318410659384" lon="10.846421959067147"><ele>478.5</ele><time>2026-03-29T07:46:06.993Z</time></trkpt><trkpt lat="45.54224704523865" lon="10.846372787909823"><ele>480.0</ele><time>2026-03-29T07:46:10.994Z</time></trkpt><trkpt lat="45.54219780552338" lon="10.846303538633563"><ele>481.5</ele><time>2026-03-29T07:46:13.995Z</time></trkpt><trkpt lat="45.5421602484267" lon="10.84617273506586"><ele>483.0</ele><time>2026-03-29T07:46:16.995Z</time></trkpt><trkpt lat="45.542165107465266" lon="10.846055826940544"><ele>484.5</ele><time>2026-03-29T07:46:18.995Z</time></trkpt><trkpt lat="45.54212976276118" lon="10.845962871525318"><ele>486.0</ele><time>2026-03-29T07:46:20.995Z</time></trkpt><trkpt lat="45.542127010210855" lon="10.845843848811644"><ele>486.2857142857143</ele><time>2026-03-29T07:46:22.995Z</time></trkpt><trkpt lat="45.542118661443595" lon="10.845747742618371"><ele>486.57142857142856</ele><time>2026-03-29T07:46:24.994Z</time></trkpt><trkpt lat="45.542098462124144" lon="10.84562570604215"><ele>486.85714285714283</ele><time>2026-03-29T07:46:27.994Z</time></trkpt><trkpt lat="45.54211725593476" lon="10.845510680474865"><ele>487.1428571428571</ele><time>2026-03-29T07:46:29.994Z</time></trkpt><trkpt lat="45.54216036261726" lon="10.845422291552358"><ele>487.42857142857144</ele><time>2026-03-29T07:46:31.994Z</time></trkpt><trkpt lat="45.542208368784244" lon="10.84536143142244"><ele>487.71428571428567</ele><time>2026-03-29T07:46:33.994Z</time></trkpt><trkpt lat="45.54226253909979" lon="10.845302603930215"><ele>487.99999999999994</ele><time>2026-03-29T07:46:35.994Z</time></trkpt><trkpt lat="45.542339341426754" lon="10.845249551554232"><ele>487.99999999999994</ele><time>2026-03-29T07:46:38.994Z</time></trkpt><trkpt lat="45.542391732846426" lon="10.845197719618517"><ele>488.0</ele><time>2026-03-29T07:46:40.994Z</time></trkpt><trkpt lat="45.54246301560904" lon="10.845144859581305"><ele>487.99999999999994</ele><time>2026-03-29T07:46:43.994Z</time></trkpt><trkpt lat="45.54253157425163" lon="10.84510771767986"><ele>487.99999999999994</ele><time>2026-03-29T07:46:46.994Z</time></trkpt><trkpt lat="45.54259551556728" lon="10.845065065483265"><ele>488.0</ele><time>2026-03-29T07:46:50.994Z</time></trkpt><trkpt lat="45.54266809186217" lon="10.845023964394661"><ele>487.99999999999994</ele><time>2026-03-29T07:46:54.994Z</time></trkpt><trkpt lat="45.54273288621234" lon="10.845004005841693"><ele>487.99999999999994</ele><time>2026-03-29T07:46:57.994Z</time></trkpt><trkpt lat="45.542801890013806" lon="10.84498955882813"><ele>486.59999999999997</ele><time>2026-03-29T07:47:00.993Z</time></trkpt><trkpt lat="45.54287360685513" lon="10.844979103147217"><ele>485.19999999999993</ele><time>2026-03-29T07:47:03.993Z</time></trkpt><trkpt lat="45.54295350901947" lon="10.844967179518802"><ele>483.8</ele><time>2026-03-29T07:47:06.993Z</time></trkpt><trkpt lat="45.54306144010775" lon="10.844945459796591"><ele>482.4</ele><time>2026-03-29T07:47:10.993Z</time></trkpt><trkpt lat="45.54320381235396" lon="10.844939946574959"><ele>481.0</ele><time>2026-03-29T07:47:14.993Z</time></trkpt><trkpt lat="45.543285278017514" lon="10.844928533814205"><ele>481.00000000000006</ele><time>2026-03-29T07:47:17.993Z</time></trkpt><trkpt lat="45.54334825051406" lon="10.844943602622106"><ele>481.0</ele><time>2026-03-29T07:47:19.993Z</time></trkpt><trkpt lat="45.54341128549103" lon="10.844954308493213"><ele>481.0</ele><time>2026-03-29T07:47:21.993Z</time></trkpt><trkpt lat="45.54349141476988" lon="10.844975110220838"><ele>481.0</ele><time>2026-03-29T07:47:24.993Z</time></trkpt><trkpt lat="45.543592137941104" lon="10.844981667406268"><ele>481.00000000000006</ele><time>2026-03-29T07:47:28.993Z</time></trkpt><trkpt lat="45.54368232793559" lon="10.845023111549176"><ele>481.0</ele><time>2026-03-29T07:47:31.993Z</time></trkpt><trkpt lat="45.54377750463507" lon="10.845054417967733"><ele>479.5</ele><time>2026-03-29T07:47:34.993Z</time></trkpt><trkpt lat="45.543838197519484" lon="10.84508113668767"><ele>478.0</ele><time>2026-03-29T07:47:36.993Z</time></trkpt><trkpt lat="45.544078176433" lon="10.845089591931194"><ele>476.5</ele><time>2026-03-29T07:47:45.992Z</time></trkpt><trkpt lat="45.54416974373237" lon="10.845076712418026"><ele>475.0</ele><time>2026-03-29T07:47:49.992Z</time></trkpt><trkpt lat="45.54425014262791" lon="10.845065382941309"><ele>475.00000000000006</ele><time>2026-03-29T07:47:53.992Z</time></trkpt><trkpt lat="45.5443113013492" lon="10.84502758294695"><ele>475.0</ele><time>2026-03-29T07:47:57.992Z</time></trkpt><trkpt lat="45.544390271976496" lon="10.84496085299526"><ele>475.0</ele><time>2026-03-29T07:48:00.992Z</time></trkpt><trkpt lat="45.544472268145206" lon="10.844899690703667"><ele>475.0</ele><time>2026-03-29T07:48:03.992Z</time></trkpt><trkpt lat="45.54454210693472" lon="10.844854730733482"><ele>475.00000000000006</ele><time>2026-03-29T07:48:05.992Z</time></trkpt><trkpt lat="45.5446210046564" lon="10.844816589712567"><ele>475.0</ele><time>2026-03-29T07:48:08.992Z</time></trkpt><trkpt lat="45.54470564563724" lon="10.844780061976072"><ele>473.83333333333337</ele><time>2026-03-29T07:48:12.992Z</time></trkpt><trkpt lat="45.54477545954502" lon="10.844730226530073"><ele>472.6666666666667</ele><time>2026-03-29T07:48:15.992Z</time></trkpt><trkpt lat="45.54483001501489" lon="10.844676417161248"><ele>471.5</ele><time>2026-03-29T07:48:17.995Z</time></trkpt><trkpt lat="45.54489146358216" lon="10.844570067889293"><ele>470.33333333333337</ele><time>2026-03-29T07:48:20.995Z</time></trkpt><trkpt lat="45.54490952673983" lon="10.844461146504102"><ele>469.1666666666667</ele><time>2026-03-29T07:48:24.995Z</time></trkpt><trkpt lat="45.5448841136843" lon="10.844374569901076"><ele>468.0</ele><time>2026-03-29T07:48:27.995Z</time></trkpt><trkpt lat="45.54487182898828" lon="10.844280521171118"><ele>465.6666666666667</ele><time>2026-03-29T07:48:32.995Z</time></trkpt><trkpt lat="45.54486836518791" lon="10.844184490077682"><ele>463.33333333333337</ele><time>2026-03-29T07:48:35.995Z</time></trkpt><trkpt lat="45.54489269860452" lon="10.844089295204931"><ele>461.0</ele><time>2026-03-29T07:48:38.995Z</time></trkpt><trkpt lat="45.54495551032883" lon="10.844020539172483"><ele>458.6666666666667</ele><time>2026-03-29T07:48:42.994Z</time></trkpt><trkpt lat="45.54502192429823" lon="10.843950969714674"><ele>456.33333333333337</ele><time>2026-03-29T07:48:45.994Z</time></trkpt><trkpt lat="45.54508354958061" lon="10.84389523061918"><ele>454.0</ele><time>2026-03-29T07:48:48.994Z</time></trkpt><trkpt lat="45.54515083057132" lon="10.843833033995335"><ele>454.0</ele><time>2026-03-29T07:48:51.994Z</time></trkpt><trkpt lat="45.54521441436367" lon="10.843814250250496"><ele>454.0</ele><time>2026-03-29T07:48:53.994Z</time></trkpt><trkpt lat="45.54535923507486" lon="10.843806824295063"><ele>454.0</ele><time>2026-03-29T07:49:02.994Z</time></trkpt><trkpt lat="45.54545373840902" lon="10.843785463576745"><ele>454.0</ele><time>2026-03-29T07:49:08.994Z</time></trkpt><trkpt lat="45.545549458516554" lon="10.843796506220707"><ele>454.0</ele><time>2026-03-29T07:49:12.994Z</time></trkpt><trkpt lat="45.54562971465152" lon="10.843830752024722"><ele>453.50000000000006</ele><time>2026-03-29T07:49:15.994Z</time></trkpt><trkpt lat="45.54570067607384" lon="10.843866663203249"><ele>453.0</ele><time>2026-03-29T07:49:18.994Z</time></trkpt><trkpt lat="45.54577735543859" lon="10.843912859514182"><ele>452.5</ele><time>2026-03-29T07:49:21.993Z</time></trkpt><trkpt lat="45.545848476640614" lon="10.843965153401252"><ele>452.0</ele><time>2026-03-29T07:49:25.993Z</time></trkpt><trkpt lat="45.54590257924795" lon="10.84402469268276"><ele>451.50000000000006</ele><time>2026-03-29T07:49:29.993Z</time></trkpt><trkpt lat="45.54596228243268" lon="10.84406058644879"><ele>451.0</ele><time>2026-03-29T07:49:32.993Z</time></trkpt><trkpt lat="45.546032648374485" lon="10.844120508785135"><ele>451.00000000000006</ele><time>2026-03-29T07:49:36.993Z</time></trkpt><trkpt lat="45.54611541228448" lon="10.84411976711725"><ele>451.0</ele><time>2026-03-29T07:49:40.993Z</time></trkpt><trkpt lat="45.54618285344491" lon="10.844133791691847"><ele>451.0</ele><time>2026-03-29T07:49:43.993Z</time></trkpt><trkpt lat="45.54625095768752" lon="10.844184414857219"><ele>451.0</ele><time>2026-03-29T07:49:46.993Z</time></trkpt><trkpt lat="45.54631256358336" lon="10.844238426176238"><ele>451.00000000000006</ele><time>2026-03-29T07:49:50.993Z</time></trkpt><trkpt lat="45.54637873144138" lon="10.844282281934836"><ele>451.0</ele><time>2026-03-29T07:49:55.993Z</time></trkpt><trkpt lat="45.54644990718404" lon="10.84432685119882"><ele>452.6666666666667</ele><time>2026-03-29T07:50:00.992Z</time></trkpt><trkpt lat="45.546521362766505" lon="10.844368699521787"><ele>454.33333333333337</ele><time>2026-03-29T07:50:04.992Z</time></trkpt><trkpt lat="45.546591532753695" lon="10.844428007471592"><ele>456.0</ele><time>2026-03-29T07:50:09.992Z</time></trkpt><trkpt lat="45.54666299261953" lon="10.844474347432904"><ele>457.66666666666663</ele><time>2026-03-29T07:50:14.992Z</time></trkpt><trkpt lat="45.54672318809716" lon="10.844508290614995"><ele>459.3333333333333</ele><time>2026-03-29T07:50:17.992Z</time></trkpt><trkpt lat="45.54679057618167" lon="10.844542302698327"><ele>461.0</ele><time>2026-03-29T07:50:23.995Z</time></trkpt><trkpt lat="45.54687802966976" lon="10.844577620387719"><ele>460.99999999999994</ele><time>2026-03-29T07:50:27.994Z</time></trkpt><trkpt lat="45.54696495254718" lon="10.844601674332468"><ele>461.0</ele><time>2026-03-29T07:50:32.994Z</time></trkpt><trkpt lat="45.547044369845466" lon="10.84464384061666"><ele>461.0</ele><time>2026-03-29T07:50:38.994Z</time></trkpt><trkpt lat="45.54710828197175" lon="10.84466866886621"><ele>461.0</ele><time>2026-03-29T07:50:42.994Z</time></trkpt><trkpt lat="45.54717209055419" lon="10.844710037489733"><ele>460.99999999999994</ele><time>2026-03-29T07:50:47.994Z</time></trkpt><trkpt lat="45.547210824041436" lon="10.844800250910911"><ele>461.0</ele><time>2026-03-29T07:50:51.994Z</time></trkpt><trkpt lat="45.54727328737678" lon="10.844868897130276"><ele>459.75</ele><time>2026-03-29T07:50:55.994Z</time></trkpt><trkpt lat="45.547338553743124" lon="10.844909815931004"><ele>458.5</ele><time>2026-03-29T07:50:59.994Z</time></trkpt><trkpt lat="45.5474080437311" lon="10.84493912288381"><ele>457.25</ele><time>2026-03-29T07:51:03.994Z</time></trkpt><trkpt lat="45.54760873580966" lon="10.844924324067"><ele>456.0</ele><time>2026-03-29T07:51:13.994Z</time></trkpt><trkpt lat="45.547793185391335" lon="10.84493157340874"><ele>456.0</ele><time>2026-03-29T07:51:21.993Z</time></trkpt><trkpt lat="45.547862395451695" lon="10.844968791288132"><ele>455.99999999999994</ele><time>2026-03-29T07:51:24.993Z</time></trkpt><trkpt lat="45.54793674425576" lon="10.844984342047004"><ele>456.0</ele><time>2026-03-29T07:51:27.993Z</time></trkpt><trkpt lat="45.54800838614182" lon="10.845005302238167"><ele>456.0</ele><time>2026-03-29T07:51:30.993Z</time></trkpt><trkpt lat="45.54806821455794" lon="10.845043116509398"><ele>455.99999999999994</ele><time>2026-03-29T07:51:33.993Z</time></trkpt><trkpt lat="45.54813687082017" lon="10.845093387120746"><ele>456.0</ele><time>2026-03-29T07:51:37.993Z</time></trkpt><trkpt lat="45.54820611587202" lon="10.845131619156724"><ele>456.0</ele><time>2026-03-29T07:51:41.993Z</time></trkpt><trkpt lat="45.54827557520002" lon="10.845158720025466"><ele>457.2857142857143</ele><time>2026-03-29T07:51:45.993Z</time></trkpt><trkpt lat="45.54831858605828" lon="10.845229159387868"><ele>458.57142857142856</ele><time>2026-03-29T07:51:52.993Z</time></trkpt><trkpt lat="45.54827056445802" lon="10.845324885693838"><ele>459.85714285714283</ele><time>2026-03-29T07:51:59.992Z</time></trkpt><trkpt lat="45.548209123204984" lon="10.845360940100939"><ele>461.1428571428571</ele><time>2026-03-29T07:52:03.992Z</time></trkpt><trkpt lat="45.548149160870125" lon="10.845425167991102"><ele>462.42857142857144</ele><time>2026-03-29T07:52:06.992Z</time></trkpt><trkpt lat="45.54807345264362" lon="10.845468823585604"><ele>463.71428571428567</ele><time>2026-03-29T07:52:09.992Z</time></trkpt><trkpt lat="45.54801231133194" lon="10.845510819889508"><ele>465.0</ele><time>2026-03-29T07:52:12.992Z</time></trkpt><trkpt lat="45.547955406490104" lon="10.845556183800577"><ele>465.0</ele><time>2026-03-29T07:52:15.992Z</time></trkpt><trkpt lat="45.547880222308464" lon="10.845596917508542"><ele>465.0</ele><time>2026-03-29T07:52:18.992Z</time></trkpt><trkpt lat="45.54779410962728" lon="10.845617036174303"><ele>465.0</ele><time>2026-03-29T07:52:21.992Z</time></trkpt><trkpt lat="45.5477101779731" lon="10.845628426232876"><ele>465.0</ele><time>2026-03-29T07:52:24.992Z</time></trkpt><trkpt lat="45.54763642716772" lon="10.845643058130989"><ele>465.0</ele><time>2026-03-29T07:52:27.992Z</time></trkpt><trkpt lat="45.54757241548374" lon="10.845643665806797"><ele>465.0</ele><time>2026-03-29T07:52:29.994Z</time></trkpt><trkpt lat="45.54748375696978" lon="10.845656981706574"><ele>465.71428571428567</ele><time>2026-03-29T07:52:32.995Z</time></trkpt><trkpt lat="45.54743268605673" lon="10.845596385827337"><ele>466.42857142857144</ele><time>2026-03-29T07:52:35.994Z</time></trkpt><trkpt lat="45.54737116133295" lon="10.8455696422656"><ele>467.1428571428571</ele><time>2026-03-29T07:52:39.994Z</time></trkpt><trkpt lat="45.5473136860494" lon="10.845532111222239"><ele>467.85714285714283</ele><time>2026-03-29T07:52:44.994Z</time></trkpt><trkpt lat="45.54725010716445" lon="10.845456072642397"><ele>468.57142857142856</ele><time>2026-03-29T07:52:50.994Z</time></trkpt><trkpt lat="45.54718107670302" lon="10.845439741528324"><ele>469.2857142857143</ele><time>2026-03-29T07:52:55.994Z</time></trkpt><trkpt lat="45.5471149338156" lon="10.84539740224542"><ele>470.0</ele><time>2026-03-29T07:53:00.994Z</time></trkpt><trkpt lat="45.54704141859093" lon="10.845374705429577"><ele>471.0</ele><time>2026-03-29T07:53:04.994Z</time></trkpt><trkpt lat="45.54697311307047" lon="10.845321384552978"><ele>471.99999999999994</ele><time>2026-03-29T07:53:08.994Z</time></trkpt><trkpt lat="45.54690331795347" lon="10.845322236438804"><ele>473.0</ele><time>2026-03-29T07:53:11.994Z</time></trkpt><trkpt lat="45.546836342775194" lon="10.84527092597031"><ele>474.0</ele><time>2026-03-29T07:53:14.994Z</time></trkpt><trkpt lat="45.546763989277935" lon="10.845223881253412"><ele>474.99999999999994</ele><time>2026-03-29T07:53:17.994Z</time></trkpt><trkpt lat="45.54671194472555" lon="10.845158866080984"><ele>476.0</ele><time>2026-03-29T07:53:21.993Z</time></trkpt><trkpt lat="45.546642833280956" lon="10.845134946938938"><ele>477.0</ele><time>2026-03-29T07:53:30.993Z</time></trkpt><trkpt lat="45.54659686110385" lon="10.84507318548915"><ele>475.1428571428571</ele><time>2026-03-29T07:53:36.993Z</time></trkpt><trkpt lat="45.54653000670806" lon="10.845065386404475"><ele>473.2857142857142</ele><time>2026-03-29T07:53:41.993Z</time></trkpt><trkpt lat="45.54646238291867" lon="10.845088327371174"><ele>471.42857142857144</ele><time>2026-03-29T07:53:46.993Z</time></trkpt><trkpt lat="45.5463882387366" lon="10.845107258384665"><ele>469.57142857142856</ele><time>2026-03-29T07:53:49.993Z</time></trkpt><trkpt lat="45.546307967015366" lon="10.845110476128486"><ele>467.7142857142857</ele><time>2026-03-29T07:53:53.993Z</time></trkpt><trkpt lat="45.54623970679712" lon="10.845090834132709"><ele>465.8571428571429</ele><time>2026-03-29T07:53:56.993Z</time></trkpt><trkpt lat="45.54617507283779" lon="10.845111024375246"><ele>464.00000000000006</ele><time>2026-03-29T07:53:59.992Z</time></trkpt><trkpt lat="45.54609923597765" lon="10.845124597975502"><ele>464.00000000000006</ele><time>2026-03-29T07:54:02.992Z</time></trkpt><trkpt lat="45.546034175703525" lon="10.845124768832187"><ele>464.0</ele><time>2026-03-29T07:54:06.992Z</time></trkpt><trkpt lat="45.54596664988713" lon="10.845136484091924"><ele>464.00000000000006</ele><time>2026-03-29T07:54:11.992Z</time></trkpt><trkpt lat="45.54587803193035" lon="10.845153759002491"><ele>464.00000000000006</ele><time>2026-03-29T07:54:14.992Z</time></trkpt><trkpt lat="45.54581557762739" lon="10.84518701422277"><ele>464.0</ele><time>2026-03-29T07:54:20.991Z</time></trkpt><trkpt lat="45.54574142980331" lon="10.845197093870016"><ele>464.00000000000006</ele><time>2026-03-29T07:54:27.987Z</time></trkpt><trkpt lat="45.54567377136289" lon="10.845238442128101"><ele>464.00000000000006</ele><time>2026-03-29T07:54:34.987Z</time></trkpt><trkpt lat="45.545597347981925" lon="10.8452558598921"><ele>466.4285714285715</ele><time>2026-03-29T07:54:39.985Z</time></trkpt><trkpt lat="45.54552393970497" lon="10.845272368749038"><ele>468.8571428571429</ele><time>2026-03-29T07:54:43.985Z</time></trkpt><trkpt lat="45.54544715253665" lon="10.845290169718531"><ele>471.2857142857143</ele><time>2026-03-29T07:54:47.984Z</time></trkpt><trkpt lat="45.545381011043226" lon="10.84531427002618"><ele>473.7142857142857</ele><time>2026-03-29T07:54:50.984Z</time></trkpt><trkpt lat="45.54531448285941" lon="10.845350391962779"><ele>476.1428571428571</ele><time>2026-03-29T07:54:54.983Z</time></trkpt><trkpt lat="45.54523794690194" lon="10.845366694704722"><ele>478.5714285714285</ele><time>2026-03-29T07:54:58.983Z</time></trkpt><trkpt lat="45.54517183616792" lon="10.845401474512032"><ele>480.99999999999994</ele><time>2026-03-29T07:55:02.983Z</time></trkpt><trkpt lat="45.54509325608789" lon="10.845415937999126"><ele>481.6666666666667</ele><time>2026-03-29T07:55:06.982Z</time></trkpt><trkpt lat="45.54500567204785" lon="10.84543220382635"><ele>482.33333333333337</ele><time>2026-03-29T07:55:10.982Z</time></trkpt><trkpt lat="45.54493269581719" lon="10.845453353565166"><ele>483.0</ele><time>2026-03-29T07:55:14.982Z</time></trkpt><trkpt lat="45.54485948592484" lon="10.84548278602732"><ele>483.66666666666663</ele><time>2026-03-29T07:55:17.982Z</time></trkpt><trkpt lat="45.5447775698135" lon="10.845485476315936"><ele>484.3333333333333</ele><time>2026-03-29T07:55:20.982Z</time></trkpt><trkpt lat="45.544701255770946" lon="10.845516444685297"><ele>485.0</ele><time>2026-03-29T07:55:24.982Z</time></trkpt><trkpt lat="45.54463903230449" lon="10.84553742356608"><ele>485.00000000000006</ele><time>2026-03-29T07:55:28.981Z</time></trkpt><trkpt lat="45.54457060790524" lon="10.845541199274164"><ele>485.0</ele><time>2026-03-29T07:55:33.981Z</time></trkpt><trkpt lat="45.54450428066437" lon="10.845541322804381"><ele>485.00000000000006</ele><time>2026-03-29T07:55:37.981Z</time></trkpt><trkpt lat="45.54442813884574" lon="10.845548098131314"><ele>485.00000000000006</ele><time>2026-03-29T07:55:42.981Z</time></trkpt><trkpt lat="45.5443558212849" lon="10.845565095970182"><ele>485.0</ele><time>2026-03-29T07:55:48.981Z</time></trkpt><trkpt lat="45.54429059507879" lon="10.845571594469538"><ele>485.00000000000006</ele><time>2026-03-29T07:55:52.981Z</time></trkpt><trkpt lat="45.544214958266664" lon="10.845590501629193"><ele>485.00000000000006</ele><time>2026-03-29T07:55:57.981Z</time></trkpt><trkpt lat="45.54414775903133" lon="10.845602027327809"><ele>485.7142857142858</ele><time>2026-03-29T07:56:02.98Z</time></trkpt><trkpt lat="45.54408196258723" lon="10.845593315498464"><ele>486.42857142857144</ele><time>2026-03-29T07:56:07.98Z</time></trkpt><trkpt lat="45.54401263899025" lon="10.845588775220826"><ele>487.14285714285717</ele><time>2026-03-29T07:56:12.98Z</time></trkpt><trkpt lat="45.543942651367786" lon="10.845577231994046"><ele>487.8571428571429</ele><time>2026-03-29T07:56:16.98Z</time></trkpt><trkpt lat="45.54387780587957" lon="10.845574465140114"><ele>488.57142857142856</ele><time>2026-03-29T07:56:22.98Z</time></trkpt><trkpt lat="45.543805351090455" lon="10.845592431165974"><ele>489.2857142857143</ele><time>2026-03-29T07:56:27.98Z</time></trkpt><trkpt lat="45.543741784614916" lon="10.84558170971919"><ele>490.0</ele><time>2026-03-29T07:56:31.98Z</time></trkpt><trkpt lat="45.54367446605243" lon="10.84560061556609"><ele>490.2857142857143</ele><time>2026-03-29T07:56:35.979Z</time></trkpt><trkpt lat="45.54361799160802" lon="10.84565312868385"><ele>490.57142857142856</ele><time>2026-03-29T07:56:44.982Z</time></trkpt><trkpt lat="45.54357911819018" lon="10.845725861751314"><ele>490.8571428571429</ele><time>2026-03-29T07:56:50.982Z</time></trkpt><trkpt lat="45.543566000922524" lon="10.845825752961861"><ele>491.14285714285717</ele><time>2026-03-29T07:56:56.982Z</time></trkpt><trkpt lat="45.54357670920363" lon="10.8459149126946"><ele>491.42857142857144</ele><time>2026-03-29T07:57:02.982Z</time></trkpt><trkpt lat="45.54357635548925" lon="10.846005090893813"><ele>491.7142857142858</ele><time>2026-03-29T07:57:10.981Z</time></trkpt><trkpt lat="45.54355783505316" lon="10.846099731459441"><ele>492.00000000000006</ele><time>2026-03-29T07:57:16.981Z</time></trkpt><trkpt lat="45.54350033988998" lon="10.846148343639456"><ele>492.8333333333333</ele><time>2026-03-29T07:57:22.981Z</time></trkpt><trkpt lat="45.54351608994171" lon="10.846243791162866"><ele>493.66666666666663</ele><time>2026-03-29T07:57:27.981Z</time></trkpt><trkpt lat="45.54356597945218" lon="10.846316896427096"><ele>494.5</ele><time>2026-03-29T07:57:33.981Z</time></trkpt><trkpt lat="45.54368241438218" lon="10.846461112256833"><ele>495.3333333333333</ele><time>2026-03-29T07:58:17.979Z</time></trkpt><trkpt lat="45.543756129203324" lon="10.846501601647153"><ele>496.16666666666663</ele><time>2026-03-29T07:58:22.979Z</time></trkpt><trkpt lat="45.543831342631066" lon="10.846504271196823"><ele>497.0</ele><time>2026-03-29T07:58:26.979Z</time></trkpt><trkpt lat="45.543897041747165" lon="10.846514567196117"><ele>497.49999999999994</ele><time>2026-03-29T07:58:29.979Z</time></trkpt><trkpt lat="45.54397797538309" lon="10.846487111461949"><ele>498.0</ele><time>2026-03-29T07:58:33.979Z</time></trkpt><trkpt lat="45.544061120430456" lon="10.846486641556881"><ele>498.5</ele><time>2026-03-29T07:58:36.979Z</time></trkpt><trkpt lat="45.54414866690918" lon="10.846493894381352"><ele>499.0</ele><time>2026-03-29T07:58:39.979Z</time></trkpt><trkpt lat="45.54422414443882" lon="10.84651831111973"><ele>499.49999999999994</ele><time>2026-03-29T07:58:42.979Z</time></trkpt><trkpt lat="45.544287336927006" lon="10.846548424048503"><ele>500.0</ele><time>2026-03-29T07:58:44.979Z</time></trkpt><trkpt lat="45.54436312629893" lon="10.846582104541053"><ele>499.99999999999994</ele><time>2026-03-29T07:58:47.982Z</time></trkpt><trkpt lat="45.54441836904226" lon="10.846655098809695"><ele>500.0</ele><time>2026-03-29T07:58:50.982Z</time></trkpt><trkpt lat="45.54445389246386" lon="10.846760001872722"><ele>500.0</ele><time>2026-03-29T07:58:53.982Z</time></trkpt><trkpt lat="45.54452391623073" lon="10.846810499156996"><ele>500.0</ele><time>2026-03-29T07:58:56.982Z</time></trkpt><trkpt lat="45.54461109669795" lon="10.846802413830261"><ele>499.99999999999994</ele><time>2026-03-29T07:58:59.982Z</time></trkpt><trkpt lat="45.54469428575034" lon="10.846805792216468"><ele>500.0</ele><time>2026-03-29T07:59:02.982Z</time></trkpt><trkpt lat="45.54476696407422" lon="10.846818537767764"><ele>501.2857142857143</ele><time>2026-03-29T07:59:05.982Z</time></trkpt><trkpt lat="45.54484645565395" lon="10.846818831923079"><ele>502.57142857142856</ele><time>2026-03-29T07:59:08.982Z</time></trkpt><trkpt lat="45.54492445373176" lon="10.846831381520172"><ele>503.85714285714283</ele><time>2026-03-29T07:59:11.982Z</time></trkpt><trkpt lat="45.54498767642997" lon="10.846876842539425"><ele>505.1428571428571</ele><time>2026-03-29T07:59:14.982Z</time></trkpt><trkpt lat="45.54501885851426" lon="10.846970590601124"><ele>506.42857142857144</ele><time>2026-03-29T07:59:17.982Z</time></trkpt><trkpt lat="45.5450376874757" lon="10.847060141340197"><ele>507.71428571428567</ele><time>2026-03-29T07:59:20.981Z</time></trkpt><trkpt lat="45.545040032240216" lon="10.84715050421467"><ele>508.99999999999994</ele><time>2026-03-29T07:59:23.981Z</time></trkpt><trkpt lat="45.5450456145009" lon="10.847246243"><ele>508.99999999999994</ele><time>2026-03-29T07:59:29.981Z</time></trkpt><trkpt lat="45.545083675549705" lon="10.847336891770386"><ele>509.0</ele><time>2026-03-29T07:59:34.981Z</time></trkpt><trkpt lat="45.54507293424967" lon="10.84743269208299"><ele>508.99999999999994</ele><time>2026-03-29T07:59:37.981Z</time></trkpt><trkpt lat="45.545061084044995" lon="10.847529880792342"><ele>508.99999999999994</ele><time>2026-03-29T07:59:40.981Z</time></trkpt><trkpt lat="45.54505201659086" lon="10.847648953888292"><ele>509.0</ele><time>2026-03-29T07:59:44.981Z</time></trkpt><trkpt lat="45.545041227108776" lon="10.847762964271302"><ele>508.99999999999994</ele><time>2026-03-29T07:59:48.981Z</time></trkpt><trkpt lat="45.545028775201004" lon="10.847853056358055"><ele>508.99999999999994</ele><time>2026-03-29T07:59:51.981Z</time></trkpt><trkpt lat="45.545017045626544" lon="10.847963939308727"><ele>510.71428571428567</ele><time>2026-03-29T07:59:55.981Z</time></trkpt><trkpt lat="45.54499652500818" lon="10.84806873999066"><ele>512.4285714285714</ele><time>2026-03-29T08:00:00.98Z</time></trkpt><trkpt lat="45.544972915056256" lon="10.848171511389362"><ele>514.1428571428571</ele><time>2026-03-29T08:00:05.98Z</time></trkpt><trkpt lat="45.54495663934334" lon="10.84826586835475"><ele>515.8571428571429</ele><time>2026-03-29T08:00:10.98Z</time></trkpt><trkpt lat="45.54498671001929" lon="10.848359441196914"><ele>517.5714285714286</ele><time>2026-03-29T08:00:19.98Z</time></trkpt><trkpt lat="45.545054074873484" lon="10.848390019351548"><ele>519.2857142857142</ele><time>2026-03-29T08:00:26.98Z</time></trkpt><trkpt lat="45.54511573777162" lon="10.848421901808866"><ele>521.0</ele><time>2026-03-29T08:00:31.98Z</time></trkpt><trkpt lat="45.54518011263057" lon="10.848445849365968"><ele>522.7142857142857</ele><time>2026-03-29T08:00:36.979Z</time></trkpt><trkpt lat="45.545247070522024" lon="10.84847820062591"><ele>524.4285714285714</ele><time>2026-03-29T08:00:41.979Z</time></trkpt><trkpt lat="45.5453142672018" lon="10.848482102842697"><ele>526.1428571428571</ele><time>2026-03-29T08:00:46.979Z</time></trkpt><trkpt lat="45.54538325908048" lon="10.848520648010634"><ele>527.8571428571429</ele><time>2026-03-29T08:00:52.982Z</time></trkpt><trkpt lat="45.545442379972286" lon="10.848553479436134"><ele>529.5714285714286</ele><time>2026-03-29T08:00:57.982Z</time></trkpt><trkpt lat="45.54551292161314" lon="10.848597789086503"><ele>531.2857142857142</ele><time>2026-03-29T08:01:02.981Z</time></trkpt><trkpt lat="45.545579912758114" lon="10.848634934191809"><ele>533.0</ele><time>2026-03-29T08:01:07.982Z</time></trkpt><trkpt lat="45.54565103425906" lon="10.848650808216126"><ele>533.7142857142857</ele><time>2026-03-29T08:01:12.982Z</time></trkpt><trkpt lat="45.54571462687198" lon="10.848657530258885"><ele>534.4285714285713</ele><time>2026-03-29T08:01:19.981Z</time></trkpt><trkpt lat="45.545791380145445" lon="10.848664815574962"><ele>535.1428571428571</ele><time>2026-03-29T08:01:24.981Z</time></trkpt><trkpt lat="45.54585892315614" lon="10.8486774675494"><ele>535.8571428571429</ele><time>2026-03-29T08:01:30.981Z</time></trkpt><trkpt lat="45.54593187848288" lon="10.848656207564376"><ele>536.5714285714287</ele><time>2026-03-29T08:01:35.981Z</time></trkpt><trkpt lat="45.546006112731035" lon="10.848659153722242"><ele>537.2857142857143</ele><time>2026-03-29T08:01:40.981Z</time></trkpt><trkpt lat="45.54607429826736" lon="10.848657547970648"><ele>538.0</ele><time>2026-03-29T08:01:45.981Z</time></trkpt><trkpt lat="45.54615211506086" lon="10.848668124625087"><ele>538.7142857142858</ele><time>2026-03-29T08:01:50.98Z</time></trkpt><trkpt lat="45.54622623911091" lon="10.848679876134344"><ele>539.4285714285714</ele><time>2026-03-29T08:01:55.98Z</time></trkpt><trkpt lat="45.546287498920066" lon="10.848706173925759"><ele>540.1428571428571</ele><time>2026-03-29T08:02:00.98Z</time></trkpt><trkpt lat="45.54634105405757" lon="10.84875347761552"><ele>540.8571428571429</ele><time>2026-03-29T08:02:04.98Z</time></trkpt><trkpt lat="45.54639891485794" lon="10.848801664523759"><ele>541.5714285714286</ele><time>2026-03-29T08:02:09.98Z</time></trkpt><trkpt lat="45.54646078687506" lon="10.848829543060601"><ele>542.2857142857143</ele><time>2026-03-29T08:02:14.98Z</time></trkpt><trkpt lat="45.54652706568313" lon="10.848871204549226"><ele>543.0</ele><time>2026-03-29T08:02:19.98Z</time></trkpt><trkpt lat="45.546584889790786" lon="10.848929123149887"><ele>543.0</ele><time>2026-03-29T08:02:23.98Z</time></trkpt><trkpt lat="45.54664033395184" lon="10.848985943643711"><ele>543.0</ele><time>2026-03-29T08:02:28.979Z</time></trkpt><trkpt lat="45.54670298397731" lon="10.849030151297084"><ele>543.0</ele><time>2026-03-29T08:02:34.979Z</time></trkpt><trkpt lat="45.546772286472404" lon="10.84905434608414"><ele>543.0</ele><time>2026-03-29T08:02:39.979Z</time></trkpt><trkpt lat="45.546840297841456" lon="10.849075659896776"><ele>543.0</ele><time>2026-03-29T08:02:44.979Z</time></trkpt><trkpt lat="45.54690978343947" lon="10.849098204735306"><ele>543.0</ele><time>2026-03-29T08:02:48.979Z</time></trkpt><trkpt lat="45.54697043407113" lon="10.849141963072464"><ele>543.0</ele><time>2026-03-29T08:02:52.979Z</time></trkpt><trkpt lat="45.54703638643134" lon="10.84916483039004"><ele>542.5714285714286</ele><time>2026-03-29T08:02:56.979Z</time></trkpt><trkpt lat="45.54709579510617" lon="10.849209828058822"><ele>542.1428571428571</ele><time>2026-03-29T08:03:00.981Z</time></trkpt><trkpt lat="45.54716254524407" lon="10.8492606761796"><ele>541.7142857142857</ele><time>2026-03-29T08:03:04.981Z</time></trkpt><trkpt lat="45.547221801343504" lon="10.849300628003919"><ele>541.2857142857142</ele><time>2026-03-29T08:03:07.981Z</time></trkpt><trkpt lat="45.547264634445575" lon="10.849384722726116"><ele>540.8571428571428</ele><time>2026-03-29T08:03:13.981Z</time></trkpt><trkpt lat="45.54732603816472" lon="10.849418550097377"><ele>540.4285714285714</ele><time>2026-03-29T08:03:17.981Z</time></trkpt><trkpt lat="45.54740265502629" lon="10.849475481111128"><ele>540.0</ele><time>2026-03-29T08:03:20.981Z</time></trkpt><trkpt lat="45.54746210768521" lon="10.849520495746358"><ele>542.8333333333334</ele><time>2026-03-29T08:03:23.981Z</time></trkpt><trkpt lat="45.547524984439875" lon="10.849576567219282"><ele>545.6666666666666</ele><time>2026-03-29T08:03:26.981Z</time></trkpt><trkpt lat="45.547589095976015" lon="10.849636153430747"><ele>548.5</ele><time>2026-03-29T08:03:29.981Z</time></trkpt><trkpt lat="45.547640078352735" lon="10.849709110716557"><ele>551.3333333333333</ele><time>2026-03-29T08:03:32.981Z</time></trkpt><trkpt lat="45.54769823683071" lon="10.849788779573208"><ele>554.1666666666666</ele><time>2026-03-29T08:03:35.981Z</time></trkpt><trkpt lat="45.547757155960966" lon="10.849867415826916"><ele>557.0</ele><time>2026-03-29T08:03:38.981Z</time></trkpt><trkpt lat="45.547814709948895" lon="10.84993354666909"><ele>557.0</ele><time>2026-03-29T08:03:41.981Z</time></trkpt><trkpt lat="45.54787448255353" lon="10.850000543495705"><ele>557.0</ele><time>2026-03-29T08:03:44.981Z</time></trkpt><trkpt lat="45.547930630028674" lon="10.850067575356553"><ele>557.0</ele><time>2026-03-29T08:03:47.981Z</time></trkpt><trkpt lat="45.54799047464452" lon="10.850137779048266"><ele>557.0</ele><time>2026-03-29T08:03:50.98Z</time></trkpt><trkpt lat="45.54805009559009" lon="10.850198625675402"><ele>557.0</ele><time>2026-03-29T08:03:53.98Z</time></trkpt><trkpt lat="45.548110749430435" lon="10.85025269689046"><ele>557.0</ele><time>2026-03-29T08:03:56.98Z</time></trkpt><trkpt lat="45.548173051961214" lon="10.85032739563007"><ele>558.0</ele><time>2026-03-29T08:03:59.98Z</time></trkpt><trkpt lat="45.54822851446184" lon="10.850395880934997"><ele>559.0</ele><time>2026-03-29T08:04:02.98Z</time></trkpt><trkpt lat="45.548288196118506" lon="10.850469223768183"><ele>560.0</ele><time>2026-03-29T08:04:05.98Z</time></trkpt><trkpt lat="45.54834306808483" lon="10.850541184384"><ele>561.0</ele><time>2026-03-29T08:04:08.98Z</time></trkpt><trkpt lat="45.548390255315816" lon="10.850636265919508"><ele>562.0</ele><time>2026-03-29T08:04:11.98Z</time></trkpt><trkpt lat="45.54841447822485" lon="10.850739757097651"><ele>563.0</ele><time>2026-03-29T08:04:14.98Z</time></trkpt><trkpt lat="45.548435754416566" lon="10.850843762845884"><ele>563.0</ele><time>2026-03-29T08:04:17.98Z</time></trkpt><trkpt lat="45.5484715420126" lon="10.85093929967551"><ele>563.0</ele><time>2026-03-29T08:04:20.98Z</time></trkpt><trkpt lat="45.54849400978032" lon="10.851050051216733"><ele>563.0</ele><time>2026-03-29T08:04:23.98Z</time></trkpt><trkpt lat="45.548518703286376" lon="10.851147450611556"><ele>563.0</ele><time>2026-03-29T08:04:26.979Z</time></trkpt><trkpt lat="45.548537760245374" lon="10.85125392748166"><ele>563.0</ele><time>2026-03-29T08:04:29.979Z</time></trkpt><trkpt lat="45.548564971967004" lon="10.85134275322982"><ele>563.0</ele><time>2026-03-29T08:04:32.979Z</time></trkpt><trkpt lat="45.548591331939825" lon="10.8514402984726"><ele>563.0</ele><time>2026-03-29T08:04:35.979Z</time></trkpt><trkpt lat="45.5486227776296" lon="10.851531692010706"><ele>564.4285714285714</ele><time>2026-03-29T08:04:38.979Z</time></trkpt><trkpt lat="45.54865800043752" lon="10.851609611763974"><ele>565.8571428571429</ele><time>2026-03-29T08:04:41.979Z</time></trkpt><trkpt lat="45.54868926897313" lon="10.85169534278733"><ele>567.2857142857143</ele><time>2026-03-29T08:04:44.979Z</time></trkpt><trkpt lat="45.54870824777055" lon="10.851798159599939"><ele>568.7142857142858</ele><time>2026-03-29T08:04:47.979Z</time></trkpt><trkpt lat="45.54874385905379" lon="10.851895646100608"><ele>570.1428571428572</ele><time>2026-03-29T08:04:50.979Z</time></trkpt><trkpt lat="45.54878300858287" lon="10.851977556014571"><ele>571.5714285714286</ele><time>2026-03-29T08:04:53.979Z</time></trkpt><trkpt lat="45.54881890049616" lon="10.852080374189711"><ele>573.0</ele><time>2026-03-29T08:04:56.979Z</time></trkpt><trkpt lat="45.54885004965174" lon="10.852183374771812"><ele>573.0</ele><time>2026-03-29T08:05:00.979Z</time></trkpt><trkpt lat="45.548887559738155" lon="10.852279257943346"><ele>573.0</ele><time>2026-03-29T08:05:04.981Z</time></trkpt><trkpt lat="45.54892130578162" lon="10.852358436974756"><ele>573.0</ele><time>2026-03-29T08:05:08.98Z</time></trkpt><trkpt lat="45.54895966460268" lon="10.852432096824176"><ele>573.0</ele><time>2026-03-29T08:05:13.981Z</time></trkpt><trkpt lat="45.548994405885026" lon="10.852508903830808"><ele>573.0</ele><time>2026-03-29T08:05:17.98Z</time></trkpt><trkpt lat="45.54903578756383" lon="10.85260691887267"><ele>573.0</ele><time>2026-03-29T08:05:22.98Z</time></trkpt><trkpt lat="45.54905759834989" lon="10.852723212924332"><ele>573.0</ele><time>2026-03-29T08:05:26.98Z</time></trkpt><trkpt lat="45.54900456378898" lon="10.852806510184262"><ele>574.4285714285714</ele><time>2026-03-29T08:05:30.98Z</time></trkpt><trkpt lat="45.548952704251334" lon="10.852872343006721"><ele>575.8571428571429</ele><time>2026-03-29T08:05:33.98Z</time></trkpt><trkpt lat="45.548894346214716" lon="10.852924879617946"><ele>577.2857142857143</ele><time>2026-03-29T08:05:36.98Z</time></trkpt><trkpt lat="45.54882874641884" lon="10.852983699431412"><ele>578.7142857142858</ele><time>2026-03-29T08:05:39.98Z</time></trkpt><trkpt lat="45.5487720995438" lon="10.853034786934865"><ele>580.1428571428571</ele><time>2026-03-29T08:05:42.98Z</time></trkpt><trkpt lat="45.54870718342081" lon="10.853068698501417"><ele>581.5714285714287</ele><time>2026-03-29T08:05:45.98Z</time></trkpt><trkpt lat="45.548640051461156" lon="10.853095976806713"><ele>583.0</ele><time>2026-03-29T08:05:49.98Z</time></trkpt><trkpt lat="45.54857371479531" lon="10.853152104651782"><ele>583.2857142857143</ele><time>2026-03-29T08:05:52.979Z</time></trkpt><trkpt lat="45.54851648402383" lon="10.85323230419716"><ele>583.5714285714286</ele><time>2026-03-29T08:05:55.979Z</time></trkpt><trkpt lat="45.54846006264239" lon="10.853287009809348"><ele>583.8571428571429</ele><time>2026-03-29T08:05:58.979Z</time></trkpt><trkpt lat="45.548395512248035" lon="10.853302130925268"><ele>584.1428571428571</ele><time>2026-03-29T08:06:02.979Z</time></trkpt><trkpt lat="45.54834279772607" lon="10.85336827005489"><ele>584.4285714285714</ele><time>2026-03-29T08:06:07.979Z</time></trkpt><trkpt lat="45.54828788654508" lon="10.853297353618824"><ele>584.7142857142858</ele><time>2026-03-29T08:06:23.979Z</time></trkpt><trkpt lat="45.548263973906586" lon="10.853205239576752"><ele>585.0</ele><time>2026-03-29T08:06:26.978Z</time></trkpt><trkpt lat="45.54821911715769" lon="10.853118869854924"><ele>585.0</ele><time>2026-03-29T08:06:29.978Z</time></trkpt><trkpt lat="45.548165627739635" lon="10.853037728890541"><ele>585.0</ele><time>2026-03-29T08:06:33.978Z</time></trkpt><trkpt lat="45.54811849299105" lon="10.852946419997522"><ele>585.0</ele><time>2026-03-29T08:06:37.978Z</time></trkpt><trkpt lat="45.54807157019027" lon="10.852845230925748"><ele>585.0</ele><time>2026-03-29T08:06:41.978Z</time></trkpt><trkpt lat="45.548019727814754" lon="10.852768240772622"><ele>585.0</ele><time>2026-03-29T08:06:45.978Z</time></trkpt><trkpt lat="45.547967218654215" lon="10.852681809250539"><ele>585.0</ele><time>2026-03-29T08:06:49.978Z</time></trkpt><trkpt lat="45.54789794448201" lon="10.852622187552624"><ele>584.3333333333334</ele><time>2026-03-29T08:06:53.978Z</time></trkpt><trkpt lat="45.547874600164015" lon="10.852526094672712"><ele>583.6666666666666</ele><time>2026-03-29T08:06:56.978Z</time></trkpt><trkpt lat="45.5478532569967" lon="10.852413875827784"><ele>583.0</ele><time>2026-03-29T08:06:59.978Z</time></trkpt><trkpt lat="45.54783547519771" lon="10.85231297095614"><ele>582.3333333333333</ele><time>2026-03-29T08:07:02.977Z</time></trkpt><trkpt lat="45.547806372808495" lon="10.85220533175447"><ele>581.6666666666666</ele><time>2026-03-29T08:07:06.977Z</time></trkpt><trkpt lat="45.54775153242463" lon="10.852119053667218"><ele>581.0</ele><time>2026-03-29T08:07:10.98Z</time></trkpt><trkpt lat="45.54773596295077" lon="10.852028014456472"><ele>581.0</ele><time>2026-03-29T08:07:13.981Z</time></trkpt><trkpt lat="45.54773157100621" lon="10.851907041887467"><ele>581.0</ele><time>2026-03-29T08:07:16.98Z</time></trkpt><trkpt lat="45.54773031344732" lon="10.851797118849158"><ele>581.0</ele><time>2026-03-29T08:07:19.98Z</time></trkpt><trkpt lat="45.547750868640485" lon="10.851679395696305"><ele>581.0</ele><time>2026-03-29T08:07:22.981Z</time></trkpt><trkpt lat="45.54775940765062" lon="10.851572204275525"><ele>581.0</ele><time>2026-03-29T08:07:25.981Z</time></trkpt><trkpt lat="45.54775287021673" lon="10.851450066523176"><ele>581.0</ele><time>2026-03-29T08:07:28.981Z</time></trkpt><trkpt lat="45.547710129302956" lon="10.851364300850818"><ele>580.7142857142857</ele><time>2026-03-29T08:07:31.981Z</time></trkpt><trkpt lat="45.5476518720196" lon="10.851322064787661"><ele>580.4285714285714</ele><time>2026-03-29T08:07:34.98Z</time></trkpt><trkpt lat="45.5475844717476" lon="10.851279231774974"><ele>580.1428571428571</ele><time>2026-03-29T08:07:38.98Z</time></trkpt><trkpt lat="45.54751313052437" lon="10.851226670083399"><ele>579.8571428571429</ele><time>2026-03-29T08:07:42.98Z</time></trkpt><trkpt lat="45.54745817345248" lon="10.851168288527605"><ele>579.5714285714286</ele><time>2026-03-29T08:07:45.98Z</time></trkpt><trkpt lat="45.547388672311" lon="10.85113544347691"><ele>579.2857142857142</ele><time>2026-03-29T08:07:48.98Z</time></trkpt><trkpt lat="45.54731492503579" lon="10.851070169990964"><ele>579.0</ele><time>2026-03-29T08:07:51.98Z</time></trkpt><trkpt lat="45.547241719625035" lon="10.851028273782205"><ele>577.5</ele><time>2026-03-29T08:07:54.98Z</time></trkpt><trkpt lat="45.54718143386972" lon="10.85095018154031"><ele>576.0</ele><time>2026-03-29T08:07:57.98Z</time></trkpt><trkpt lat="45.547112344251346" lon="10.85087052422084"><ele>574.5</ele><time>2026-03-29T08:08:00.98Z</time></trkpt><trkpt lat="45.54704936720036" lon="10.850790333460692"><ele>573.0</ele><time>2026-03-29T08:08:03.98Z</time></trkpt><trkpt lat="45.54699883349731" lon="10.850705863636467"><ele>571.5</ele><time>2026-03-29T08:08:06.98Z</time></trkpt><trkpt lat="45.54692977033605" lon="10.850651257540326"><ele>570.0</ele><time>2026-03-29T08:08:09.98Z</time></trkpt><trkpt lat="45.546866687063726" lon="10.850618882665904"><ele>569.6666666666666</ele><time>2026-03-29T08:08:12.979Z</time></trkpt><trkpt lat="45.546793021260434" lon="10.850615000722039"><ele>569.3333333333334</ele><time>2026-03-29T08:08:15.979Z</time></trkpt><trkpt lat="45.54671663860336" lon="10.85063810673176"><ele>569.0</ele><time>2026-03-29T08:08:18.979Z</time></trkpt><trkpt lat="45.54663674149633" lon="10.850651628228398"><ele>568.6666666666667</ele><time>2026-03-29T08:08:21.979Z</time></trkpt><trkpt lat="45.54655307924547" lon="10.850665163943708"><ele>568.3333333333334</ele><time>2026-03-29T08:08:24.979Z</time></trkpt><trkpt lat="45.5464908918994" lon="10.850679191301106"><ele>568.0</ele><time>2026-03-29T08:08:26.979Z</time></trkpt><trkpt lat="45.54639782985482" lon="10.85069702986023"><ele>568.0</ele><time>2026-03-29T08:08:29.979Z</time></trkpt><trkpt lat="45.54633806766878" lon="10.850731647163228"><ele>568.0</ele><time>2026-03-29T08:08:31.979Z</time></trkpt><trkpt lat="45.54627409922961" lon="10.850741429279323"><ele>568.0</ele><time>2026-03-29T08:08:33.979Z</time></trkpt><trkpt lat="45.54620249323649" lon="10.850762781532081"><ele>568.0</ele><time>2026-03-29T08:08:35.979Z</time></trkpt><trkpt lat="45.5461333959959" lon="10.850756180502843"><ele>568.0</ele><time>2026-03-29T08:08:37.979Z</time></trkpt><trkpt lat="45.546057686838" lon="10.850760059822363"><ele>568.0</ele><time>2026-03-29T08:08:40.979Z</time></trkpt><trkpt lat="45.54598401270317" lon="10.850744051930121"><ele>568.0</ele><time>2026-03-29T08:08:43.979Z</time></trkpt><trkpt lat="45.54591378382386" lon="10.85071184705281"><ele>566.8333333333334</ele><time>2026-03-29T08:08:46.978Z</time></trkpt><trkpt lat="45.54584376352266" lon="10.850669820550996"><ele>565.6666666666667</ele><time>2026-03-29T08:08:49.978Z</time></trkpt><trkpt lat="45.54575858501407" lon="10.850616575435007"><ele>564.5</ele><time>2026-03-29T08:08:52.978Z</time></trkpt><trkpt lat="45.545694635847305" lon="10.850575382416306"><ele>563.3333333333334</ele><time>2026-03-29T08:08:54.978Z</time></trkpt><trkpt lat="45.54563220857656" lon="10.850535644704424"><ele>562.1666666666666</ele><time>2026-03-29T08:08:56.978Z</time></trkpt><trkpt lat="45.54557705427074" lon="10.850471439517596"><ele>561.0</ele><time>2026-03-29T08:08:58.978Z</time></trkpt><trkpt lat="45.54551047465444" lon="10.850426149201992"><ele>561.0</ele><time>2026-03-29T08:09:00.978Z</time></trkpt><trkpt lat="45.545438258129515" lon="10.850379081214522"><ele>561.0</ele><time>2026-03-29T08:09:02.978Z</time></trkpt><trkpt lat="45.54537137357918" lon="10.850334717381063"><ele>561.0</ele><time>2026-03-29T08:09:04.978Z</time></trkpt><trkpt lat="45.54530756711319" lon="10.850286188514028"><ele>561.0</ele><time>2026-03-29T08:09:06.978Z</time></trkpt><trkpt lat="45.545248835278926" lon="10.850222629141037"><ele>561.0</ele><time>2026-03-29T08:09:08.978Z</time></trkpt><trkpt lat="45.545172989976415" lon="10.850167906784963"><ele>561.0</ele><time>2026-03-29T08:09:10.978Z</time></trkpt><trkpt lat="45.54511223561997" lon="10.850117563814445"><ele>557.5</ele><time>2026-03-29T08:09:12.978Z</time></trkpt><trkpt lat="45.54504036266448" lon="10.85007080199234"><ele>554.0</ele><time>2026-03-29T08:09:14.978Z</time></trkpt><trkpt lat="45.544980846011406" lon="10.850025582496016"><ele>550.5</ele><time>2026-03-29T08:09:16.98Z</time></trkpt><trkpt lat="45.54492042138629" lon="10.8499685878724"><ele>547.0</ele><time>2026-03-29T08:09:18.98Z</time></trkpt><trkpt lat="45.54485459633864" lon="10.84991147428742"><ele>543.5</ele><time>2026-03-29T08:09:20.979Z</time></trkpt><trkpt lat="45.54478763646173" lon="10.849866437431565"><ele>540.0</ele><time>2026-03-29T08:09:22.98Z</time></trkpt><trkpt lat="45.54471768037867" lon="10.849808995139"><ele>540.0</ele><time>2026-03-29T08:09:24.98Z</time></trkpt><trkpt lat="45.54466302003739" lon="10.849757298646452"><ele>540.0</ele><time>2026-03-29T08:09:26.98Z</time></trkpt><trkpt lat="45.54460179121856" lon="10.849702592278145"><ele>540.0</ele><time>2026-03-29T08:09:28.98Z</time></trkpt><trkpt lat="45.54453539911206" lon="10.849665671974916"><ele>540.0</ele><time>2026-03-29T08:09:30.98Z</time></trkpt><trkpt lat="45.544465912084824" lon="10.8496064769296"><ele>540.0</ele><time>2026-03-29T08:09:33.979Z</time></trkpt><trkpt lat="45.54438723952124" lon="10.84959258533594"><ele>540.0</ele><time>2026-03-29T08:09:37.978Z</time></trkpt><trkpt lat="45.54432879625881" lon="10.84955053382131"><ele>540.0</ele><time>2026-03-29T08:09:40.977Z</time></trkpt><trkpt lat="45.544270235238386" lon="10.849475528240312"><ele>538.1666666666666</ele><time>2026-03-29T08:09:43.977Z</time></trkpt><trkpt lat="45.54422144250561" lon="10.849403979216925"><ele>536.3333333333334</ele><time>2026-03-29T08:09:45.977Z</time></trkpt><trkpt lat="45.54418553305198" lon="10.84927854565367"><ele>534.5</ele><time>2026-03-29T08:09:48.976Z</time></trkpt><trkpt lat="45.544160447466346" lon="10.849184283376275"><ele>532.6666666666667</ele><time>2026-03-29T08:09:50.976Z</time></trkpt><trkpt lat="45.544152576632584" lon="10.84905348728889"><ele>530.8333333333334</ele><time>2026-03-29T08:09:53.976Z</time></trkpt><trkpt lat="45.54415199217203" lon="10.848954357358416"><ele>529.0</ele><time>2026-03-29T08:09:55.975Z</time></trkpt><trkpt lat="45.54417375003025" lon="10.848859728067728"><ele>527.6666666666667</ele><time>2026-03-29T08:09:57.975Z</time></trkpt><trkpt lat="45.544190284276404" lon="10.848751064226523"><ele>526.3333333333334</ele><time>2026-03-29T08:10:00.975Z</time></trkpt><trkpt lat="45.54421858308334" lon="10.848636086189765"><ele>525.0</ele><time>2026-03-29T08:10:03.975Z</time></trkpt><trkpt lat="45.54426241083655" lon="10.848522130510986"><ele>523.6666666666666</ele><time>2026-03-29T08:10:06.974Z</time></trkpt><trkpt lat="45.544325603091764" lon="10.848454831572012"><ele>522.3333333333333</ele><time>2026-03-29T08:10:09.974Z</time></trkpt><trkpt lat="45.54436929164758" lon="10.848365018740585"><ele>521.0</ele><time>2026-03-29T08:10:12.974Z</time></trkpt><trkpt lat="45.544421094277176" lon="10.848298444850426"><ele>521.0</ele><time>2026-03-29T08:10:15.974Z</time></trkpt><trkpt lat="45.54448229657993" lon="10.848250986352147"><ele>521.0</ele><time>2026-03-29T08:10:18.974Z</time></trkpt><trkpt lat="45.544545692677424" lon="10.84821880801218"><ele>521.0</ele><time>2026-03-29T08:10:22.974Z</time></trkpt><trkpt lat="45.54461002509211" lon="10.848204996518211"><ele>521.0</ele><time>2026-03-29T08:10:29.973Z</time></trkpt><trkpt lat="45.544551632446556" lon="10.848153228262218"><ele>521.0</ele><time>2026-03-29T08:10:37.973Z</time></trkpt><trkpt lat="45.54447689344855" lon="10.848103747651137"><ele>521.0</ele><time>2026-03-29T08:10:42.973Z</time></trkpt><trkpt lat="45.544408923636865" lon="10.848045188821827"><ele>521.0</ele><time>2026-03-29T08:10:45.973Z</time></trkpt><trkpt lat="45.54432769544782" lon="10.848020954225866"><ele>519.8333333333333</ele><time>2026-03-29T08:10:48.973Z</time></trkpt><trkpt lat="45.5442434975738" lon="10.848018161694231"><ele>518.6666666666666</ele><time>2026-03-29T08:10:51.973Z</time></trkpt><trkpt lat="45.54415797118305" lon="10.848015011794386"><ele>517.5</ele><time>2026-03-29T08:10:54.973Z</time></trkpt><trkpt lat="45.5440781723307" lon="10.848021264886146"><ele>516.3333333333334</ele><time>2026-03-29T08:10:57.973Z</time></trkpt><trkpt lat="45.544003443499385" lon="10.847988693045734"><ele>515.1666666666667</ele><time>2026-03-29T08:11:00.972Z</time></trkpt><trkpt lat="45.54391841212828" lon="10.847976478999222"><ele>514.0</ele><time>2026-03-29T08:11:03.972Z</time></trkpt><trkpt lat="45.543844360196864" lon="10.847976896385234"><ele>514.0</ele><time>2026-03-29T08:11:06.972Z</time></trkpt><trkpt lat="45.54377476081012" lon="10.847998440414296"><ele>514.0</ele><time>2026-03-29T08:11:10.972Z</time></trkpt><trkpt lat="45.5437480803824" lon="10.848083520791038"><ele>514.0</ele><time>2026-03-29T08:11:14.972Z</time></trkpt><trkpt lat="45.54370143813284" lon="10.8481497603819"><ele>514.0</ele><time>2026-03-29T08:11:24.975Z</time></trkpt><trkpt lat="45.543651615677604" lon="10.848235498951697"><ele>514.0</ele><time>2026-03-29T08:11:33.974Z</time></trkpt><trkpt lat="45.54362937264025" lon="10.84832258046817"><ele>514.0</ele><time>2026-03-29T08:11:39.975Z</time></trkpt><trkpt lat="45.54363882351833" lon="10.848422379581383"><ele>514.0</ele><time>2026-03-29T08:11:44.974Z</time></trkpt><trkpt lat="45.54362048830795" lon="10.84852345766373"><ele>512.4285714285714</ele><time>2026-03-29T08:11:49.974Z</time></trkpt><trkpt lat="45.54359948415799" lon="10.84861358291412"><ele>510.8571428571429</ele><time>2026-03-29T08:11:54.974Z</time></trkpt><trkpt lat="45.54357374220647" lon="10.848710029358884"><ele>509.28571428571433</ele><time>2026-03-29T08:11:58.974Z</time></trkpt><trkpt lat="45.54355181661305" lon="10.848795949972835"><ele>507.7142857142857</ele><time>2026-03-29T08:12:02.974Z</time></trkpt><trkpt lat="45.54353977829207" lon="10.848917959764231"><ele>506.1428571428572</ele><time>2026-03-29T08:12:06.974Z</time></trkpt><trkpt lat="45.54352492159509" lon="10.849014178529913"><ele>504.5714285714286</ele><time>2026-03-29T08:12:09.974Z</time></trkpt><trkpt lat="45.543493599589056" lon="10.849096450850718"><ele>503.0</ele><time>2026-03-29T08:12:12.974Z</time></trkpt><trkpt lat="45.54347064207966" lon="10.849197261435728"><ele>503.0</ele><time>2026-03-29T08:12:15.974Z</time></trkpt><trkpt lat="45.5434472699096" lon="10.849290438453075"><ele>503.00000000000006</ele><time>2026-03-29T08:12:18.973Z</time></trkpt><trkpt lat="45.54343442832504" lon="10.849390790300786"><ele>503.0</ele><time>2026-03-29T08:12:21.973Z</time></trkpt><trkpt lat="45.54338833485406" lon="10.849480601675491"><ele>503.0</ele><time>2026-03-29T08:12:24.973Z</time></trkpt><trkpt lat="45.543341918462154" lon="10.849547543455257"><ele>503.00000000000006</ele><time>2026-03-29T08:12:27.973Z</time></trkpt><trkpt lat="45.54328769412698" lon="10.849596739969142"><ele>503.0</ele><time>2026-03-29T08:12:32.973Z</time></trkpt><trkpt lat="45.543220332541175" lon="10.849635740483356"><ele>503.0</ele><time>2026-03-29T08:12:40.973Z</time></trkpt><trkpt lat="45.543157493845506" lon="10.84969518268623"><ele>501.66666666666663</ele><time>2026-03-29T08:12:43.973Z</time></trkpt><trkpt lat="45.54309261939303" lon="10.849742089030755"><ele>500.3333333333333</ele><time>2026-03-29T08:12:46.973Z</time></trkpt><trkpt lat="45.543031072776905" lon="10.849782382513105"><ele>499.0</ele><time>2026-03-29T08:12:49.973Z</time></trkpt><trkpt lat="45.542965373333956" lon="10.84982066077524"><ele>497.66666666666663</ele><time>2026-03-29T08:12:52.972Z</time></trkpt><trkpt lat="45.542886141694595" lon="10.84987184288983"><ele>496.3333333333333</ele><time>2026-03-29T08:12:55.972Z</time></trkpt><trkpt lat="45.54280252794958" lon="10.84990513162459"><ele>495.0</ele><time>2026-03-29T08:12:58.972Z</time></trkpt><trkpt lat="45.54273216869678" lon="10.849943038666565"><ele>495.0</ele><time>2026-03-29T08:13:01.972Z</time></trkpt><trkpt lat="45.54265502833234" lon="10.84998496879489"><ele>495.0</ele><time>2026-03-29T08:13:04.972Z</time></trkpt><trkpt lat="45.5425648706183" lon="10.850002284412165"><ele>495.0</ele><time>2026-03-29T08:13:07.972Z</time></trkpt><trkpt lat="45.54248026508863" lon="10.850009595813392"><ele>495.0</ele><time>2026-03-29T08:13:10.972Z</time></trkpt><trkpt lat="45.54240803552285" lon="10.850024073479313"><ele>495.0</ele><time>2026-03-29T08:13:13.972Z</time></trkpt><trkpt lat="45.54233903110714" lon="10.850024795449492"><ele>495.0</ele><time>2026-03-29T08:13:16.972Z</time></trkpt><trkpt lat="45.54226317269381" lon="10.850022690477708"><ele>495.0</ele><time>2026-03-29T08:13:20.972Z</time></trkpt><trkpt lat="45.542197060966714" lon="10.850066703406814"><ele>495.0</ele><time>2026-03-29T08:13:25.971Z</time></trkpt><trkpt lat="45.542151149231344" lon="10.850137628926317"><ele>495.0</ele><time>2026-03-29T08:13:29.974Z</time></trkpt><trkpt lat="45.54209892158714" lon="10.850224723629333"><ele>495.0</ele><time>2026-03-29T08:13:33.974Z</time></trkpt><trkpt lat="45.54204145556452" lon="10.85032703797674"><ele>495.0</ele><time>2026-03-29T08:13:36.974Z</time></trkpt><trkpt lat="45.542015313454456" lon="10.850439039870421"><ele>495.0</ele><time>2026-03-29T08:13:39.974Z</time></trkpt><trkpt lat="45.5419829543984" lon="10.850535206694135"><ele>492.1428571428571</ele><time>2026-03-29T08:13:43.973Z</time></trkpt><trkpt lat="45.54194377270375" lon="10.850636112178035"><ele>489.2857142857143</ele><time>2026-03-29T08:13:47.973Z</time></trkpt><trkpt lat="45.541908290296156" lon="10.850714800125765"><ele>486.42857142857144</ele><time>2026-03-29T08:13:51.973Z</time></trkpt><trkpt lat="45.54188261093655" lon="10.85081763410558"><ele>483.57142857142856</ele><time>2026-03-29T08:13:55.973Z</time></trkpt><trkpt lat="45.54185866005199" lon="10.850923820787067"><ele>480.7142857142858</ele><time>2026-03-29T08:13:59.973Z</time></trkpt><trkpt lat="45.54182987634325" lon="10.851019968790153"><ele>477.8571428571429</ele><time>2026-03-29T08:14:03.973Z</time></trkpt><trkpt lat="45.541812197331126" lon="10.851120402877394"><ele>475.0</ele><time>2026-03-29T08:14:08.973Z</time></trkpt><trkpt lat="45.541777426891414" lon="10.85119696458835"><ele>474.14285714285717</ele><time>2026-03-29T08:15:12.971Z</time></trkpt><trkpt lat="45.54177500152833" lon="10.851300051985614"><ele>473.28571428571433</ele><time>2026-03-29T08:15:26.97Z</time></trkpt><trkpt lat="45.54177113230106" lon="10.851392103510738"><ele>472.42857142857144</ele><time>2026-03-29T08:15:34.973Z</time></trkpt><trkpt lat="45.54171934456281" lon="10.851336537447827"><ele>471.57142857142856</ele><time>2026-03-29T08:15:40.973Z</time></trkpt><trkpt lat="45.5416752819206" lon="10.8512677626171"><ele>470.7142857142857</ele><time>2026-03-29T08:15:49.973Z</time></trkpt><trkpt lat="45.54165596569205" lon="10.851159034501109"><ele>469.8571428571429</ele><time>2026-03-29T08:15:53.973Z</time></trkpt><trkpt lat="45.541621694158174" lon="10.851068693536682"><ele>469.0</ele><time>2026-03-29T08:15:57.972Z</time></trkpt><trkpt lat="45.54161970417715" lon="10.850963520236515"><ele>470.00000000000006</ele><time>2026-03-29T08:16:01.972Z</time></trkpt><trkpt lat="45.54161640935618" lon="10.850852241920263"><ele>471.0</ele><time>2026-03-29T08:16:04.972Z</time></trkpt><trkpt lat="45.541614491858105" lon="10.850737455773126"><ele>472.0</ele><time>2026-03-29T08:16:07.972Z</time></trkpt><trkpt lat="45.541617639788626" lon="10.850629221726543"><ele>473.0</ele><time>2026-03-29T08:16:10.972Z</time></trkpt><trkpt lat="45.54163199675142" lon="10.850538456420708"><ele>474.00000000000006</ele><time>2026-03-29T08:16:13.972Z</time></trkpt><trkpt lat="45.54164419173" lon="10.850438297374843"><ele>475.0</ele><time>2026-03-29T08:16:16.972Z</time></trkpt><trkpt lat="45.541650233718606" lon="10.850319342662551"><ele>475.0</ele><time>2026-03-29T08:16:19.972Z</time></trkpt><trkpt lat="45.54168416126679" lon="10.850214871161297"><ele>475.00000000000006</ele><time>2026-03-29T08:16:22.972Z</time></trkpt><trkpt lat="45.541697484019764" lon="10.850109588630323"><ele>475.0</ele><time>2026-03-29T08:16:25.972Z</time></trkpt><trkpt lat="45.54170600053503" lon="10.850019068403714"><ele>475.0</ele><time>2026-03-29T08:16:28.972Z</time></trkpt><trkpt lat="45.541709467755325" lon="10.849909904197464"><ele>475.00000000000006</ele><time>2026-03-29T08:16:32.971Z</time></trkpt><trkpt lat="45.54170677644365" lon="10.84980863235608"><ele>475.0</ele><time>2026-03-29T08:16:39.971Z</time></trkpt><trkpt lat="45.541741011508236" lon="10.849726015125233"><ele>475.0</ele><time>2026-03-29T08:16:43.971Z</time></trkpt><trkpt lat="45.54177863353711" lon="10.849630507865534"><ele>474.28571428571433</ele><time>2026-03-29T08:16:49.971Z</time></trkpt><trkpt lat="45.541835940438766" lon="10.849589439344115"><ele>473.5714285714286</ele><time>2026-03-29T08:16:53.971Z</time></trkpt><trkpt lat="45.54190367044724" lon="10.849511130451578"><ele>472.8571428571429</ele><time>2026-03-29T08:16:57.971Z</time></trkpt><trkpt lat="45.54196175379809" lon="10.849465665650563"><ele>472.1428571428571</ele><time>2026-03-29T08:17:01.971Z</time></trkpt><trkpt lat="45.542000587050204" lon="10.849387406403633"><ele>471.4285714285714</ele><time>2026-03-29T08:17:05.971Z</time></trkpt><trkpt lat="45.54207676908291" lon="10.849380821018665"><ele>470.71428571428567</ele><time>2026-03-29T08:17:27.97Z</time></trkpt><trkpt lat="45.542162320207815" lon="10.849392360612976"><ele>470.0</ele><time>2026-03-29T08:17:32.97Z</time></trkpt><trkpt lat="45.54223259260598" lon="10.849394242866353"><ele>471.0</ele><time>2026-03-29T08:17:36.97Z</time></trkpt><trkpt lat="45.54230772460394" lon="10.849368975099257"><ele>471.99999999999994</ele><time>2026-03-29T08:17:40.972Z</time></trkpt><trkpt lat="45.54237305459447" lon="10.849365389482449"><ele>473.0</ele><time>2026-03-29T08:17:43.973Z</time></trkpt><trkpt lat="45.54245287324254" lon="10.849353983025608"><ele>474.0</ele><time>2026-03-29T08:17:47.972Z</time></trkpt><trkpt lat="45.54252343708151" lon="10.849330416805273"><ele>474.99999999999994</ele><time>2026-03-29T08:17:50.973Z</time></trkpt><trkpt lat="45.54258758294733" lon="10.849288701996485"><ele>476.0</ele><time>2026-03-29T08:17:53.972Z</time></trkpt><trkpt lat="45.54265666707781" lon="10.849232460476815"><ele>477.0</ele><time>2026-03-29T08:17:57.972Z</time></trkpt><trkpt lat="45.542722458614676" lon="10.849174483039112"><ele>477.0</ele><time>2026-03-29T08:18:01.972Z</time></trkpt><trkpt lat="45.54276636254206" lon="10.849092785310084"><ele>476.99999999999994</ele><time>2026-03-29T08:18:05.972Z</time></trkpt><trkpt lat="45.54279294679402" lon="10.848994251295379"><ele>477.0</ele><time>2026-03-29T08:18:09.972Z</time></trkpt><trkpt lat="45.542799310895624" lon="10.848885505088223"><ele>477.0</ele><time>2026-03-29T08:18:18.971Z</time></trkpt><trkpt lat="45.54281311371217" lon="10.848780108685748"><ele>476.99999999999994</ele><time>2026-03-29T08:18:23.971Z</time></trkpt><trkpt lat="45.54279324101431" lon="10.848665932833969"><ele>477.0</ele><time>2026-03-29T08:18:28.971Z</time></trkpt><trkpt lat="45.542786759977545" lon="10.848571648588049"><ele>477.0</ele><time>2026-03-29T08:18:32.971Z</time></trkpt><trkpt lat="45.54277691011026" lon="10.848479523919135"><ele>476.0</ele><time>2026-03-29T08:18:35.971Z</time></trkpt><trkpt lat="45.542773694548586" lon="10.848366394453116"><ele>475.0</ele><time>2026-03-29T08:18:39.971Z</time></trkpt><trkpt lat="45.5427922425431" lon="10.848279884716165"><ele>474.0</ele><time>2026-03-29T08:18:44.971Z</time></trkpt><trkpt lat="45.542793960434274" lon="10.848165647988463"><ele>473.0</ele><time>2026-03-29T08:18:48.971Z</time></trkpt><trkpt lat="45.542782726340484" lon="10.848046318480263"><ele>472.0</ele><time>2026-03-29T08:18:52.97Z</time></trkpt><trkpt lat="45.54277511772832" lon="10.847935581421957"><ele>471.0</ele><time>2026-03-29T08:18:56.97Z</time></trkpt><trkpt lat="45.54278509958664" lon="10.847835256867253"><ele>471.00000000000006</ele><time>2026-03-29T08:19:00.97Z</time></trkpt><trkpt lat="45.54281639918624" lon="10.847750310075547"><ele>471.0</ele><time>2026-03-29T08:19:04.97Z</time></trkpt><trkpt lat="45.54282998371129" lon="10.847658373668173"><ele>471.00000000000006</ele><time>2026-03-29T08:19:12.97Z</time></trkpt><trkpt lat="45.54282738994755" lon="10.847566413660921"><ele>471.00000000000006</ele><time>2026-03-29T08:19:17.97Z</time></trkpt><trkpt lat="45.54279835787399" lon="10.847477386995688"><ele>471.0</ele><time>2026-03-29T08:19:28.969Z</time></trkpt><trkpt lat="45.54272292212218" lon="10.847395949485964"><ele>471.00000000000006</ele><time>2026-03-29T08:19:43.969Z</time></trkpt><trkpt lat="45.54270329590421" lon="10.847300157633121"><ele>471.00000000000006</ele><time>2026-03-29T08:19:48.972Z</time></trkpt><trkpt lat="45.54266431598105" lon="10.84720985675429"><ele>472.0</ele><time>2026-03-29T08:19:53.973Z</time></trkpt><trkpt lat="45.542641032126035" lon="10.847110885692397"><ele>473.0</ele><time>2026-03-29T08:19:57.972Z</time></trkpt><trkpt lat="45.542608325320614" lon="10.847006083761475"><ele>474.0</ele><time>2026-03-29T08:20:00.972Z</time></trkpt><trkpt lat="45.5425750639261" lon="10.846897481722362"><ele>475.0</ele><time>2026-03-29T08:20:03.972Z</time></trkpt><trkpt lat="45.54254506633026" lon="10.846789201944544"><ele>476.0</ele><time>2026-03-29T08:20:06.972Z</time></trkpt><trkpt lat="45.54250933828016" lon="10.846684948219295"><ele>477.0</ele><time>2026-03-29T08:20:09.972Z</time></trkpt><trkpt lat="45.542475931196286" lon="10.846571362834823"><ele>478.5</ele><time>2026-03-29T08:20:12.972Z</time></trkpt><trkpt lat="45.542434993409024" lon="10.846468031161404"><ele>480.0</ele><time>2026-03-29T08:20:15.972Z</time></trkpt><trkpt lat="45.542402263002025" lon="10.846347868362521"><ele>481.5</ele><time>2026-03-29T08:20:18.972Z</time></trkpt><trkpt lat="45.542379024121935" lon="10.846237324908536"><ele>483.0</ele><time>2026-03-29T08:20:21.971Z</time></trkpt><trkpt lat="45.54230424690396" lon="10.846184535637763"><ele>484.5</ele><time>2026-03-29T08:20:24.971Z</time></trkpt><trkpt lat="45.54222615812508" lon="10.846133880946942"><ele>486.0</ele><time>2026-03-29T08:20:27.971Z</time></trkpt><trkpt lat="45.54216290328785" lon="10.846061348694827"><ele>486.2857142857143</ele><time>2026-03-29T08:20:30.971Z</time></trkpt><trkpt lat="45.542142701935944" lon="10.845943311993846"><ele>486.57142857142856</ele><time>2026-03-29T08:20:33.971Z</time></trkpt><trkpt lat="45.54214941488799" lon="10.845836928392634"><ele>486.85714285714283</ele><time>2026-03-29T08:20:36.971Z</time></trkpt><trkpt lat="45.5421480263375" lon="10.845738911173568"><ele>487.1428571428571</ele><time>2026-03-29T08:20:40.971Z</time></trkpt><trkpt lat="45.54212380334423" lon="10.845652427683302"><ele>487.42857142857144</ele><time>2026-03-29T08:20:49.971Z</time></trkpt><trkpt lat="45.542126348736986" lon="10.84555681549327"><ele>487.71428571428567</ele><time>2026-03-29T08:20:53.971Z</time></trkpt><trkpt lat="45.542084523401414" lon="10.845471390620812"><ele>487.99999999999994</ele><time>2026-03-29T08:21:04.97Z</time></trkpt><trkpt lat="45.542018895866065" lon="10.845414066392335"><ele>485.99999999999994</ele><time>2026-03-29T08:21:07.97Z</time></trkpt><trkpt lat="45.54195144168269" lon="10.845373357612031"><ele>484.0</ele><time>2026-03-29T08:21:09.97Z</time></trkpt><trkpt lat="45.54189180315496" lon="10.84532931773479"><ele>482.0</ele><time>2026-03-29T08:21:12.97Z</time></trkpt><trkpt lat="45.541820433586395" lon="10.845265341812578"><ele>480.0</ele><time>2026-03-29T08:21:16.97Z</time></trkpt><trkpt lat="45.54175437438776" lon="10.84525579015311"><ele>477.99999999999994</ele><time>2026-03-29T08:21:18.97Z</time></trkpt><trkpt lat="45.54166069131551" lon="10.84528315122015"><ele>476.0</ele><time>2026-03-29T08:21:21.97Z</time></trkpt><trkpt lat="45.5415799341082" lon="10.84529764554599"><ele>475.99999999999994</ele><time>2026-03-29T08:21:24.97Z</time></trkpt><trkpt lat="45.541530588017054" lon="10.845212519519428"><ele>476.0</ele><time>2026-03-29T08:21:27.97Z</time></trkpt><trkpt lat="45.541460841580104" lon="10.845191928415643"><ele>476.0</ele><time>2026-03-29T08:21:30.969Z</time></trkpt><trkpt lat="45.54139317679709" lon="10.845160836286311"><ele>476.0</ele><time>2026-03-29T08:21:33.969Z</time></trkpt><trkpt lat="45.54131918986655" lon="10.845154933072736"><ele>475.99999999999994</ele><time>2026-03-29T08:21:36.969Z</time></trkpt><trkpt lat="45.541243148472326" lon="10.845100137570453"><ele>476.0</ele><time>2026-03-29T08:21:39.969Z</time></trkpt><trkpt lat="45.54117014801742" lon="10.845085298289552"><ele>474.57142857142856</ele><time>2026-03-29T08:21:42.969Z</time></trkpt><trkpt lat="45.541111675321936" lon="10.845036230446937"><ele>473.1428571428571</ele><time>2026-03-29T08:21:45.969Z</time></trkpt><trkpt lat="45.54104289786839" lon="10.844998041194025"><ele>471.7142857142857</ele><time>2026-03-29T08:21:48.969Z</time></trkpt><trkpt lat="45.540978013290406" lon="10.844969263841406"><ele>470.2857142857143</ele><time>2026-03-29T08:21:51.972Z</time></trkpt><trkpt lat="45.540904533780086" lon="10.844904319950798"><ele>468.85714285714283</ele><time>2026-03-29T08:21:54.972Z</time></trkpt><trkpt lat="45.54084781749411" lon="10.844853555105278"><ele>467.42857142857144</ele><time>2026-03-29T08:21:56.972Z</time></trkpt><trkpt lat="45.54080112024755" lon="10.844792410813907"><ele>466.0</ele><time>2026-03-29T08:21:58.971Z</time></trkpt><trkpt lat="45.5407287582109" lon="10.844726606966871"><ele>466.00000000000006</ele><time>2026-03-29T08:22:01.971Z</time></trkpt><trkpt lat="45.54068444278446" lon="10.844629848704214"><ele>466.0</ele><time>2026-03-29T08:22:04.972Z</time></trkpt><trkpt lat="45.54059341137701" lon="10.844576611029042"><ele>466.0</ele><time>2026-03-29T08:22:07.972Z</time></trkpt><trkpt lat="45.54051714279176" lon="10.844557788406174"><ele>466.0</ele><time>2026-03-29T08:22:09.971Z</time></trkpt><trkpt lat="45.54042715339049" lon="10.84449468859594"><ele>466.00000000000006</ele><time>2026-03-29T08:22:12.971Z</time></trkpt><trkpt lat="45.54036182721681" lon="10.844471778619463"><ele>466.0</ele><time>2026-03-29T08:22:14.971Z</time></trkpt><trkpt lat="45.540297561485275" lon="10.844452335846347"><ele>464.33333333333337</ele><time>2026-03-29T08:22:16.971Z</time></trkpt><trkpt lat="45.540209779832374" lon="10.844404927160344"><ele>462.6666666666667</ele><time>2026-03-29T08:22:19.971Z</time></trkpt><trkpt lat="45.54015364812889" lon="10.844300539591814"><ele>461.0</ele><time>2026-03-29T08:22:22.971Z</time></trkpt><trkpt lat="45.540118025084176" lon="10.844221694454545"><ele>459.33333333333337</ele><time>2026-03-29T08:22:24.971Z</time></trkpt><trkpt lat="45.54010311439132" lon="10.844105362298622"><ele>457.6666666666667</ele><time>2026-03-29T08:22:27.971Z</time></trkpt><trkpt lat="45.54007868876224" lon="10.844000409064147"><ele>456.0</ele><time>2026-03-29T08:22:30.971Z</time></trkpt><trkpt lat="45.540014499440076" lon="10.843934735947023"><ele>456.0</ele><time>2026-03-29T08:22:33.971Z</time></trkpt><trkpt lat="45.53992622901121" lon="10.843916764401214"><ele>456.0</ele><time>2026-03-29T08:22:36.971Z</time></trkpt><trkpt lat="45.539844594000805" lon="10.843882062540251"><ele>456.0</ele><time>2026-03-29T08:22:39.971Z</time></trkpt><trkpt lat="45.53977297507241" lon="10.843830215160287"><ele>456.0</ele><time>2026-03-29T08:22:42.971Z</time></trkpt><trkpt lat="45.539695541984166" lon="10.843792093263195"><ele>456.0</ele><time>2026-03-29T08:22:45.97Z</time></trkpt><trkpt lat="45.53960094057456" lon="10.843793610713249"><ele>456.0</ele><time>2026-03-29T08:22:48.97Z</time></trkpt><trkpt lat="45.539520425208664" lon="10.843799778659623"><ele>452.6666666666667</ele><time>2026-03-29T08:22:51.97Z</time></trkpt><trkpt lat="45.53943639384526" lon="10.843807543960484"><ele>449.33333333333337</ele><time>2026-03-29T08:22:54.97Z</time></trkpt><trkpt lat="45.53935678669754" lon="10.843787453869414"><ele>446.0</ele><time>2026-03-29T08:22:57.97Z</time></trkpt><trkpt lat="45.539282157583166" lon="10.843748841007548"><ele>442.6666666666667</ele><time>2026-03-29T08:23:00.97Z</time></trkpt><trkpt lat="45.53919389289985" lon="10.843729071455943"><ele>439.33333333333337</ele><time>2026-03-29T08:23:03.97Z</time></trkpt><trkpt lat="45.53911343281062" lon="10.843715157864693"><ele>436.0</ele><time>2026-03-29T08:23:06.97Z</time></trkpt><trkpt lat="45.53904036380222" lon="10.84368229930834"><ele>436.00000000000006</ele><time>2026-03-29T08:23:09.97Z</time></trkpt><trkpt lat="45.53896010987556" lon="10.843653093996986"><ele>436.0</ele><time>2026-03-29T08:23:12.97Z</time></trkpt><trkpt lat="45.5389012328505" lon="10.843620433712845"><ele>436.0</ele><time>2026-03-29T08:23:14.97Z</time></trkpt><trkpt lat="45.53882637489788" lon="10.84357059130135"><ele>436.0</ele><time>2026-03-29T08:23:17.97Z</time></trkpt><trkpt lat="45.53876229381828" lon="10.84352637893693"><ele>436.00000000000006</ele><time>2026-03-29T08:23:19.969Z</time></trkpt><trkpt lat="45.53868727810359" lon="10.843465766965817"><ele>436.0</ele><time>2026-03-29T08:23:22.969Z</time></trkpt><trkpt lat="45.5386166869442" lon="10.843403625610756"><ele>433.6666666666667</ele><time>2026-03-29T08:23:25.969Z</time></trkpt><trkpt lat="45.538566608852896" lon="10.843300833297771"><ele>431.33333333333337</ele><time>2026-03-29T08:23:28.969Z</time></trkpt><trkpt lat="45.538522044389275" lon="10.843231446079363"><ele>429.0</ele><time>2026-03-29T08:23:31.969Z</time></trkpt><trkpt lat="45.53847227982474" lon="10.843169910184088"><ele>426.66666666666663</ele><time>2026-03-29T08:23:34.969Z</time></trkpt><trkpt lat="45.538414726358916" lon="10.843086034758233"><ele>424.3333333333333</ele><time>2026-03-29T08:23:37.969Z</time></trkpt><trkpt lat="45.5383729955254" lon="10.842989955118233"><ele>422.0</ele><time>2026-03-29T08:23:40.969Z</time></trkpt><trkpt lat="45.538338882829066" lon="10.84289282582238"><ele>421.99999999999994</ele><time>2026-03-29T08:23:43.969Z</time></trkpt><trkpt lat="45.538319665313665" lon="10.842784568575519"><ele>422.0</ele><time>2026-03-29T08:23:46.969Z</time></trkpt><trkpt lat="45.5383099826761" lon="10.842674602703488"><ele>422.0</ele><time>2026-03-29T08:23:50.968Z</time></trkpt><trkpt lat="45.538317529298595" lon="10.842562294916263"><ele>422.0</ele><time>2026-03-29T08:23:54.968Z</time></trkpt><trkpt lat="45.53832560193602" lon="10.8424453487646"><ele>421.99999999999994</ele><time>2026-03-29T08:23:58.972Z</time></trkpt><trkpt lat="45.538343287481084" lon="10.84233192723286"><ele>422.0</ele><time>2026-03-29T08:24:03.971Z</time></trkpt><trkpt lat="45.53834493106613" lon="10.842230631537088"><ele>421.8571428571429</ele><time>2026-03-29T08:24:07.972Z</time></trkpt><trkpt lat="45.53833163877267" lon="10.842118684236393"><ele>421.7142857142857</ele><time>2026-03-29T08:24:11.971Z</time></trkpt><trkpt lat="45.538306745396476" lon="10.842035676615296"><ele>421.57142857142856</ele><time>2026-03-29T08:24:16.971Z</time></trkpt><trkpt lat="45.53825475008486" lon="10.84209657071844"><ele>421.42857142857144</ele><time>2026-03-29T08:24:19.971Z</time></trkpt><trkpt lat="45.538196901594034" lon="10.842141600239966"><ele>421.2857142857143</ele><time>2026-03-29T08:24:22.971Z</time></trkpt><trkpt lat="45.53813209378111" lon="10.842169131800718"><ele>421.14285714285717</ele><time>2026-03-29T08:24:25.971Z</time></trkpt><trkpt lat="45.53805753943123" lon="10.842210319879221"><ele>421.0</ele><time>2026-03-29T08:24:28.971Z</time></trkpt><trkpt lat="45.53799623268868" lon="10.842261899355117"><ele>421.00000000000006</ele><time>2026-03-29T08:24:31.971Z</time></trkpt><trkpt lat="45.53792711257674" lon="10.842297479400369"><ele>421.0</ele><time>2026-03-29T08:24:34.971Z</time></trkpt><trkpt lat="45.53785440376986" lon="10.842359891938596"><ele>421.0</ele><time>2026-03-29T08:24:38.97Z</time></trkpt><trkpt lat="45.53779200462579" lon="10.842383339483423"><ele>421.0</ele><time>2026-03-29T08:24:48.97Z</time></trkpt><trkpt lat="45.537759946521376" lon="10.842469928122535"><ele>421.0</ele><time>2026-03-29T08:24:56.97Z</time></trkpt><trkpt lat="45.53772866013877" lon="10.842567841922069"><ele>421.00000000000006</ele><time>2026-03-29T08:25:02.97Z</time></trkpt><trkpt lat="45.537656558104565" lon="10.842564471704737"><ele>421.0</ele><time>2026-03-29T08:25:06.97Z</time></trkpt><trkpt lat="45.53757902831507" lon="10.842561977695116"><ele>418.33333333333337</ele><time>2026-03-29T08:25:09.97Z</time></trkpt><trkpt lat="45.53750854680598" lon="10.842575889195288"><ele>415.6666666666667</ele><time>2026-03-29T08:25:12.969Z</time></trkpt><trkpt lat="45.53744211583351" lon="10.84258843361291"><ele>413.0</ele><time>2026-03-29T08:25:14.969Z</time></trkpt><trkpt lat="45.5373643096999" lon="10.842601070652758"><ele>410.33333333333337</ele><time>2026-03-29T08:25:17.969Z</time></trkpt><trkpt lat="45.53728160733187" lon="10.842570546646986"><ele>407.6666666666667</ele><time>2026-03-29T08:25:20.969Z</time></trkpt><trkpt lat="45.53720357817193" lon="10.842520963437087"><ele>405.0</ele><time>2026-03-29T08:25:23.969Z</time></trkpt><trkpt lat="45.53715115012384" lon="10.842457675591053"><ele>405.0</ele><time>2026-03-29T08:25:25.969Z</time></trkpt><trkpt lat="45.537117412292545" lon="10.842359917147615"><ele>405.0</ele><time>2026-03-29T08:25:28.969Z</time></trkpt><trkpt lat="45.537104884157166" lon="10.842255151285057"><ele>405.0</ele><time>2026-03-29T08:25:31.969Z</time></trkpt><trkpt lat="45.53709907159259" lon="10.842145062112465"><ele>405.0</ele><time>2026-03-29T08:25:34.969Z</time></trkpt><trkpt lat="45.53711373266567" lon="10.842025698777757"><ele>405.0</ele><time>2026-03-29T08:25:37.969Z</time></trkpt><trkpt lat="45.53712242741428" lon="10.841914549482496"><ele>405.0</ele><time>2026-03-29T08:25:40.969Z</time></trkpt><trkpt lat="45.53714975011963" lon="10.841807635541224"><ele>403.1666666666667</ele><time>2026-03-29T08:25:43.969Z</time></trkpt><trkpt lat="45.53718274325977" lon="10.841689900894972"><ele>401.33333333333337</ele><time>2026-03-29T08:25:46.969Z</time></trkpt><trkpt lat="45.53720574095773" lon="10.841588459997237"><ele>399.5</ele><time>2026-03-29T08:25:49.968Z</time></trkpt><trkpt lat="45.53724974553814" lon="10.84149777626745"><ele>397.6666666666667</ele><time>2026-03-29T08:25:52.968Z</time></trkpt><trkpt lat="45.53730989397454" lon="10.841407375998472"><ele>395.83333333333337</ele><time>2026-03-29T08:25:55.968Z</time></trkpt><trkpt lat="45.5373756570144" lon="10.841326705550024"><ele>394.0</ele><time>2026-03-29T08:25:58.968Z</time></trkpt><trkpt lat="45.53740449746454" lon="10.841220799901354"><ele>394.0</ele><time>2026-03-29T08:26:01.968Z</time></trkpt><trkpt lat="45.53743101489308" lon="10.84111197611424"><ele>394.0</ele><time>2026-03-29T08:26:04.971Z</time></trkpt><trkpt lat="45.53743012762506" lon="10.84099677495087"><ele>394.0</ele><time>2026-03-29T08:26:07.971Z</time></trkpt><trkpt lat="45.53740250104478" lon="10.840911202759303"><ele>394.0</ele><time>2026-03-29T08:26:10.97Z</time></trkpt><trkpt lat="45.53733924058793" lon="10.840875381179293"><ele>394.0</ele><time>2026-03-29T08:26:13.971Z</time></trkpt><trkpt lat="45.53727990785427" lon="10.840914527834565"><ele>394.0</ele><time>2026-03-29T08:26:16.971Z</time></trkpt><trkpt lat="45.53721737429769" lon="10.840951312630581"><ele>394.0</ele><time>2026-03-29T08:26:19.971Z</time></trkpt><trkpt lat="45.53714710699606" lon="10.840988416532454"><ele>394.00000000000006</ele><time>2026-03-29T08:26:22.971Z</time></trkpt><trkpt lat="45.53707662403016" lon="10.841028095642256"><ele>394.0</ele><time>2026-03-29T08:26:25.97Z</time></trkpt><trkpt lat="45.53700703679634" lon="10.841062186199556"><ele>394.0</ele><time>2026-03-29T08:26:28.97Z</time></trkpt><trkpt lat="45.5369322578703" lon="10.841125507069476"><ele>394.0</ele><time>2026-03-29T08:26:31.97Z</time></trkpt><trkpt lat="45.536857895899246" lon="10.841163864395812"><ele>394.00000000000006</ele><time>2026-03-29T08:26:34.97Z</time></trkpt><trkpt lat="45.536787882116556" lon="10.841231612476044"><ele>394.0</ele><time>2026-03-29T08:26:37.97Z</time></trkpt><trkpt lat="45.53671918011795" lon="10.841278650934058"><ele>391.50000000000006</ele><time>2026-03-29T08:26:40.97Z</time></trkpt><trkpt lat="45.5366537701359" lon="10.841349820228212"><ele>389.0</ele><time>2026-03-29T08:26:43.97Z</time></trkpt><trkpt lat="45.53658520369916" lon="10.841430732500832"><ele>386.5</ele><time>2026-03-29T08:26:46.97Z</time></trkpt><trkpt lat="45.536521598133" lon="10.841516763867437"><ele>384.0</ele><time>2026-03-29T08:26:49.97Z</time></trkpt><trkpt lat="45.536472106242584" lon="10.841596751567456"><ele>381.5</ele><time>2026-03-29T08:26:52.97Z</time></trkpt><trkpt lat="45.53642254986754" lon="10.841687355018975"><ele>379.0</ele><time>2026-03-29T08:26:55.97Z</time></trkpt><trkpt lat="45.53638751326548" lon="10.841767739825313"><ele>379.66666666666663</ele><time>2026-03-29T08:26:58.97Z</time></trkpt><trkpt lat="45.53636341882181" lon="10.841870411730733"><ele>380.3333333333333</ele><time>2026-03-29T08:27:01.969Z</time></trkpt><trkpt lat="45.53633669752252" lon="10.84197740944722"><ele>381.0</ele><time>2026-03-29T08:27:04.969Z</time></trkpt><trkpt lat="45.53631529944232" lon="10.842073004758184"><ele>381.6666666666667</ele><time>2026-03-29T08:27:07.969Z</time></trkpt><trkpt lat="45.536286675954365" lon="10.842181409910625"><ele>382.33333333333337</ele><time>2026-03-29T08:27:10.969Z</time></trkpt><trkpt lat="45.536257999642345" lon="10.842288779609799"><ele>383.0</ele><time>2026-03-29T08:27:13.969Z</time></trkpt><trkpt lat="45.53627958716348" lon="10.842414019337271"><ele>383.0</ele><time>2026-03-29T08:27:16.969Z</time></trkpt><trkpt lat="45.53629555948596" lon="10.842531218348432"><ele>383.0</ele><time>2026-03-29T08:27:19.969Z</time></trkpt><trkpt lat="45.53632474058376" lon="10.842642320310867"><ele>383.0</ele><time>2026-03-29T08:27:22.969Z</time></trkpt><trkpt lat="45.536367720669375" lon="10.842756922040406"><ele>383.0</ele><time>2026-03-29T08:27:25.969Z</time></trkpt><trkpt lat="45.536399648956504" lon="10.842834610698665"><ele>383.0</ele><time>2026-03-29T08:27:27.969Z</time></trkpt><trkpt lat="45.536445100246" lon="10.842903845953018"><ele>383.0</ele><time>2026-03-29T08:27:29.969Z</time></trkpt><trkpt lat="45.536482928765125" lon="10.84298169412526"><ele>381.1666666666667</ele><time>2026-03-29T08:27:31.969Z</time></trkpt><trkpt lat="45.536531748080016" lon="10.84304007128465"><ele>379.33333333333337</ele><time>2026-03-29T08:27:33.969Z</time></trkpt><trkpt lat="45.53660311905187" lon="10.843122912014197"><ele>377.5</ele><time>2026-03-29T08:27:36.968Z</time></trkpt><trkpt lat="45.536673169396316" lon="10.84320091334344"><ele>375.6666666666667</ele><time>2026-03-29T08:27:39.968Z</time></trkpt><trkpt lat="45.53673130278177" lon="10.843283045314724"><ele>373.8333333333333</ele><time>2026-03-29T08:27:42.968Z</time></trkpt><trkpt lat="45.53680629479363" lon="10.843369772151153"><ele>372.0</ele><time>2026-03-29T08:27:45.968Z</time></trkpt><trkpt lat="45.53687128484724" lon="10.843465861186143"><ele>374.6666666666667</ele><time>2026-03-29T08:27:48.968Z</time></trkpt><trkpt lat="45.536933492885154" lon="10.843565271061884"><ele>377.33333333333337</ele><time>2026-03-29T08:27:51.968Z</time></trkpt><trkpt lat="45.536983457569555" lon="10.843662712872446"><ele>380.0</ele><time>2026-03-29T08:27:54.968Z</time></trkpt><trkpt lat="45.537033177520755" lon="10.843773539782019"><ele>382.6666666666667</ele><time>2026-03-29T08:27:57.968Z</time></trkpt><trkpt lat="45.53709260567536" lon="10.843862996740803"><ele>385.33333333333337</ele><time>2026-03-29T08:28:00.968Z</time></trkpt><trkpt lat="45.537137462299846" lon="10.843926934070202"><ele>388.0</ele><time>2026-03-29T08:28:02.968Z</time></trkpt><trkpt lat="45.53718398858165" lon="10.84402106980558"><ele>388.00000000000006</ele><time>2026-03-29T08:28:05.968Z</time></trkpt><trkpt lat="45.5372207221596" lon="10.844122790001238"><ele>388.0</ele><time>2026-03-29T08:28:08.968Z</time></trkpt><trkpt lat="45.537254005663215" lon="10.844222422416143"><ele>388.0</ele><time>2026-03-29T08:28:11.97Z</time></trkpt><trkpt lat="45.53723668978259" lon="10.84434759246667"><ele>388.0</ele><time>2026-03-29T08:28:14.97Z</time></trkpt><trkpt lat="45.537225727406515" lon="10.844464700600119"><ele>388.00000000000006</ele><time>2026-03-29T08:28:17.971Z</time></trkpt><trkpt lat="45.53721107105609" lon="10.844588671116052"><ele>388.0</ele><time>2026-03-29T08:28:20.97Z</time></trkpt><trkpt lat="45.53721979322565" lon="10.84469521195347"><ele>386.4285714285714</ele><time>2026-03-29T08:28:23.97Z</time></trkpt><trkpt lat="45.53722443481041" lon="10.84480606758374"><ele>384.8571428571429</ele><time>2026-03-29T08:28:26.97Z</time></trkpt><trkpt lat="45.537234878138456" lon="10.844911207407366"><ele>383.2857142857143</ele><time>2026-03-29T08:28:29.97Z</time></trkpt><trkpt lat="45.53727065723868" lon="10.84501948322054"><ele>381.71428571428567</ele><time>2026-03-29T08:28:32.97Z</time></trkpt><trkpt lat="45.53732718824403" lon="10.845075253774098"><ele>380.1428571428571</ele><time>2026-03-29T08:28:35.97Z</time></trkpt><trkpt lat="45.537354787921" lon="10.845163742765987"><ele>378.57142857142856</ele><time>2026-03-29T08:28:58.969Z</time></trkpt><trkpt lat="45.537397485329116" lon="10.845243209414244"><ele>377.0</ele><time>2026-03-29T08:29:01.969Z</time></trkpt><trkpt lat="45.53745356165564" lon="10.84532917624942"><ele>376.6666666666667</ele><time>2026-03-29T08:29:04.969Z</time></trkpt><trkpt lat="45.53751177460421" lon="10.845401938490156"><ele>376.33333333333337</ele><time>2026-03-29T08:29:07.969Z</time></trkpt><trkpt lat="45.53758187889488" lon="10.845468060080327"><ele>376.0</ele><time>2026-03-29T08:29:10.969Z</time></trkpt><trkpt lat="45.537655539659625" lon="10.845510837092663"><ele>375.6666666666667</ele><time>2026-03-29T08:29:13.969Z</time></trkpt><trkpt lat="45.53773420092688" lon="10.84554113174004"><ele>375.3333333333333</ele><time>2026-03-29T08:29:16.968Z</time></trkpt><trkpt lat="45.53781665770274" lon="10.845590248779079"><ele>375.0</ele><time>2026-03-29T08:29:19.968Z</time></trkpt><trkpt lat="45.53789613546411" lon="10.845613832721746"><ele>372.0</ele><time>2026-03-29T08:29:22.968Z</time></trkpt><trkpt lat="45.53680629479363" lon="10.843369772151153"><ele>375.20000000000005</ele><time>2026-03-29T08:27:45.968Z</time></trkpt><trkpt lat="45.53687128484724" lon="10.843465861186143"><ele>378.4</ele><time>2026-03-29T08:27:48.968Z</time></trkpt><trkpt lat="45.536933492885154" lon="10.843565271061884"><ele>381.6</ele><time>2026-03-29T08:27:51.968Z</time></trkpt><trkpt lat="45.536983457569555" lon="10.843662712872446"><ele>384.79999999999995</ele><time>2026-03-29T08:27:54.968Z</time></trkpt><trkpt lat="45.537033177520755" lon="10.843773539782019"><ele>388.0</ele><time>2026-03-29T08:27:57.968Z</time></trkpt><trkpt lat="45.53709260567536" lon="10.843862996740803"><ele>388.00000000000006</ele><time>2026-03-29T08:28:00.968Z</time></trkpt><trkpt lat="45.537137462299846" lon="10.843926934070202"><ele>388.0</ele><time>2026-03-29T08:28:02.968Z</time></trkpt><trkpt lat="45.53718398858165" lon="10.84402106980558"><ele>388.0</ele><time>2026-03-29T08:28:05.968Z</time></trkpt><trkpt lat="45.5372207221596" lon="10.844122790001238"><ele>388.0</ele><time>2026-03-29T08:28:08.968Z</time></trkpt><trkpt lat="45.537254005663215" lon="10.844222422416143"><ele>388.00000000000006</ele><time>2026-03-29T08:28:11.97Z</time></trkpt><trkpt lat="45.53723668978259" lon="10.84434759246667"><ele>388.0</ele><time>2026-03-29T08:28:14.97Z</time></trkpt><trkpt lat="45.537225727406515" lon="10.844464700600119"><ele>386.1666666666667</ele><time>2026-03-29T08:28:17.971Z</time></trkpt><trkpt lat="45.53721107105609" lon="10.844588671116052"><ele>384.33333333333337</ele><time>2026-03-29T08:28:20.97Z</time></trkpt><trkpt lat="45.53721979322565" lon="10.84469521195347"><ele>382.5</ele><time>2026-03-29T08:28:23.97Z</time></trkpt><trkpt lat="45.53722443481041" lon="10.84480606758374"><ele>380.6666666666667</ele><time>2026-03-29T08:28:26.97Z</time></trkpt><trkpt lat="45.537234878138456" lon="10.844911207407366"><ele>378.83333333333337</ele><time>2026-03-29T08:28:29.97Z</time></trkpt><trkpt lat="45.53727065723868" lon="10.84501948322054"><ele>377.0</ele><time>2026-03-29T08:28:32.97Z</time></trkpt><trkpt lat="45.53732718824403" lon="10.845075253774098"><ele>373.33333333333337</ele><time>2026-03-29T08:28:35.97Z</time></trkpt><trkpt lat="45.537354787921" lon="10.845163742765987"><ele>369.6666666666667</ele><time>2026-03-29T08:28:58.969Z</time></trkpt><trkpt lat="45.537397485329116" lon="10.845243209414244"><ele>366.0</ele><time>2026-03-29T08:29:01.969Z</time></trkpt><trkpt lat="45.53745356165564" lon="10.84532917624942"><ele>362.3333333333333</ele><time>2026-03-29T08:29:04.969Z</time></trkpt><trkpt lat="45.53751177460421" lon="10.845401938490156"><ele>358.66666666666663</ele><time>2026-03-29T08:29:07.969Z</time></trkpt><trkpt lat="45.53758187889488" lon="10.845468060080327"><ele>355.0</ele><time>2026-03-29T08:29:10.969Z</time></trkpt><trkpt lat="45.537655539659625" lon="10.845510837092663"><ele>355.0</ele><time>2026-03-29T08:29:13.969Z</time></trkpt><trkpt lat="45.53773420092688" lon="10.84554113174004"><ele>355.0</ele><time>2026-03-29T08:29:16.968Z</time></trkpt><trkpt lat="45.53781665770274" lon="10.845590248779079"><ele>355.0</ele><time>2026-03-29T08:29:19.968Z</time></trkpt><trkpt lat="45.53789613546411" lon="10.845613832721746"><ele>355.0</ele><time>2026-03-29T08:29:22.968Z</time></trkpt><trkpt lat="45.53797994624782" lon="10.845623713257519"><ele>355.0</ele><time>2026-03-29T08:29:25.968Z</time></trkpt><trkpt lat="45.538057831735365" lon="10.845692515113397"><ele>355.0</ele><time>2026-03-29T08:29:28.968Z</time></trkpt><trkpt lat="45.538110853437715" lon="10.84574611563945"><ele>355.8333333333333</ele><time>2026-03-29T08:29:30.968Z</time></trkpt><trkpt lat="45.53816167405817" lon="10.845802284445535"><ele>356.66666666666663</ele><time>2026-03-29T08:29:32.968Z</time></trkpt><trkpt lat="45.5382347194516" lon="10.845888221152638"><ele>357.5</ele><time>2026-03-29T08:29:35.968Z</time></trkpt><trkpt lat="45.538306240838544" lon="10.845959763063156"><ele>358.3333333333333</ele><time>2026-03-29T08:29:38.968Z</time></trkpt><trkpt lat="45.53834263937572" lon="10.846039136017263"><ele>359.1666666666667</ele><time>2026-03-29T08:29:40.968Z</time></trkpt><trkpt lat="45.53839684314399" lon="10.846138869064527"><ele>360.0</ele><time>2026-03-29T08:29:43.968Z</time></trkpt><trkpt lat="45.538471906375385" lon="10.846219629082883"><ele>360.0</ele><time>2026-03-29T08:29:46.968Z</time></trkpt><trkpt lat="45.53851608104918" lon="10.846293704185701"><ele>360.0</ele><time>2026-03-29T08:29:48.968Z</time></trkpt><trkpt lat="45.538579098182026" lon="10.846388555708081"><ele>360.0</ele><time>2026-03-29T08:29:51.967Z</time></trkpt><trkpt lat="45.538601093802626" lon="10.846475345802308"><ele>360.0</ele><time>2026-03-29T08:29:53.967Z</time></trkpt><trkpt lat="45.538626029744165" lon="10.846585327233687"><ele>360.0</ele><time>2026-03-29T08:29:56.967Z</time></trkpt><trkpt lat="45.538666220385" lon="10.846697048861346"><ele>360.0</ele><time>2026-03-29T08:29:59.967Z</time></trkpt><trkpt lat="45.538710815717096" lon="10.846777809283271"><ele>363.3333333333333</ele><time>2026-03-29T08:30:02.967Z</time></trkpt><trkpt lat="45.538739329393515" lon="10.846881792375113"><ele>366.6666666666667</ele><time>2026-03-29T08:30:05.967Z</time></trkpt><trkpt lat="45.53879643486418" lon="10.846964796114957"><ele>370.0</ele><time>2026-03-29T08:30:08.967Z</time></trkpt><trkpt lat="45.5388369634769" lon="10.847072380831353"><ele>373.33333333333337</ele><time>2026-03-29T08:30:11.967Z</time></trkpt><trkpt lat="45.53886380849666" lon="10.847196214470719"><ele>376.6666666666667</ele><time>2026-03-29T08:30:14.967Z</time></trkpt><trkpt lat="45.53888598145874" lon="10.847286192285697"><ele>380.0</ele><time>2026-03-29T08:30:17.97Z</time></trkpt><trkpt lat="45.53890212337144" lon="10.847390250332825"><ele>380.0</ele><time>2026-03-29T08:30:20.969Z</time></trkpt><trkpt lat="45.538894540597845" lon="10.847488964324118"><ele>380.0</ele><time>2026-03-29T08:30:23.969Z</time></trkpt><trkpt lat="45.53884487146289" lon="10.847553925410722"><ele>380.0</ele><time>2026-03-29T08:30:26.97Z</time></trkpt><trkpt lat="45.538781818272696" lon="10.847572741154412"><ele>380.0</ele><time>2026-03-29T08:30:29.97Z</time></trkpt><trkpt lat="45.53871128702464" lon="10.84755619670362"><ele>380.0</ele><time>2026-03-29T08:30:33.969Z</time></trkpt><trkpt lat="45.53864830655098" lon="10.847538766473214"><ele>380.0</ele><time>2026-03-29T08:30:38.969Z</time></trkpt><trkpt lat="45.53856900555658" lon="10.847530388786137"><ele>380.0</ele><time>2026-03-29T08:30:42.969Z</time></trkpt><trkpt lat="45.538494672083644" lon="10.847571676302653"><ele>379.0</ele><time>2026-03-29T08:30:46.969Z</time></trkpt><trkpt lat="45.5384412497222" lon="10.847648789655883"><ele>378.0</ele><time>2026-03-29T08:30:50.969Z</time></trkpt><trkpt lat="45.53838022324517" lon="10.84771591957621"><ele>377.0</ele><time>2026-03-29T08:30:53.969Z</time></trkpt><trkpt lat="45.538319822193586" lon="10.847809259104963"><ele>376.0</ele><time>2026-03-29T08:30:56.969Z</time></trkpt><trkpt lat="45.53825745163015" lon="10.84788214982897"><ele>375.0</ele><time>2026-03-29T08:30:59.969Z</time></trkpt><trkpt lat="45.53819663885099" lon="10.847957891067116"><ele>374.0</ele><time>2026-03-29T08:31:02.969Z</time></trkpt><trkpt lat="45.53814602660489" lon="10.848055737105009"><ele>374.0</ele><time>2026-03-29T08:31:05.969Z</time></trkpt><trkpt lat="45.53809745856623" lon="10.84814221894125"><ele>374.0</ele><time>2026-03-29T08:31:08.968Z</time></trkpt><trkpt lat="45.53804037157299" lon="10.848222111028443"><ele>374.0</ele><time>2026-03-29T08:31:12.968Z</time></trkpt><trkpt lat="45.53797861898166" lon="10.84819201862985"><ele>374.0</ele><time>2026-03-29T08:31:17.968Z</time></trkpt><trkpt lat="45.53799894798188" lon="10.848081331527174"><ele>374.0</ele><time>2026-03-29T08:31:21.968Z</time></trkpt><trkpt lat="45.53802484291213" lon="10.847992461062642"><ele>374.0</ele><time>2026-03-29T08:31:23.968Z</time></trkpt><trkpt lat="45.53805855945764" lon="10.847909465371101"><ele>374.0</ele><time>2026-03-29T08:31:25.968Z</time></trkpt><trkpt lat="45.538077982590664" lon="10.84782102047026"><ele>374.0</ele><time>2026-03-29T08:31:27.968Z</time></trkpt><trkpt lat="45.53812533136879" lon="10.847713960003576"><ele>374.0</ele><time>2026-03-29T08:31:30.968Z</time></trkpt><trkpt lat="45.53814023944318" lon="10.847604518381257"><ele>374.0</ele><time>2026-03-29T08:31:33.968Z</time></trkpt><trkpt lat="45.53815661154908" lon="10.84749310062863"><ele>374.0</ele><time>2026-03-29T08:31:38.968Z</time></trkpt><trkpt lat="45.53809068544441" lon="10.847427904681101"><ele>374.0</ele><time>2026-03-29T08:31:41.967Z</time></trkpt><trkpt lat="45.5380320313092" lon="10.847349785884001"><ele>374.0</ele><time>2026-03-29T08:31:45.967Z</time></trkpt><trkpt lat="45.53797689851776" lon="10.847293479341472"><ele>371.83333333333337</ele><time>2026-03-29T08:31:53.967Z</time></trkpt><trkpt lat="45.53789117295177" lon="10.847353549075917"><ele>369.6666666666667</ele><time>2026-03-29T08:31:59.967Z</time></trkpt><trkpt lat="45.53785278298065" lon="10.847438494249085"><ele>367.5</ele><time>2026-03-29T08:32:01.967Z</time></trkpt><trkpt lat="45.53780319662505" lon="10.847530857026037"><ele>365.3333333333333</ele><time>2026-03-29T08:32:04.967Z</time></trkpt><trkpt lat="45.53774776301519" lon="10.847588721473125"><ele>363.16666666666663</ele><time>2026-03-29T08:32:07.967Z</time></trkpt><trkpt lat="45.53769841087592" lon="10.84767587274971"><ele>361.0</ele><time>2026-03-29T08:32:10.967Z</time></trkpt><trkpt lat="45.53764220843099" lon="10.847775673816852"><ele>361.0</ele><time>2026-03-29T08:32:13.967Z</time></trkpt><trkpt lat="45.53758792011657" lon="10.847869191664953"><ele>361.0</ele><time>2026-03-29T08:32:16.966Z</time></trkpt><trkpt lat="45.537528418453064" lon="10.847954896225925"><ele>361.0</ele><time>2026-03-29T08:32:19.966Z</time></trkpt><trkpt lat="45.53749254246205" lon="10.848029518067085"><ele>361.0</ele><time>2026-03-29T08:32:21.969Z</time></trkpt><trkpt lat="45.53742952545308" lon="10.848100643452918"><ele>361.0</ele><time>2026-03-29T08:32:24.969Z</time></trkpt><trkpt lat="45.537363273100496" lon="10.848173562486657"><ele>361.0</ele><time>2026-03-29T08:32:27.969Z</time></trkpt><trkpt lat="45.5372824700415" lon="10.8482154549309"><ele>361.0</ele><time>2026-03-29T08:32:30.969Z</time></trkpt><trkpt lat="45.53723306888201" lon="10.84827153740904"><ele>361.0</ele><time>2026-03-29T08:32:32.969Z</time></trkpt><trkpt lat="45.53715803182687" lon="10.848321318169903"><ele>361.0</ele><time>2026-03-29T08:32:36.968Z</time></trkpt><trkpt lat="45.53708436878797" lon="10.848380670477079"><ele>361.0</ele><time>2026-03-29T08:32:39.968Z</time></trkpt><trkpt lat="45.53702396955535" lon="10.84840641034831"><ele>361.0</ele><time>2026-03-29T08:32:41.968Z</time></trkpt><trkpt lat="45.536932809876376" lon="10.848422771524167"><ele>361.0</ele><time>2026-03-29T08:32:44.968Z</time></trkpt><trkpt lat="45.53687439620141" lon="10.848461360024512"><ele>362.2857142857143</ele><time>2026-03-29T08:32:46.968Z</time></trkpt><trkpt lat="45.53678332515924" lon="10.848481261535834"><ele>363.57142857142856</ele><time>2026-03-29T08:32:49.968Z</time></trkpt><trkpt lat="45.53669747390925" lon="10.84849786097697"><ele>364.85714285714283</ele><time>2026-03-29T08:32:52.968Z</time></trkpt><trkpt lat="45.536633518220796" lon="10.848518583479207"><ele>366.1428571428571</ele><time>2026-03-29T08:32:54.968Z</time></trkpt><trkpt lat="45.53657120506133" lon="10.848534194171027"><ele>367.42857142857144</ele><time>2026-03-29T08:32:56.968Z</time></trkpt><trkpt lat="45.536503785699516" lon="10.84855285892432"><ele>368.71428571428567</ele><time>2026-03-29T08:32:58.968Z</time></trkpt><trkpt lat="45.53643872722513" lon="10.848572992676976"><ele>370.0</ele><time>2026-03-29T08:33:00.968Z</time></trkpt><trkpt lat="45.53634760467285" lon="10.848598302360132"><ele>369.99999999999994</ele><time>2026-03-29T08:33:03.968Z</time></trkpt><trkpt lat="45.53628197322612" lon="10.848612520728576"><ele>370.0</ele><time>2026-03-29T08:33:05.968Z</time></trkpt><trkpt lat="45.536213776522274" lon="10.848600348698106"><ele>370.0</ele><time>2026-03-29T08:33:07.968Z</time></trkpt><trkpt lat="45.53611883932979" lon="10.84857745506413"><ele>370.0</ele><time>2026-03-29T08:33:10.968Z</time></trkpt><trkpt lat="45.53605187505585" lon="10.848558696270917"><ele>370.0</ele><time>2026-03-29T08:33:12.968Z</time></trkpt><trkpt lat="45.53598058396065" lon="10.848573999058374"><ele>369.99999999999994</ele><time>2026-03-29T08:33:14.967Z</time></trkpt><trkpt lat="45.535917059683" lon="10.848577637111669"><ele>370.0</ele><time>2026-03-29T08:33:16.967Z</time></trkpt><trkpt lat="45.53585057234418" lon="10.848578648318654"><ele>369.1428571428571</ele><time>2026-03-29T08:33:18.967Z</time></trkpt><trkpt lat="45.53578130008104" lon="10.84857475921831"><ele>368.2857142857143</ele><time>2026-03-29T08:33:20.967Z</time></trkpt><trkpt lat="45.53571356282023" lon="10.848574099847957"><ele>367.42857142857144</ele><time>2026-03-29T08:33:22.967Z</time></trkpt><trkpt lat="45.5356223527481" lon="10.848562927373852"><ele>366.57142857142856</ele><time>2026-03-29T08:33:25.967Z</time></trkpt><trkpt lat="45.535564988868444" lon="10.84851551019004"><ele>365.7142857142857</ele><time>2026-03-29T08:33:28.967Z</time></trkpt><trkpt lat="45.535625565255515" lon="10.848455517610583"><ele>364.85714285714283</ele><time>2026-03-29T08:33:39.967Z</time></trkpt><trkpt lat="45.53570540183624" lon="10.848443747295734"><ele>364.0</ele><time>2026-03-29T08:33:44.967Z</time></trkpt><trkpt lat="45.53577181492528" lon="10.848402914334606"><ele>359.2857142857143</ele><time>2026-03-29T08:33:47.967Z</time></trkpt><trkpt lat="45.53583314008399" lon="10.848340697970505"><ele>354.57142857142856</ele><time>2026-03-29T08:33:50.966Z</time></trkpt><trkpt lat="45.5358110529138" lon="10.848242706719363"><ele>349.8571428571429</ele><time>2026-03-29T08:33:53.966Z</time></trkpt><trkpt lat="45.535745486222424" lon="10.84824937739005"><ele>345.1428571428571</ele><time>2026-03-29T08:33:55.966Z</time></trkpt><trkpt lat="45.53567957013577" lon="10.848259659514362"><ele>340.42857142857144</ele><time>2026-03-29T08:33:57.966Z</time></trkpt><trkpt lat="45.535600247339076" lon="10.848230783609582"><ele>335.7142857142857</ele><time>2026-03-29T08:34:00.966Z</time></trkpt><trkpt lat="45.53553385825109" lon="10.848251276075175"><ele>331.0</ele><time>2026-03-29T08:34:03.966Z</time></trkpt><trkpt lat="45.535459232999386" lon="10.848221349653281"><ele>331.0</ele><time>2026-03-29T08:34:07.966Z</time></trkpt><trkpt lat="45.53541171683195" lon="10.848143856925182"><ele>331.0</ele><time>2026-03-29T08:34:10.966Z</time></trkpt><trkpt lat="45.535337600087" lon="10.84810344181646"><ele>331.0</ele><time>2026-03-29T08:34:14.966Z</time></trkpt><trkpt lat="45.535274671185086" lon="10.848124663437918"><ele>331.0</ele><time>2026-03-29T08:34:17.966Z</time></trkpt><trkpt lat="45.53519921445985" lon="10.848125139363464"><ele>331.0</ele><time>2026-03-29T08:34:21.966Z</time></trkpt><trkpt lat="45.535133406602434" lon="10.848093953502051"><ele>331.0</ele><time>2026-03-29T08:34:24.965Z</time></trkpt><trkpt lat="45.53506359157423" lon="10.848039146766217"><ele>331.0</ele><time>2026-03-29T08:34:28.968Z</time></trkpt><trkpt lat="45.53499606025318" lon="10.847981891763752"><ele>329.7142857142857</ele><time>2026-03-29T08:34:32.969Z</time></trkpt><trkpt lat="45.5349327445671" lon="10.84797394348182"><ele>328.42857142857144</ele><time>2026-03-29T08:34:35.969Z</time></trkpt><trkpt lat="45.53486814457614" lon="10.847949149777294"><ele>327.1428571428571</ele><time>2026-03-29T08:34:39.969Z</time></trkpt><trkpt lat="45.53480688021573" lon="10.84791577340053"><ele>325.8571428571429</ele><time>2026-03-29T08:34:42.968Z</time></trkpt><trkpt lat="45.53475591522294" lon="10.84785728669984"><ele>324.57142857142856</ele><time>2026-03-29T08:34:45.968Z</time></trkpt><trkpt lat="45.53469405248977" lon="10.8478305159647"><ele>323.2857142857143</ele><time>2026-03-29T08:34:48.968Z</time></trkpt><trkpt lat="45.53463665575555" lon="10.847746645754158"><ele>322.0</ele><time>2026-03-29T08:34:52.968Z</time></trkpt><trkpt lat="45.53456934255947" lon="10.847722854142889"><ele>323.0</ele><time>2026-03-29T08:34:55.968Z</time></trkpt><trkpt lat="45.53449538799512" lon="10.847699700785363"><ele>324.0</ele><time>2026-03-29T08:34:58.968Z</time></trkpt><trkpt lat="45.53442851163075" lon="10.847657873165726"><ele>325.0</ele><time>2026-03-29T08:35:01.968Z</time></trkpt><trkpt lat="45.53436314961078" lon="10.847614069978079"><ele>326.0</ele><time>2026-03-29T08:35:04.968Z</time></trkpt><trkpt lat="45.53431251607037" lon="10.847544268762237"><ele>327.0</ele><time>2026-03-29T08:35:07.968Z</time></trkpt><trkpt lat="45.534254986641116" lon="10.84748677710955"><ele>328.0</ele><time>2026-03-29T08:35:10.968Z</time></trkpt><trkpt lat="45.53419806091093" lon="10.84742623361916"><ele>329.0</ele><time>2026-03-29T08:35:13.968Z</time></trkpt><trkpt lat="45.53413739836653" lon="10.847387112098422"><ele>323.42857142857144</ele><time>2026-03-29T08:35:16.967Z</time></trkpt><trkpt lat="45.53407865331103" lon="10.84734626095647"><ele>317.8571428571429</ele><time>2026-03-29T08:35:20.967Z</time></trkpt><trkpt lat="45.53401359874498" lon="10.847313021501533"><ele>312.2857142857143</ele><time>2026-03-29T08:35:24.967Z</time></trkpt><trkpt lat="45.533944703282486" lon="10.847294268873638"><ele>306.7142857142857</ele><time>2026-03-29T08:35:27.967Z</time></trkpt><trkpt lat="45.53390014746573" lon="10.847216709203147"><ele>301.14285714285717</ele><time>2026-03-29T08:35:33.967Z</time></trkpt><trkpt lat="45.5339561214714" lon="10.847137835118964"><ele>295.57142857142856</ele><time>2026-03-29T08:35:37.967Z</time></trkpt><trkpt lat="45.53402905793128" lon="10.847116179989657"><ele>290.0</ele><time>2026-03-29T08:35:42.967Z</time></trkpt><trkpt lat="45.5340918537648" lon="10.847079779352029"><ele>290.0</ele><time>2026-03-29T08:35:46.967Z</time></trkpt><trkpt lat="45.5341222284781" lon="10.846993505013629"><ele>290.0</ele><time>2026-03-29T08:35:49.967Z</time></trkpt><trkpt lat="45.53407150236377" lon="10.84691520154645"><ele>290.0</ele><time>2026-03-29T08:35:54.966Z</time></trkpt><trkpt lat="45.534009791939745" lon="10.846869374840288"><ele>290.0</ele><time>2026-03-29T08:35:58.966Z</time></trkpt><trkpt lat="45.533932557281496" lon="10.846845922822265"><ele>290.0</ele><time>2026-03-29T08:36:02.966Z</time></trkpt><trkpt lat="45.533849586043445" lon="10.846873846475285"><ele>290.0</ele><time>2026-03-29T08:36:06.966Z</time></trkpt><trkpt lat="45.53376871202581" lon="10.84684241422343"><ele>291.6666666666667</ele><time>2026-03-29T08:36:10.966Z</time></trkpt><trkpt lat="45.53368756186855" lon="10.846795548046614"><ele>293.33333333333337</ele><time>2026-03-29T08:36:14.966Z</time></trkpt><trkpt lat="45.533637749009436" lon="10.846732422643504"><ele>295.0</ele><time>2026-03-29T08:36:17.966Z</time></trkpt><trkpt lat="45.53358105543039" lon="10.846640021367548"><ele>296.6666666666667</ele><time>2026-03-29T08:36:21.966Z</time></trkpt><trkpt lat="45.533533989797846" lon="10.846554550499322"><ele>298.3333333333333</ele><time>2026-03-29T08:36:24.966Z</time></trkpt><trkpt lat="45.53347609096955" lon="10.846447775192503"><ele>300.0</ele><time>2026-03-29T08:36:27.965Z</time></trkpt><trkpt lat="45.53344314433458" lon="10.846367886237967"><ele>294.0</ele><time>2026-03-29T08:36:29.965Z</time></trkpt><trkpt lat="45.53337240307217" lon="10.846283550803173"><ele>288.0</ele><time>2026-03-29T08:36:32.965Z</time></trkpt><trkpt lat="45.53333023435546" lon="10.846202061627078"><ele>282.0</ele><time>2026-03-29T08:36:34.968Z</time></trkpt><trkpt lat="45.53328970816492" lon="10.846129188576759"><ele>276.0</ele><time>2026-03-29T08:36:36.968Z</time></trkpt><trkpt lat="45.53323556848688" lon="10.846070698805013"><ele>270.0</ele><time>2026-03-29T08:36:38.968Z</time></trkpt><trkpt lat="45.53317924156042" lon="10.84601606307899"><ele>264.0</ele><time>2026-03-29T08:36:40.969Z</time></trkpt><trkpt lat="45.53312088333045" lon="10.845914001113398"><ele>262.6666666666667</ele><time>2026-03-29T08:36:43.968Z</time></trkpt><trkpt lat="45.533065989900216" lon="10.84580896754014"><ele>261.3333333333333</ele><time>2026-03-29T08:36:46.968Z</time></trkpt><trkpt lat="45.53301708809542" lon="10.845747027959519"><ele>260.0</ele><time>2026-03-29T08:36:48.968Z</time></trkpt><trkpt lat="45.53297201474381" lon="10.845636930894084"><ele>258.66666666666663</ele><time>2026-03-29T08:36:51.968Z</time></trkpt><trkpt lat="45.532935302780366" lon="10.845550620441964"><ele>257.3333333333333</ele><time>2026-03-29T08:36:54.968Z</time></trkpt><trkpt lat="45.53292029977675" lon="10.845448497702534"><ele>256.0</ele><time>2026-03-29T08:36:57.968Z</time></trkpt><trkpt lat="45.53286031563851" lon="10.845379720228832"><ele>256.0</ele><time>2026-03-29T08:36:59.968Z</time></trkpt><trkpt lat="45.53281001179225" lon="10.845320801713727"><ele>255.99999999999997</ele><time>2026-03-29T08:37:01.968Z</time></trkpt><trkpt lat="45.53276050770525" lon="10.845228619085997"><ele>256.0</ele><time>2026-03-29T08:37:04.968Z</time></trkpt><trkpt lat="45.53271091846503" lon="10.84517182611192"><ele>256.0</ele><time>2026-03-29T08:37:06.968Z</time></trkpt><trkpt lat="45.53265699795642" lon="10.845069430880487"><ele>255.99999999999997</ele><time>2026-03-29T08:37:09.968Z</time></trkpt><trkpt lat="45.53260905453649" lon="10.844998365913462"><ele>256.0</ele><time>2026-03-29T08:37:11.968Z</time></trkpt><trkpt lat="45.5325540675804" lon="10.844938067588716"><ele>256.0</ele><time>2026-03-29T08:37:13.967Z</time></trkpt><trkpt lat="45.532506408921265" lon="10.844872945995949"><ele>253.28571428571428</ele><time>2026-03-29T08:37:15.967Z</time></trkpt><trkpt lat="45.532461125864565" lon="10.844793440338382"><ele>250.57142857142856</ele><time>2026-03-29T08:37:17.967Z</time></trkpt><trkpt lat="45.532413914701756" lon="10.844729784855536"><ele>247.85714285714283</ele><time>2026-03-29T08:37:19.967Z</time></trkpt><trkpt lat="45.532355024255345" lon="10.844650920602131"><ele>245.1428571428571</ele><time>2026-03-29T08:37:22.967Z</time></trkpt><trkpt lat="45.53230143525016" lon="10.84457928116525"><ele>242.42857142857142</ele><time>2026-03-29T08:37:25.967Z</time></trkpt><trkpt lat="45.532240480491495" lon="10.84450624619696"><ele>239.71428571428567</ele><time>2026-03-29T08:37:28.967Z</time></trkpt><trkpt lat="45.53220535670357" lon="10.844431205311205"><ele>236.99999999999997</ele><time>2026-03-29T08:37:30.967Z</time></trkpt><trkpt lat="45.53213125225396" lon="10.844356633499542"><ele>235.66666666666666</ele><time>2026-03-29T08:37:33.967Z</time></trkpt><trkpt lat="45.532072910234994" lon="10.844270436384296"><ele>234.33333333333331</ele><time>2026-03-29T08:37:36.967Z</time></trkpt><trkpt lat="45.53200967922891" lon="10.844183517356527"><ele>233.0</ele><time>2026-03-29T08:37:39.967Z</time></trkpt><trkpt lat="45.53192655614196" lon="10.844131026212454"><ele>231.66666666666666</ele><time>2026-03-29T08:37:42.967Z</time></trkpt><trkpt lat="45.531871845842076" lon="10.844076261559383"><ele>230.33333333333331</ele><time>2026-03-29T08:37:44.967Z</time></trkpt><trkpt lat="45.53180493037769" lon="10.84400121388483"><ele>229.0</ele><time>2026-03-29T08:37:47.966Z</time></trkpt><trkpt lat="45.53176269032492" lon="10.84390221391304"><ele>228.99999999999997</ele><time>2026-03-29T08:37:50.966Z</time></trkpt><trkpt lat="45.53170727473022" lon="10.843825635874822"><ele>229.0</ele><time>2026-03-29T08:37:53.966Z</time></trkpt><trkpt lat="45.53166707416377" lon="10.843728792161977"><ele>229.0</ele><time>2026-03-29T08:37:56.966Z</time></trkpt><trkpt lat="45.53162660078348" lon="10.843640249191454"><ele>229.0</ele><time>2026-03-29T08:37:59.966Z</time></trkpt><trkpt lat="45.531582451263745" lon="10.843524889636463"><ele>228.99999999999997</ele><time>2026-03-29T08:38:02.966Z</time></trkpt><trkpt lat="45.5315198529679" lon="10.843430813637196"><ele>229.0</ele><time>2026-03-29T08:38:05.966Z</time></trkpt><trkpt lat="45.53144760536882" lon="10.843344774216078"><ele>227.66666666666666</ele><time>2026-03-29T08:38:08.966Z</time></trkpt><trkpt lat="45.53140363602706" lon="10.843269679880017"><ele>226.33333333333331</ele><time>2026-03-29T08:38:10.966Z</time></trkpt><trkpt lat="45.531344958165135" lon="10.843175945557997"><ele>225.0</ele><time>2026-03-29T08:38:13.966Z</time></trkpt><trkpt lat="45.53130329968347" lon="10.843106055957216"><ele>223.66666666666669</ele><time>2026-03-29T08:38:15.966Z</time></trkpt><trkpt lat="45.53126296500242" lon="10.843025168349817"><ele>222.33333333333334</ele><time>2026-03-29T08:38:17.966Z</time></trkpt><trkpt lat="45.531207362056215" lon="10.842909805611209"><ele>221.0</ele><time>2026-03-29T08:38:20.966Z</time></trkpt><trkpt lat="45.5311561125865" lon="10.842832132553871"><ele>220.66666666666669</ele><time>2026-03-29T08:38:22.965Z</time></trkpt><trkpt lat="45.531104822420474" lon="10.84276007302689"><ele>220.33333333333334</ele><time>2026-03-29T08:38:24.965Z</time></trkpt><trkpt lat="45.53104135537653" lon="10.842674161737643"><ele>220.0</ele><time>2026-03-29T08:38:27.965Z</time></trkpt><trkpt lat="45.530993527257316" lon="10.84260470735815"><ele>219.66666666666669</ele><time>2026-03-29T08:38:29.965Z</time></trkpt><trkpt lat="45.53092613185907" lon="10.842522731228188"><ele>219.33333333333334</ele><time>2026-03-29T08:38:32.965Z</time></trkpt><trkpt lat="45.53087053896993" lon="10.842464670240336"><ele>219.0</ele><time>2026-03-29T08:38:34.965Z</time></trkpt><trkpt lat="45.53080671587399" lon="10.842401467370284"><ele>217.5</ele><time>2026-03-29T08:38:36.965Z</time></trkpt><trkpt lat="45.530751984161874" lon="10.842341886788455"><ele>216.0</ele><time>2026-03-29T08:38:38.965Z</time></trkpt><trkpt lat="45.53067441615648" lon="10.842274781018086"><ele>214.5</ele><time>2026-03-29T08:38:41.968Z</time></trkpt><trkpt lat="45.53061661050078" lon="10.84219149151487"><ele>213.0</ele><time>2026-03-29T08:38:44.967Z</time></trkpt><trkpt lat="45.530550401620275" lon="10.842121579154194"><ele>211.5</ele><time>2026-03-29T08:38:47.967Z</time></trkpt><trkpt lat="45.53050111032769" lon="10.842061279043554"><ele>210.0</ele><time>2026-03-29T08:38:49.967Z</time></trkpt><trkpt lat="45.5304614241909" lon="10.841979477076542"><ele>210.0</ele><time>2026-03-29T08:38:52.967Z</time></trkpt><trkpt lat="45.53041236546943" lon="10.84191525116669"><ele>210.0</ele><time>2026-03-29T08:38:54.967Z</time></trkpt><trkpt lat="45.53037581521137" lon="10.84184090563152"><ele>210.0</ele><time>2026-03-29T08:38:56.967Z</time></trkpt><trkpt lat="45.5303106876971" lon="10.841748040282722"><ele>210.0</ele><time>2026-03-29T08:38:59.967Z</time></trkpt><trkpt lat="45.530258270394825" lon="10.841697955544015"><ele>210.0</ele><time>2026-03-29T08:39:01.967Z</time></trkpt><trkpt lat="45.53020892733226" lon="10.841635645689486"><ele>210.0</ele><time>2026-03-29T08:39:03.967Z</time></trkpt><trkpt lat="45.53013432901654" lon="10.84155292007836"><ele>210.0</ele><time>2026-03-29T08:39:06.967Z</time></trkpt><trkpt lat="45.530057201607015" lon="10.841500470085107"><ele>208.0</ele><time>2026-03-29T08:39:09.966Z</time></trkpt><trkpt lat="45.52999136039727" lon="10.841438057597253"><ele>206.0</ele><time>2026-03-29T08:39:12.966Z</time></trkpt><trkpt lat="45.5299180460123" lon="10.841396933653796"><ele>204.0</ele><time>2026-03-29T08:39:15.966Z</time></trkpt><trkpt lat="45.52984999446379" lon="10.841321890261137"><ele>202.0</ele><time>2026-03-29T08:39:18.966Z</time></trkpt><trkpt lat="45.52977036993982" lon="10.841277518089377"><ele>200.0</ele><time>2026-03-29T08:39:21.966Z</time></trkpt><trkpt lat="45.52968429810737" lon="10.841251456600068"><ele>198.0</ele><time>2026-03-29T08:39:24.966Z</time></trkpt><trkpt lat="45.52960093964996" lon="10.841217578662997"><ele>197.16666666666666</ele><time>2026-03-29T08:39:27.966Z</time></trkpt><trkpt lat="45.529513298761636" lon="10.841185547949797"><ele>196.33333333333331</ele><time>2026-03-29T08:39:30.966Z</time></trkpt><trkpt lat="45.529422074170796" lon="10.841156695921613"><ele>195.5</ele><time>2026-03-29T08:39:33.966Z</time></trkpt><trkpt lat="45.52936086604498" lon="10.84111521848001"><ele>194.66666666666666</ele><time>2026-03-29T08:39:35.966Z</time></trkpt><trkpt lat="45.52929694917862" lon="10.841082230889363"><ele>193.83333333333331</ele><time>2026-03-29T08:39:37.966Z</time></trkpt><trkpt lat="45.529230449858034" lon="10.841054542664398"><ele>193.0</ele><time>2026-03-29T08:39:39.966Z</time></trkpt><trkpt lat="45.52916047378403" lon="10.84102903210863"><ele>192.99999999999997</ele><time>2026-03-29T08:39:41.966Z</time></trkpt><trkpt lat="45.529091407141344" lon="10.84102214434871"><ele>193.0</ele><time>2026-03-29T08:39:43.966Z</time></trkpt><trkpt lat="45.52901605426005" lon="10.8409861962233"><ele>193.0</ele><time>2026-03-29T08:39:46.965Z</time></trkpt><trkpt lat="45.52894292841157" lon="10.840921056802303"><ele>193.0</ele><time>2026-03-29T08:39:49.965Z</time></trkpt><trkpt lat="45.528878828762934" lon="10.840877298977631"><ele>192.99999999999997</ele><time>2026-03-29T08:39:51.965Z</time></trkpt><trkpt lat="45.52879636818602" lon="10.840831971590971"><ele>193.0</ele><time>2026-03-29T08:39:54.965Z</time></trkpt><trkpt lat="45.52873816042669" lon="10.840788092576194"><ele>191.66666666666666</ele><time>2026-03-29T08:39:56.965Z</time></trkpt><trkpt lat="45.52865907014629" lon="10.840788571325694"><ele>190.33333333333331</ele><time>2026-03-29T08:39:58.965Z</time></trkpt><trkpt lat="45.528600773841085" lon="10.840729532696184"><ele>189.0</ele><time>2026-03-29T08:40:00.965Z</time></trkpt><trkpt lat="45.5285225975096" lon="10.840658212791821"><ele>187.66666666666666</ele><time>2026-03-29T08:40:03.965Z</time></trkpt><trkpt lat="45.52845152804201" lon="10.840605640120135"><ele>186.33333333333331</ele><time>2026-03-29T08:40:06.965Z</time></trkpt><trkpt lat="45.528375091650496" lon="10.840611713670642"><ele>185.0</ele><time>2026-03-29T08:40:09.965Z</time></trkpt><trkpt lat="45.52831556120686" lon="10.840569447189342"><ele>184.99999999999997</ele><time>2026-03-29T08:40:13.965Z</time></trkpt><trkpt lat="45.52822322545937" lon="10.84060410458095"><ele>185.0</ele><time>2026-03-29T08:41:00.967Z</time></trkpt><trkpt lat="45.52815853011365" lon="10.840590624395775"><ele>185.0</ele><time>2026-03-29T08:41:11.967Z</time></trkpt><trkpt lat="45.52811027442418" lon="10.84065281086715"><ele>185.0</ele><time>2026-03-29T08:41:20.966Z</time></trkpt><trkpt lat="45.52805618446673" lon="10.84071708321739"><ele>185.0</ele><time>2026-03-29T08:41:26.966Z</time></trkpt><trkpt lat="45.52803333936057" lon="10.840810381659143"><ele>184.99999999999997</ele><time>2026-03-29T08:41:32.966Z</time></trkpt><trkpt lat="45.52799864927604" lon="10.84089378916976"><ele>185.0</ele><time>2026-03-29T08:41:39.965Z</time></trkpt><trkpt lat="45.52795259733771" lon="10.84095778970327"><ele>185.5</ele><time>2026-03-29T08:41:44.965Z</time></trkpt><trkpt lat="45.52793089756992" lon="10.841064213390863"><ele>186.0</ele><time>2026-03-29T08:41:51.965Z</time></trkpt><trkpt lat="45.527915353817725" lon="10.841170620151454"><ele>186.5</ele><time>2026-03-29T08:42:01.964Z</time></trkpt><trkpt lat="45.52792464357693" lon="10.841268223217911"><ele>187.0</ele><time>2026-03-29T08:42:13.964Z</time></trkpt><trkpt lat="45.52789050499242" lon="10.841372656195535"><ele>187.5</ele><time>2026-03-29T08:42:27.964Z</time></trkpt><trkpt lat="45.527843613073564" lon="10.84145185207617"><ele>188.0</ele><time>2026-03-29T08:42:30.964Z</time></trkpt><trkpt lat="45.527796916447656" lon="10.84153418534454"><ele>186.33333333333331</ele><time>2026-03-29T08:42:35.963Z</time></trkpt><trkpt lat="45.52775272430277" lon="10.841612246530367"><ele>184.66666666666666</ele><time>2026-03-29T08:42:40.963Z</time></trkpt><trkpt lat="45.52770646793284" lon="10.841676346407986"><ele>183.0</ele><time>2026-03-29T08:42:46.963Z</time></trkpt><trkpt lat="45.52764697924959" lon="10.841719123360903"><ele>181.33333333333334</ele><time>2026-03-29T08:42:53.966Z</time></trkpt><trkpt lat="45.52759739356311" lon="10.841777403176444"><ele>179.66666666666669</ele><time>2026-03-29T08:42:59.965Z</time></trkpt><trkpt lat="45.52741609125094" lon="10.841748327028421"><ele>178.0</ele><time>2026-03-29T08:43:18.966Z</time></trkpt><trkpt lat="45.52735772540159" lon="10.841704944836607"><ele>177.99999999999997</ele><time>2026-03-29T08:43:23.965Z</time></trkpt><trkpt lat="45.52730071818843" lon="10.841659900861991"><ele>178.0</ele><time>2026-03-29T08:43:29.965Z</time></trkpt><trkpt lat="45.52725136353776" lon="10.841596596535167"><ele>178.0</ele><time>2026-03-29T08:43:33.965Z</time></trkpt><trkpt lat="45.52720721596839" lon="10.841525701472063"><ele>178.0</ele><time>2026-03-29T08:43:39.965Z</time></trkpt><trkpt lat="45.52715884320574" lon="10.841461021645166"><ele>178.0</ele><time>2026-03-29T08:43:45.965Z</time></trkpt><trkpt lat="45.52709861008761" lon="10.841428719667888"><ele>177.99999999999997</ele><time>2026-03-29T08:43:50.965Z</time></trkpt><trkpt lat="45.52706294592747" lon="10.841340866393796"><ele>178.0</ele><time>2026-03-29T08:43:57.964Z</time></trkpt><trkpt lat="45.52698376302904" lon="10.841338877026377"><ele>177.28571428571428</ele><time>2026-03-29T08:44:05.964Z</time></trkpt><trkpt lat="45.52693453347703" lon="10.841273487901613"><ele>176.57142857142856</ele><time>2026-03-29T08:44:13.964Z</time></trkpt><trkpt lat="45.526889356075486" lon="10.84117911754967"><ele>175.85714285714283</ele><time>2026-03-29T08:44:19.964Z</time></trkpt><trkpt lat="45.526820117390834" lon="10.841223154433745"><ele>175.14285714285714</ele><time>2026-03-29T08:44:28.965Z</time></trkpt><trkpt lat="45.526765665995676" lon="10.841281199594949"><ele>174.42857142857144</ele><time>2026-03-29T08:44:34.964Z</time></trkpt><trkpt lat="45.526700762493185" lon="10.841340714072844"><ele>173.7142857142857</ele><time>2026-03-29T08:44:39.964Z</time></trkpt><trkpt lat="45.52667475915558" lon="10.841422711049553"><ele>173.0</ele><time>2026-03-29T08:44:44.964Z</time></trkpt><trkpt lat="45.52664152838122" lon="10.841507772539781"><ele>173.0</ele><time>2026-03-29T08:44:51.964Z</time></trkpt><trkpt lat="45.5265896915168" lon="10.8415805745875"><ele>173.0</ele><time>2026-03-29T08:45:02.966Z</time></trkpt><trkpt lat="45.52654050961632" lon="10.841644371557646"><ele>173.0</ele><time>2026-03-29T08:45:08.965Z</time></trkpt><trkpt lat="45.526493714233816" lon="10.841735476566708"><ele>173.0</ele><time>2026-03-29T08:45:14.966Z</time></trkpt><trkpt lat="45.52646341166263" lon="10.841819535455937"><ele>173.0</ele><time>2026-03-29T08:45:19.966Z</time></trkpt><trkpt lat="45.52643354741388" lon="10.84190788286192"><ele>173.0</ele><time>2026-03-29T08:45:32.966Z</time></trkpt><trkpt lat="45.52650026666399" lon="10.841807742251998"><ele>173.0</ele><time>2026-03-29T08:55:28.963Z</time></trkpt><trkpt lat="45.526550404065034" lon="10.84174235987879"><ele>173.0</ele><time>2026-03-29T08:55:34.963Z</time></trkpt><trkpt lat="45.52658770621113" lon="10.841667013620302"><ele>173.0</ele><time>2026-03-29T08:55:41.963Z</time></trkpt><trkpt lat="45.52663961930554" lon="10.841592168842105"><ele>173.0</ele><time>2026-03-29T08:55:49.962Z</time></trkpt><trkpt lat="45.526677375725804" lon="10.84150660638369"><ele>173.0</ele><time>2026-03-29T08:55:58.962Z</time></trkpt><trkpt lat="45.52672126538939" lon="10.84144087630572"><ele>173.0</ele><time>2026-03-29T08:56:04.962Z</time></trkpt><trkpt lat="45.52675595599402" lon="10.841364300828676"><ele>173.0</ele><time>2026-03-29T08:56:11.962Z</time></trkpt><trkpt lat="45.52680199469034" lon="10.841283102364445"><ele>173.0</ele><time>2026-03-29T08:56:19.961Z</time></trkpt><trkpt lat="45.5268247314409" lon="10.841174080364722"><ele>173.0</ele><time>2026-03-29T08:56:26.961Z</time></trkpt><trkpt lat="45.526800998342985" lon="10.841068413161493"><ele>173.0</ele><time>2026-03-29T08:56:31.961Z</time></trkpt><trkpt lat="45.52678932879552" lon="10.84097348413758"><ele>173.0</ele><time>2026-03-29T08:56:37.961Z</time></trkpt><trkpt lat="45.52675891376893" lon="10.840887862446962"><ele>173.0</ele><time>2026-03-29T08:56:42.961Z</time></trkpt><trkpt lat="45.52675117621056" lon="10.84078985969289"><ele>173.0</ele><time>2026-03-29T08:56:50.961Z</time></trkpt><trkpt lat="45.526741610674456" lon="10.840695941683968"><ele>173.0</ele><time>2026-03-29T08:56:59.96Z</time></trkpt><trkpt lat="45.52674018599811" lon="10.840603725257045"><ele>172.85714285714286</ele><time>2026-03-29T08:57:05.96Z</time></trkpt><trkpt lat="45.526788914842534" lon="10.84054602081726"><ele>172.71428571428572</ele><time>2026-03-29T08:57:14.96Z</time></trkpt><trkpt lat="45.526851633213944" lon="10.840535546045686"><ele>172.57142857142858</ele><time>2026-03-29T08:57:23.96Z</time></trkpt><trkpt lat="45.526913838446" lon="10.840499582228254"><ele>172.42857142857144</ele><time>2026-03-29T08:57:40.965Z</time></trkpt><trkpt lat="45.526971765357686" lon="10.840461716123498"><ele>172.28571428571428</ele><time>2026-03-29T08:57:49.965Z</time></trkpt><trkpt lat="45.52702746822594" lon="10.840411962611002"><ele>172.14285714285717</ele><time>2026-03-29T08:57:56.965Z</time></trkpt><trkpt lat="45.52709760742836" lon="10.840351841273268"><ele>172.0</ele><time>2026-03-29T08:58:05.965Z</time></trkpt><trkpt lat="45.527128426149424" lon="10.840267634935358"><ele>179.0</ele><time>2026-03-29T08:58:23.964Z</time></trkpt><trkpt lat="45.52712834042319" lon="10.840153440285748"><ele>179.0</ele><time>2026-03-29T08:59:05.963Z</time></trkpt><trkpt lat="45.52712834042319" lon="10.840153440285748"><ele>179.0</ele><time>2026-03-29T08:59:05.963Z</time></trkpt><trkpt lat="45.52712834042319" lon="10.840153440285748"><ele>179.0</ele><time>2026-03-29T08:59:05.963Z</time></trkpt></trkseg></trk></gpx>